[[{"header":{"parameterUnit":"m.s-1","parameterCategory":1,"la1":30.6,"la2":28.766,"lo1":-90.7593,"lo2":-88.6598,"dy":0.0162,"dx":0.0183,"nx":116,"ny":114,"refTime":"2024-04-30T12:00:00:Z","depth":0,"parameterNumber":2,"parameterNumberName":"U-component_of_WINDS"},"data":[0.0,0.0,0.0,0.0,0.0,0.0,0.0,0.0,0.0,0.0,0.0,0.0,0.0,0.0,0.0,0.0,0.0,0.0,0.0,0.0,0.0,0.0,0.0,0.0,0.0,0.0,0.0,0.0,0.0,0.0,0.0,0.0,0.0,0.0,0.0,0.0,0.0,0.0,0.0,0.0,0.0,0.0,0.0,0.0,0.0,0.0,0.0,0.0,0.0,0.0,0.0,0.0,0.0,0.0,0.0,0.0,0.0,0.0,0.0,0.0,0.0,0.0,0.0,0.0,0.0,0.0,0.0,0.0,0.0,0.0,0.0,0.0,0.0,0.0,0.0,0.0,0.0,0.0,0.0,0.0,0.0,0.0,0.0,0.0,0.0,0.0,0.0,0.0,0.0,0.0,0.0,0.0,0.0,0.0,0.0,0.0,0.0,0.0,0.0,0.0,0.0,0.0,0.0,0.0,0.0,0.0,0.0,0.0,0.0,0.0,0.0,0.0,0.0,0.0,0.0,0.0,0.0,0.0,0.0,0.0,0.0,0.0,0.0,0.0,0.0,0.0,0.0,0.0,0.0,0.0,0.0,0.0,0.0,0.0,0.0,0.0,0.0,0.0,0.0,0.0,0.0,0.0,0.0,0.0,0.0,0.0,0.0,0.0,0.0,0.0,0.0,0.0,0.0,0.0,0.0,0.0,0.0,0.0,0.0,0.0,0.0,0.0,0.0,0.0,0.0,0.0,0.0,0.0,0.0,0.0,0.0,0.0,0.0,0.0,0.0,0.0,0.0,0.0,0.0,0.0,0.0,0.0,0.0,0.0,0.0,0.0,0.0,0.0,0.0,0.0,0.0,0.0,0.0,0.0,0.0,0.0,0.0,0.0,0.0,0.0,0.0,0.0,0.0,0.0,0.0,0.0,0.0,0.0,0.0,0.0,0.0,0.0,0.0,0.0,0.0,0.0,0.0,0.0,0.0,0.0,0.0,0.0,0.0,0.0,0.0,0.0,0.0,0.0,0.0,0.0,0.0,0.0,0.0,0.0,0.0,0.0,0.0,0.0,0.0,0.0,0.0,0.0,0.0,0.0,0.0,0.0,0.0,0.0,0.0,0.0,0.0,0.0,0.0,0.0,0.0,0.0,0.0,0.0,0.0,0.0,0.0,0.0,0.0,0.0,0.0,0.0,0.0,0.0,0.0,0.0,0.0,0.0,0.0,0.0,0.0,0.0,0.0,0.0,0.0,0.0,0.0,0.0,0.0,0.0,0.0,0.0,0.0,0.0,0.0,0.0,0.0,0.0,0.0,0.0,0.0,0.0,0.0,0.0,0.0,0.0,0.0,0.0,0.0,0.0,0.0,0.0,0.0,0.0,0.0,0.0,0.0,0.0,0.0,0.0,0.0,0.0,0.0,0.0,0.0,0.0,0.0,0.0,0.0,0.0,0.0,0.0,0.0,0.0,0.0,0.0,0.0,0.0,0.0,0.0,0.0,0.0,0.0,0.0,0.0,0.0,0.0,0.0,0.0,0.0,0.0,0.0,0.0,0.0,0.0,0.0,0.0,0.0,0.0,0.0,0.0,0.0,0.0,0.0,0.0,0.0,0.0,0.0,0.0,0.0,0.0,0.0,0.0,0.0,0.0,0.0,0.0,0.0,0.0,0.0,0.0,0.0,0.0,0.0,0.0,0.0,0.0,0.0,0.0,0.0,0.0,0.0,0.0,0.0,0.0,0.0,0.0,0.0,0.0,0.0,0.0,0.0,0.0,0.0,0.0,0.0,0.0,0.0,0.0,0.0,0.0,0.0,0.0,0.0,0.0,0.0,0.0,0.0,0.0,0.0,0.0,0.0,0.0,0.0,0.0,0.0,0.0,0.0,0.0,0.0,0.0,0.0,0.0,0.0,0.0,0.0,0.0,0.0,0.0,0.0,0.0,0.0,0.0,0.0,0.0,0.0,0.0,0.0,0.0,0.0,0.0,0.0,0.0,0.0,0.0,0.0,0.0,0.0,0.0,0.0,0.0,0.0,0.0,0.0,0.0,0.0,0.0,0.0,0.0,0.0,0.0,0.0,0.0,0.0,0.0,0.0,0.0,0.0,0.0,0.0,0.0,0.0,0.0,0.0,0.0,0.0,0.0,0.0,0.0,0.0,0.0,0.0,0.0,0.0,0.0,0.0,0.0,0.0,0.0,0.0,0.0,0.0,0.0,0.0,0.0,0.0,0.0,0.0,0.0,0.0,0.0,0.0,0.0,0.0,0.0,0.0,0.0,0.0,0.0,0.0,0.0,0.0,0.0,0.0,0.0,0.0,0.0,0.0,0.0,0.0,0.0,0.0,0.0,0.0,0.0,0.0,0.0,0.0,0.0,0.0,0.0,0.0,0.0,0.0,0.0,0.0,0.0,0.0,0.0,0.0,0.0,0.0,0.0,0.0,0.0,0.0,0.0,0.0,0.0,0.0,0.0,0.0,0.0,0.0,0.0,0.0,0.0,0.0,0.0,0.0,0.0,0.0,0.0,0.0,0.0,0.0,0.0,0.0,0.0,0.0,0.0,0.0,0.0,0.0,0.0,0.0,0.0,0.0,0.0,0.0,0.0,0.0,0.0,0.0,0.0,0.0,0.0,0.0,0.0,0.0,0.0,0.0,0.0,0.0,0.0,0.0,0.0,0.0,0.0,0.0,0.0,0.0,0.0,0.0,0.0,0.0,0.0,0.0,0.0,0.0,0.0,0.0,0.0,0.0,0.0,0.0,0.0,0.0,0.0,0.0,0.0,0.0,0.0,0.0,0.0,0.0,0.0,0.0,0.0,0.0,0.0,0.0,0.0,0.0,0.0,0.0,0.0,0.0,0.0,0.0,0.0,0.0,0.0,0.0,0.0,0.0,0.0,0.0,0.0,0.0,0.0,0.0,0.0,0.0,0.0,0.0,0.0,0.0,0.0,0.0,0.0,0.0,0.0,0.0,0.0,0.0,0.0,0.0,0.0,0.0,0.0,0.0,0.0,0.0,0.0,0.0,0.0,0.0,0.0,0.0,0.0,0.0,0.0,0.0,0.0,0.0,0.0,0.0,0.0,0.0,0.0,0.0,0.0,0.0,0.0,0.0,0.0,0.0,0.0,0.0,0.0,0.0,0.0,0.0,0.0,0.0,0.0,0.0,0.0,0.0,0.0,0.0,0.0,0.0,0.0,0.0,0.0,0.0,0.0,0.0,0.0,0.0,0.0,0.0,0.0,0.0,0.0,0.0,0.0,0.0,0.0,0.0,0.0,0.0,0.0,0.0,0.0,0.0,0.0,0.0,0.0,0.0,0.0,0.0,0.0,0.0,0.0,0.0,0.0,0.0,0.0,0.0,0.0,0.0,0.0,0.0,0.0,0.0,0.0,0.0,0.0,0.0,0.0,0.0,0.0,0.0,0.0,0.0,0.0,0.0,0.0,0.0,0.0,0.0,0.0,0.0,0.0,0.0,0.0,0.0,0.0,0.0,0.0,0.0,0.0,0.0,0.0,0.0,0.0,0.0,0.0,0.0,0.0,0.0,0.0,0.0,0.0,0.0,0.0,0.0,0.0,0.0,0.0,0.0,0.0,0.0,0.0,0.0,0.0,0.0,0.0,0.0,0.0,0.0,0.0,0.0,0.0,0.0,0.0,0.0,0.0,0.0,0.0,0.0,0.0,0.0,0.0,0.0,0.0,0.0,0.0,0.0,0.0,0.0,0.0,0.0,0.0,0.0,0.0,0.0,0.0,0.0,0.0,0.0,0.0,0.0,0.0,0.0,0.0,0.0,0.0,0.0,0.0,0.0,0.0,0.0,0.0,0.0,0.0,0.0,0.0,0.0,0.0,0.0,0.0,0.0,0.0,0.0,0.0,0.0,0.0,0.0,0.0,0.0,0.0,0.0,0.0,0.0,0.0,0.0,0.0,0.0,0.0,0.0,0.0,0.0,0.0,0.0,0.0,0.0,0.0,0.0,0.0,0.0,0.0,0.0,0.0,0.0,0.0,0.0,0.0,0.0,0.0,0.0,0.0,0.0,0.0,0.0,0.0,0.0,0.0,0.0,0.0,0.0,0.0,0.0,0.0,0.0,0.0,0.0,0.0,0.0,0.0,0.0,0.0,0.0,0.0,0.0,0.0,0.0,0.0,0.0,0.0,0.0,0.0,0.0,0.0,0.0,0.0,0.0,0.0,0.0,0.0,0.0,0.0,0.0,0.0,0.0,0.0,0.0,0.0,0.0,0.0,0.0,0.0,0.0,0.0,0.0,0.0,0.0,0.0,0.0,0.0,0.0,0.0,0.0,0.0,0.0,0.0,0.0,0.0,0.0,0.0,0.0,0.0,0.0,0.0,0.0,0.0,0.0,0.0,0.0,0.0,0.0,0.0,0.0,0.0,0.0,0.0,0.0,0.0,0.0,0.0,0.0,0.0,0.0,0.0,0.0,0.0,0.0,0.0,0.0,0.0,0.0,0.0,0.0,0.0,0.0,0.0,0.0,0.0,0.0,0.0,0.0,0.0,0.0,0.0,0.0,0.0,0.0,0.0,0.0,0.0,0.0,0.0,0.0,0.0,0.0,0.0,0.0,0.0,0.0,0.0,0.0,0.0,0.0,0.0,0.0,0.0,0.0,0.0,0.0,0.0,0.0,0.0,0.0,0.0,0.0,0.0,0.0,0.0,0.0,0.0,0.0,0.0,0.0,0.0,0.0,0.0,0.0,0.0,0.0,0.0,0.0,0.0,0.0,0.0,0.0,0.0,0.0,0.0,0.0,0.0,0.0,0.0,0.0,0.0,0.0,0.0,0.0,0.0,0.0,0.0,0.0,0.0,0.0,0.0,0.0,0.0,0.0,0.0,0.0,0.0,0.0,0.0,0.0,0.0,0.0,0.0,0.0,0.0,0.0,0.0,0.0,0.0,0.0,0.0,0.0,0.0,0.0,0.0,0.0,0.0,0.0,0.0,0.0,0.0,0.0,0.0,0.0,0.0,0.0,0.0,0.0,0.0,0.0,0.0,0.0,0.0,0.0,0.0,0.0,0.0,0.0,0.0,0.0,0.0,0.0,0.0,0.0,0.0,0.0,0.0,0.0,0.0,0.0,0.0,0.0,0.0,0.0,0.0,0.0,0.0,0.0,0.0,0.0,0.0,0.0,0.0,0.0,0.0,0.0,0.0,0.0,0.0,0.0,0.0,0.0,0.0,0.0,0.0,0.0,0.0,0.0,0.0,0.0,0.0,0.0,0.0,0.0,0.0,0.0,0.0,0.0,0.0,0.0,0.0,0.0,0.0,0.0,0.0,0.0,0.0,0.0,0.0,0.0,0.0,0.0,0.0,0.0,0.0,0.0,0.0,0.0,0.0,0.0,0.0,0.0,0.0,0.0,0.0,0.0,0.0,0.0,0.0,0.0,0.0,0.0,0.0,0.0,0.0,0.0,0.0,0.0,0.0,0.0,0.0,0.0,0.0,0.0,0.0,0.0,0.0,0.0,0.0,0.0,0.0,0.0,0.0,0.0,0.0,0.0,0.0,0.0,0.0,0.0,0.0,0.0,0.0,0.0,0.0,0.0,0.0,0.0,0.0,0.0,0.0,0.0,0.0,0.0,0.0,0.0,0.0,0.0,0.0,0.0,0.0,0.0,0.0,0.0,0.0,0.0,0.0,0.0,0.0,0.0,0.0,0.0,0.0,0.0,0.0,0.0,0.0,0.0,0.0,0.0,0.0,0.0,0.0,0.0,0.0,0.0,0.0,0.0,0.0,0.0,0.0,0.0,0.0,0.0,0.0,0.0,0.0,0.0,0.0,0.0,0.0,0.0,0.0,0.0,0.0,0.0,0.0,0.0,0.0,0.0,0.0,0.0,0.0,0.0,0.0,0.0,0.0,0.0,0.0,0.0,0.0,0.0,0.0,0.0,0.0,0.0,0.0,0.0,0.0,0.0,0.0,0.0,0.0,0.0,0.0,0.0,0.0,0.0,0.0,0.0,0.0,0.0,0.0,0.0,0.0,0.0,0.0,0.0,0.0,0.0,0.0,0.0,0.0,0.0,0.0,0.0,0.0,0.0,0.0,0.0,0.0,0.0,0.0,0.0,0.0,0.0,0.0,0.0,0.0,0.0,-4.7522,-4.7653,0.0,0.0,0.0,0.0,0.0,0.0,0.0,0.0,0.0,0.0,0.0,0.0,0.0,0.0,0.0,0.0,0.0,0.0,0.0,0.0,0.0,0.0,0.0,-4.329,-4.329,-4.329,-4.329,-4.329,-4.329,0.0,0.0,0.0,0.0,0.0,-4.329,-4.329,-4.3125,-4.2821,-4.3125,-4.3125,-4.2836,-4.31,-4.2523,-4.1173,0.0,0.0,0.0,0.0,0.0,0.0,0.0,0.0,0.0,0.0,0.0,0.0,0.0,0.0,0.0,0.0,0.0,0.0,0.0,0.0,0.0,0.0,0.0,0.0,0.0,0.0,0.0,0.0,0.0,0.0,0.0,0.0,0.0,0.0,0.0,0.0,0.0,0.0,0.0,0.0,0.0,0.0,0.0,0.0,0.0,0.0,0.0,0.0,0.0,0.0,0.0,0.0,0.0,0.0,0.0,0.0,0.0,0.0,0.0,0.0,0.0,0.0,0.0,0.0,0.0,0.0,0.0,0.0,0.0,0.0,-4.8345,-4.7747,0.0,0.0,0.0,0.0,0.0,0.0,0.0,0.0,0.0,0.0,0.0,0.0,0.0,0.0,0.0,0.0,0.0,0.0,0.0,0.0,0.0,-4.329,-4.329,-4.329,-4.329,-4.329,-4.329,-4.329,-4.329,-4.329,0.0,0.0,0.0,-4.329,-4.329,-4.329,-4.3245,-4.3125,-4.3349,-4.3529,-4.3618,-4.3254,-4.244,-4.1205,-4.0202,0.0,0.0,0.0,0.0,0.0,0.0,0.0,0.0,0.0,0.0,0.0,0.0,0.0,0.0,0.0,0.0,0.0,0.0,0.0,0.0,0.0,0.0,0.0,0.0,0.0,0.0,0.0,0.0,0.0,0.0,0.0,0.0,0.0,0.0,0.0,0.0,0.0,0.0,0.0,0.0,0.0,0.0,0.0,0.0,0.0,0.0,0.0,0.0,0.0,0.0,0.0,0.0,0.0,0.0,0.0,0.0,0.0,0.0,0.0,0.0,0.0,0.0,0.0,-5.1261,-5.1426,-5.1848,-5.1848,-5.2215,-5.2695,-5.012,-4.8692,-4.8147,-4.7178,0.0,0.0,0.0,0.0,0.0,0.0,0.0,0.0,0.0,0.0,0.0,0.0,0.0,0.0,0.0,0.0,0.0,0.0,0.0,-4.329,-4.329,-4.329,-4.329,-4.329,-4.329,-4.329,-4.329,-4.329,-4.329,-4.329,-4.329,-4.329,-4.329,-4.329,-4.3045,-4.253,-4.3629,-4.4481,-4.505,-4.5559,-4.5394,-4.4541,-4.2177,-4.1482,-4.1931,0.0,0.0,0.0,0.0,0.0,0.0,0.0,0.0,0.0,0.0,0.0,0.0,0.0,0.0,0.0,0.0,0.0,0.0,0.0,0.0,0.0,0.0,0.0,0.0,0.0,0.0,0.0,0.0,0.0,0.0,0.0,0.0,0.0,0.0,0.0,0.0,0.0,0.0,0.0,0.0,0.0,-4.2929,-4.2381,0.0,0.0,0.0,0.0,0.0,0.0,0.0,0.0,0.0,0.0,0.0,0.0,0.0,-5.0386,-5.1313,-5.3423,-5.4272,-5.3959,-5.6657,-5.7262,-5.6014,-5.6014,-5.6069,-5.6106,-5.5033,0.0,-5.0657,-4.9836,0.0,0.0,0.0,0.0,0.0,0.0,0.0,0.0,0.0,0.0,0.0,0.0,0.0,0.0,0.0,0.0,0.0,0.0,0.0,0.0,0.0,-4.3922,-4.3843,-4.3843,-4.4915,-4.508,-4.3958,-4.456,-4.4471,-4.3349,-4.329,-4.329,-4.329,-4.329,-4.3708,-4.4586,-4.5529,-4.6516,-4.7534,-4.7833,-4.7623,-4.692,-4.5768,-4.4223,-4.2336,-4.1354,0.0,0.0,0.0,0.0,0.0,0.0,0.0,0.0,0.0,0.0,0.0,0.0,0.0,0.0,0.0,0.0,0.0,0.0,0.0,0.0,0.0,0.0,0.0,0.0,0.0,0.0,0.0,0.0,0.0,0.0,0.0,0.0,0.0,0.0,0.0,0.0,0.0,0.0,0.0,-4.4113,-4.4874,-4.3735,-4.4316,-4.4028,0.0,0.0,0.0,0.0,0.0,0.0,0.0,0.0,0.0,-4.9075,-5.0938,-5.2716,-5.4363,-5.5503,-5.6564,-5.7562,-5.8512,-5.8823,-5.8604,-5.8681,-5.8705,-5.8673,-5.7932,-5.6636,-5.4801,-5.1879,-4.9647,-4.7944,0.0,0.0,0.0,0.0,-4.4788,-4.4845,0.0,0.0,0.0,0.0,0.0,0.0,0.0,0.0,0.0,0.0,0.0,0.0,-4.4641,-4.4618,-4.4631,-4.4811,-4.6022,-4.6157,-4.4661,-4.5035,-4.4646,-4.315,-4.2925,-4.2796,-4.2796,-4.329,-4.453,-4.6576,-4.7399,-4.8386,-4.9508,-4.9688,-4.9598,-4.9284,-4.9105,-4.7025,-4.3609,-4.2551,-4.1474,-4.0397,0.0,0.0,0.0,0.0,0.0,0.0,0.0,0.0,0.0,0.0,0.0,0.0,0.0,0.0,0.0,0.0,0.0,0.0,0.0,0.0,0.0,0.0,0.0,0.0,0.0,0.0,0.0,0.0,0.0,0.0,0.0,0.0,0.0,0.0,0.0,0.0,0.0,-4.5855,-4.687,-4.4852,-4.6718,-4.687,0.0,0.0,0.0,0.0,0.0,0.0,-4.7934,-4.9643,-5.1061,-5.2096,-5.3888,-5.5634,-5.7334,-5.762,-5.852,-6.0051,-5.9623,-5.9625,-6.0008,-6.009,-6.0029,-5.981,-5.9346,-5.8702,-5.7662,-5.3879,-5.1268,-4.9452,-4.7439,-4.6083,-4.5221,-4.5015,-4.4955,-4.503,0.0,0.0,0.0,0.0,0.0,0.0,0.0,0.0,0.0,0.0,0.0,-4.3927,-4.5287,-4.5314,-4.5514,-4.6115,-4.5723,-4.5349,-4.5259,-4.3594,-4.2545,-4.2455,-4.1856,-4.1489,-4.1489,-4.3314,-4.5244,-4.7249,-4.8536,-4.9523,-5.0166,-5.0825,-5.1439,-5.1977,-5.1349,-4.9568,-4.6935,-4.499,-4.3793,-4.303,-4.1115,0.0,0.0,0.0,0.0,0.0,0.0,0.0,0.0,0.0,0.0,0.0,0.0,0.0,0.0,0.0,0.0,0.0,0.0,0.0,0.0,0.0,0.0,0.0,0.0,0.0,0.0,0.0,0.0,0.0,0.0,0.0,0.0,0.0,0.0,0.0,0.0,0.0,0.0,-4.5038,-4.8984,0.0,0.0,0.0,0.0,-4.8663,-4.9373,-5.0471,-5.1909,-5.4023,-5.5497,-5.6271,-5.8363,-5.9619,-5.9924,-6.0552,-6.0641,-6.0202,-6.0788,-6.0701,-5.999,-6.0015,-5.957,-5.8877,-5.8988,-5.8542,-5.7687,-5.6047,-5.4135,-5.2047,-5.0397,-4.8969,-4.7709,-4.6952,-4.6667,-4.6671,0.0,0.0,0.0,-4.2726,-4.413,-4.5144,-4.4632,-4.4673,-4.505,-4.576,-4.5283,-4.5373,-4.6698,-4.7542,-4.7907,-4.7607,-4.8521,-4.8386,-4.6696,-4.5529,-4.4526,-4.3658,-4.262,-4.265,-4.3868,-4.502,-4.6743,-4.9149,-5.0511,-5.1723,-5.2815,-5.3458,-5.3668,-5.3488,-5.3249,-5.2142,-5.0272,-4.7429,-4.5364,-4.3808,-4.1833,-4.0891,0.0,0.0,0.0,0.0,0.0,0.0,0.0,0.0,0.0,0.0,0.0,0.0,0.0,0.0,0.0,0.0,0.0,0.0,0.0,0.0,0.0,0.0,0.0,0.0,0.0,0.0,0.0,0.0,0.0,0.0,0.0,0.0,0.0,0.0,0.0,0.0,0.0,-5.1133,-5.4346,0.0,-5.1116,-5.186,-5.2181,-5.12,-5.2739,-5.4143,-5.5141,-5.6844,-5.7868,-5.814,-5.8901,-5.9546,-6.0078,-5.9838,-5.9765,-5.9953,-6.018,-6.0106,-5.9753,-5.9838,-5.9427,-5.868,-5.8804,-5.813,-5.6912,-5.688,-5.5929,-5.4296,-5.2594,-5.1056,-4.9714,-4.89,-4.8252,-4.7771,0.0,-4.1474,0.0,-4.2337,-4.3758,-4.484,-4.4582,-4.4679,-4.518,-4.6138,-4.6159,-4.6561,-4.7808,-4.9103,-4.9619,-4.9014,-4.9733,-4.9404,-4.7429,-4.6052,-4.468,-4.3389,-4.274,-4.3324,-4.5244,-4.6411,-4.8118,-5.0524,-5.1663,-5.277,-5.3862,-5.4311,-5.4401,-5.4206,-5.4206,-5.3713,-5.2725,-5.0301,-4.7878,-4.5484,-4.3494,-4.2701,-4.2432,0.0,0.0,0.0,0.0,0.0,0.0,0.0,0.0,0.0,0.0,0.0,0.0,0.0,0.0,0.0,0.0,0.0,0.0,0.0,0.0,0.0,0.0,0.0,0.0,0.0,0.0,0.0,0.0,0.0,0.0,0.0,0.0,0.0,0.0,-5.2034,-5.5074,-5.531,-5.8626,-5.9539,-5.6072,-5.6867,-5.7171,-5.6173,-5.7492,-5.8457,-5.8676,-5.9624,-5.9911,-5.9404,-5.9387,-5.9392,-5.9351,-5.903,-5.872,-5.8341,-5.8821,-5.8829,-5.8501,-5.8518,-5.8228,-5.7738,-5.7589,-5.6909,-5.5986,-5.649,-5.6231,-5.5335,-5.3932,-5.2328,-5.0652,-4.9884,-4.904,-4.8269,-4.0096,-4.0679,-4.1441,-4.2168,-4.2912,-4.3855,-4.5147,-4.4649,-4.4842,-4.6893,-4.6995,-4.7336,-4.855,-4.9874,-5.0592,-5.0289,-4.9075,-4.8042,-4.7384,-4.4784,-4.2776,-4.1489,-4.2156,-4.3444,-4.5379,-4.7354,-4.9329,-5.1274,-5.1932,-5.2591,-5.3219,-5.3234,-5.3593,-5.4236,-5.4236,-5.4251,-5.4221,-5.3563,-5.1424,-4.8312,-4.6232,-4.5379,-4.5005,0.0,0.0,0.0,0.0,0.0,0.0,0.0,0.0,0.0,0.0,0.0,0.0,0.0,0.0,0.0,0.0,0.0,0.0,0.0,0.0,0.0,0.0,0.0,0.0,0.0,0.0,0.0,0.0,0.0,0.0,0.0,0.0,0.0,-4.9869,-5.4666,-5.7744,-5.7152,-6.1603,-6.3548,-6.0622,-6.233,-6.3599,-6.3548,-6.3548,-6.321,-6.2465,-6.2398,-6.1687,-6.0182,-6.0097,-5.9387,-5.7932,-5.8529,-5.772,-5.5531,-5.6835,-5.7033,-5.6248,-5.606,-5.5968,-5.5957,-5.5281,-5.4965,-5.4947,-5.4984,-5.5018,-5.503,-5.4395,-5.2703,-5.055,-4.9845,-4.904,-4.8177,-4.0138,-4.0679,-4.1441,-4.2168,-4.2912,-4.3686,-4.449,-4.433,-4.4641,-4.6143,-4.7588,-4.8957,-5.0215,-5.1941,-5.2729,-5.2015,-5.017,-4.876,-4.8057,-4.508,-4.3125,-4.2766,-4.4362,-4.6157,-4.8176,-4.9643,-5.1139,-5.2636,-5.3324,-5.3743,-5.3937,-5.4416,-5.4745,-5.4925,-5.4925,-5.5194,-5.5628,-5.5433,-5.4551,-5.295,-4.903,-4.7174,-4.6546,0.0,0.0,0.0,0.0,0.0,0.0,0.0,0.0,0.0,0.0,0.0,0.0,0.0,0.0,0.0,0.0,0.0,0.0,0.0,0.0,0.0,0.0,0.0,0.0,0.0,0.0,0.0,0.0,0.0,0.0,0.0,-4.731,-5.0466,-5.2009,-5.6277,-6.0194,-6.2682,-6.5329,-6.6677,-6.5831,-6.5848,-6.5459,-6.4377,-6.4309,-6.3988,-6.3243,-6.2685,-6.1958,-6.0994,-5.9894,-5.9116,-5.871,-5.7827,-5.7004,-5.6307,-5.6122,-5.5876,-5.5559,-5.5401,-5.5346,-5.5336,-5.5049,-5.4592,-5.4103,-5.4683,-5.3927,-5.2413,-5.2876,-5.2346,-5.1152,-4.9807,-4.8844,-4.8098,-4.0138,-4.0468,-4.1068,-4.2117,-4.2658,-4.3247,-4.417,-4.4493,-4.4968,-4.5893,-4.813,-4.9864,-5.0471,-5.2365,-5.3097,-5.1907,-5.0072,-4.8443,-4.7216,-4.4704,-4.3783,-4.4945,-4.6636,-4.8356,-5.0047,-5.1648,-5.298,-5.4027,-5.4431,-5.476,-5.5029,-5.5149,-5.5194,-5.5194,-5.5194,-5.5403,-5.5763,-5.5763,-5.5703,-5.5329,-5.2082,-5.0361,-4.9508,-4.707,-4.6172,-4.604,-4.5005,-4.5095,-4.5439,-4.3629,0.0,0.0,0.0,0.0,0.0,0.0,0.0,0.0,0.0,0.0,0.0,0.0,0.0,0.0,0.0,0.0,0.0,0.0,0.0,0.0,0.0,0.0,0.0,0.0,-5.0193,-5.328,-5.4851,-5.8121,-6.1699,-6.5348,-6.6645,-6.7564,-6.8325,-6.7438,-6.6457,-6.5595,-6.4952,-6.414,-6.3108,-6.2347,-6.145,-6.0385,-5.9167,-5.8254,-5.7608,-5.6782,-5.5994,-5.5294,-5.5126,-5.4839,-5.4438,-5.4278,-5.4197,-5.4099,-5.3699,-5.3213,-5.2733,-5.3204,-5.2371,-5.0909,0.0,0.0,0.0,0.0,-4.7521,-4.6538,-4.0121,-4.0096,-4.057,-4.2033,-4.2286,-4.2767,-4.4148,-4.4933,-4.5555,-4.5991,-4.851,-5.0201,-4.9969,-5.1647,-5.2282,-5.0951,-4.9344,-4.7561,-4.5718,-4.4352,-4.4784,-4.7414,-4.8925,-5.0287,-5.1528,-5.3518,-5.482,-5.5403,-5.5403,-5.5703,-5.6323,-5.5598,-5.5299,-5.5299,-5.5224,-5.5224,-5.5299,-5.5299,-5.5688,-5.6181,-5.4999,-5.4042,-5.2905,-4.9329,-4.9,-5.0106,-4.7774,-4.7042,-4.707,-4.6157,0.0,0.0,0.0,0.0,0.0,0.0,0.0,0.0,0.0,0.0,0.0,0.0,0.0,0.0,0.0,0.0,0.0,0.0,0.0,0.0,0.0,0.0,0.0,0.0,-5.2661,-5.5664,-5.7789,-5.9699,-6.2226,-6.5774,-6.6403,-6.7229,-6.8941,-6.7726,-6.6812,-6.6812,-6.5442,-6.3954,-6.2465,-6.1704,0.0,0.0,0.0,-5.7188,-5.597,-5.5716,-5.4972,-5.3754,-5.4112,-5.3917,-5.3191,-5.2979,-5.2778,-5.2562,-5.1907,-5.1514,-5.1343,-5.1298,-5.0782,-5.0093,-5.151,-5.0737,-4.8629,-4.7165,-4.5748,-4.4509,-4.0163,-4.0096,-4.057,-4.2033,-4.2286,-4.2811,-4.4305,-4.5019,-4.5614,-4.6163,-4.8142,-4.9659,-5.0096,-5.0375,-5.0903,-5.1765,-4.8799,-4.6741,-4.6326,-4.5938,-4.6696,-4.879,-5.1154,-5.28,-5.3608,-5.5538,-5.66,-5.672,-5.672,-5.6795,-5.69,-5.6286,-5.5987,-5.5957,-5.5418,-5.5478,-5.5987,-5.5987,-5.6346,-5.69,-5.663,-5.5523,-5.3862,-5.2546,-5.1947,-5.1753,-5.1244,-5.1753,-5.2336,-5.0001,-4.876,-4.7698,-4.5289,-4.291,0.0,0.0,0.0,0.0,0.0,0.0,0.0,0.0,0.0,0.0,0.0,0.0,0.0,0.0,0.0,0.0,0.0,0.0,0.0,-5.0497,-5.3271,-5.6071,-5.8791,-5.9142,-6.0563,-6.44,-6.6505,-6.7984,-6.9011,-6.7726,-6.6812,-6.6812,-6.5442,-6.3954,-6.2465,-6.1704,-6.0605,-5.9066,-5.7712,-5.7154,-5.7459,-5.57,-5.4972,-5.5277,-5.4194,0.0,-5.2495,-5.2324,-5.1926,-5.1356,-5.1528,-5.1579,-5.1524,-5.1378,-5.0434,-4.9112,-4.8771,-4.7956,-4.6889,-4.5949,-4.5464,-4.5197,-4.0238,-4.0163,-4.057,-4.2033,-4.2286,-4.2929,-4.4857,-4.5696,-4.6304,-4.6881,-4.8465,-4.9608,-4.9759,-4.9649,-4.9716,-5.0003,-4.7277,-4.5941,-4.6902,-4.7495,-4.897,-5.1633,-5.3638,-5.4985,-5.5643,-5.693,-5.7603,-5.7603,-5.7603,-5.7603,-5.7603,-5.6944,-5.6466,-5.6218,-5.5822,-5.5688,-5.5688,-5.5688,-5.6047,-5.66,-5.6271,-5.5763,-5.5119,-5.4446,-5.3982,-5.3653,-5.3324,-5.3638,-5.3952,-5.2276,-5.1065,-4.9898,-4.7908,-4.5708,-4.3464,0.0,0.0,0.0,0.0,0.0,0.0,0.0,0.0,0.0,0.0,0.0,0.0,0.0,0.0,-4.484,-4.6486,0.0,-5.1708,-5.4685,-5.6017,-5.7281,-5.9036,-5.9569,-6.063,-6.293,-6.4204,-6.537,-6.6544,-6.5962,-6.5395,-6.5181,-6.4478,-6.3582,-6.2448,-6.1315,-6.0351,-5.9573,-5.7763,-5.6799,-5.6799,-5.5327,-5.46,-5.46,-5.3856,-5.2892,-5.1742,-5.1673,-5.1213,-5.0471,-5.0679,-5.0682,-5.0484,-4.9889,-4.9127,-4.8167,-4.6975,-4.6504,-4.6359,-4.5146,-4.4732,-4.4663,-4.0355,-4.0213,-4.0595,-4.2059,-4.2286,-4.3014,-4.5162,-4.6227,-4.6929,-4.7322,-4.8671,-4.95,-4.9191,-4.8876,-4.8312,-4.7453,-4.606,-4.6124,-4.8177,-4.9324,-5.1513,-5.5043,-5.6092,-5.6884,-5.7572,-5.8068,-5.8321,-5.8321,-5.8321,-5.8321,-5.8291,-5.7618,-5.7019,-5.6541,-5.6406,-5.6062,-5.5568,-5.5568,-5.5867,-5.6301,-5.5777,-5.5807,-5.6158,-5.5448,-5.5194,-5.5054,-5.4446,-5.3903,-5.3495,-5.3443,-5.2247,-5.069,-4.9898,-4.8386,-4.6381,-4.3743,-4.271,0.0,0.0,0.0,0.0,0.0,0.0,0.0,0.0,-4.125,-4.2641,-4.514,-4.6935,-4.894,-5.1858,-5.3443,-5.5344,-5.8411,-5.8575,-5.8545,-5.9204,-5.9855,-6.0444,-6.0998,-6.1608,-6.246,-6.3606,-6.3643,-6.3432,-6.3096,-6.2939,-6.2533,-6.1772,-6.0554,-5.9827,-5.9674,-5.7679,-5.6376,-5.5936,-5.4905,-5.416,-5.3721,-5.3568,-5.2706,-5.1185,-5.1185,-5.0655,-4.9715,-4.9706,-4.9538,-4.9223,-4.8358,-4.7828,-4.7409,-4.5884,-4.5798,-4.6287,-4.4512,-4.386,-4.3769,-4.0355,-4.0305,-4.0713,-4.2059,-4.2286,-4.2844,-4.4479,-4.5918,-4.676,-4.6632,-4.7962,-4.8824,-4.8601,-4.7321,-4.6067,-4.5149,-4.6582,-4.8687,-5.1389,-5.1911,-5.4097,-5.8546,-5.8207,-5.8376,-5.9359,-5.9153,-5.8994,-5.8994,-5.8994,-5.8994,-5.8979,-5.8321,-5.7977,-5.7872,-5.7274,-5.6959,-5.6885,-5.6885,-5.693,-5.6989,-5.6915,-5.66,-5.6158,-5.5448,-5.5027,-5.4771,-5.4346,-5.2908,-5.1497,-5.342,-5.2037,-4.9704,-5.0676,-5.0047,-4.8461,-4.5753,-4.3733,-4.1931,-3.9768,-3.8437,-3.8153,-4.0292,-4.0561,-4.1654,0.0,-4.7757,-4.7982,-5.0017,-5.2456,-5.3967,-5.3219,-5.6017,-5.8396,-5.8261,-5.8665,-5.9219,-5.9877,-5.8586,-5.7669,-5.8025,-6.0587,-6.2278,-6.1992,-6.1614,-6.1424,-6.1525,-6.0892,-6.0165,-5.9438,-5.9235,-5.8829,-5.8152,-5.6647,-5.6105,-5.6681,-5.4651,-5.3907,-5.4465,-5.3805,-5.2706,-5.1185,-5.1185,-5.0437,-4.9104,-4.897,-4.8757,-4.8494,-4.8211,-4.7645,-4.6878,-4.5743,-4.5798,-4.6214,-4.3878,-4.3027,-4.3028,-4.0461,-4.0412,-4.0797,-4.2085,-4.2286,-4.2946,-4.4925,-4.5754,-4.6435,-4.722,-4.7865,-4.8391,-4.8656,-4.7132,-4.5613,-4.4341,-4.5653,-4.7955,-5.1199,-5.3007,-5.5722,-5.9649,-6.0269,-6.0765,-6.1202,-6.1044,-6.0979,-6.0979,-6.0979,-6.0979,-6.0928,-6.0062,-5.9414,-5.8982,-5.8113,-5.7468,-5.7094,-5.7094,-5.7094,-5.7064,-5.6705,-5.6166,-5.5448,-5.3997,-5.2834,-5.194,-5.1897,-5.1016,0.0,-5.0121,-4.9523,-4.8716,-4.8895,-4.8312,-4.71,-4.4825,-4.3569,-4.2581,-4.098,-4.0711,-4.0935,-4.1294,-4.2626,-4.4706,-4.7952,-4.882,-4.9628,-5.2396,-5.4461,-5.5822,-5.6017,-5.7723,-5.9264,-5.9772,-5.9443,-5.9069,-5.8964,-5.7872,-5.6592,-5.5215,-5.6687,-5.8499,-6.0108,-6.0212,-6.0481,-6.1233,-6.0554,-5.9979,-5.9674,-5.8829,-5.822,-5.7898,-5.6478,-5.5649,-5.5513,-5.4177,-5.3653,-5.3957,-5.3653,-5.2706,-5.1185,-5.1185,-5.0405,-4.8968,-4.8477,-4.814,-4.7881,-4.7369,-4.7057,-4.6748,-4.5373,-4.5227,-4.5562,-4.3607,-4.3209,-4.3516,-4.0607,-4.073,-4.1161,-4.2172,-4.2526,-4.3305,-4.5111,-4.5568,-4.6177,-4.7445,-4.7753,-4.8061,-4.8447,-4.7139,-4.5668,-4.4386,-4.5187,-4.7316,-5.09,-5.352,-5.6678,-6.0752,-6.1934,-6.2649,-6.294,-6.3014,-6.2978,-6.2705,-6.2879,-6.299,-6.2906,-6.2101,-6.1494,-6.0962,-5.9986,-5.9129,-5.8398,-5.8165,-5.7722,-5.7034,-5.6421,-5.5553,-5.4416,-5.2411,-5.0491,-4.8954,-4.9074,-4.8342,-4.7163,-4.6429,-4.6157,-4.6127,-4.6187,-4.5888,-4.52,-4.3554,-4.2806,-4.2312,-4.1369,-4.2073,-4.297,-4.2566,-4.4676,-4.7264,-4.876,-4.9883,-5.1364,-5.3952,-5.5673,-5.6944,-5.7708,-5.868,-5.9638,-6.0431,-5.9892,-5.9084,-5.8246,-5.7229,-5.5658,-5.3204,-5.3266,-5.4666,-5.758,-5.8307,-5.8892,-5.966,-5.9393,-5.9099,-5.8913,-5.7865,-5.7289,-5.7289,-5.6072,-5.5141,-5.46,-5.3873,-5.3501,-5.3501,-5.3501,-5.2706,-5.12,-5.0794,-5.0016,-4.8951,-4.802,-4.7512,-4.7328,-4.6515,-4.6264,-4.6336,-4.5009,-4.4724,-4.4913,-4.3441,-4.3281,-4.3679,-4.0721,-4.128,-4.1918,-4.2405,-4.3144,-4.3899,-4.4513,-4.5229,-4.5974,-4.6718,-4.7462,-4.7858,-4.7754,-4.6986,-4.6152,-4.5232,-4.5858,-4.7836,-5.1512,-5.3539,-5.7033,-6.2482,-6.2893,-6.3482,-6.4525,-6.4932,-6.4651,-6.365,-6.4352,-6.4618,-6.4412,-6.4412,-6.4345,-6.4298,-6.3568,-6.2645,-6.1631,-6.0901,-5.9216,-5.7034,-5.6421,-5.4999,-5.3025,-5.105,-4.8656,-4.6399,-4.6399,-4.4616,-4.2357,-4.3135,-4.2192,-4.0965,-4.2811,-4.3464,-4.3344,-4.265,-4.1527,-4.0487,-4.0442,-4.1384,-4.2875,-4.4706,-4.6711,-4.873,-5.069,-5.265,-5.4266,-5.5014,-5.6705,-5.7872,-5.7244,-5.8725,-5.9862,-5.9264,-5.9668,-5.9608,-5.8306,-5.6466,-5.4491,-5.2471,-5.1358,-5.1723,-5.4317,-5.5499,-5.5977,-5.5714,-5.6432,-5.6596,-5.585,-5.5801,-5.5749,-5.5749,-5.5023,-5.4617,-5.4583,-5.3873,-5.3501,-5.3501,-5.3501,-5.2706,-5.1134,-4.9729,-4.9052,-4.8917,-4.7462,-4.6832,-4.6755,-4.575,-4.5346,-4.5304,-4.4721,-4.4514,-4.4382,-4.3307,-4.2919,-4.2937,-4.1356,-4.1246,-4.1525,-4.3044,-4.3093,-4.3294,-4.4412,-4.4818,-4.5229,-4.5974,-4.7158,0.0,0.0,0.0,0.0,0.0,-4.5211,-4.6712,-4.9422,-5.2021,-5.4948,-5.8217,-6.0788,-6.2564,-6.3361,-6.4509,-6.5111,-6.5297,-6.5544,-6.5877,-6.6262,-6.51,-6.5091,-6.595,-6.4347,-6.3383,-6.3019,-6.2107,-6.1308,-6.0222,-5.6644,-5.4842,-5.3772,-4.9313,-4.6292,-4.4152,0.0,-4.1099,-4.0196,-3.9597,-3.926,-3.9185,-3.9843,-4.0053,-4.0023,-3.9798,-4.0352,-4.1145,-4.1617,-4.3314,-4.5364,-4.689,-4.8431,-5.0092,-5.2067,-5.271,-5.3189,-5.4311,-5.4012,-5.3608,-5.3803,-5.4401,-5.5074,-5.5748,-5.7124,-5.7648,-5.6361,-5.5987,-5.461,-5.1289,-5.0932,-5.088,-5.0567,-5.259,-5.47,-5.6725,-5.5926,-5.5446,-5.57,-5.5243,-5.4972,-5.4972,-5.4718,-5.4363,-5.3873,-5.3619,-5.3501,-5.3501,-5.2469,-5.1454,-5.0439,-4.9458,-4.8731,-4.824,-4.7225,-4.6515,-4.602,-4.5184,-4.5008,-4.5174,-4.3962,-4.3914,-4.4317,-4.2951,-4.2634,-4.2901,0.0,-4.1714,-4.2053,-4.3515,-4.3564,0.0,0.0,0.0,0.0,0.0,0.0,0.0,0.0,0.0,0.0,0.0,0.0,-4.5803,-4.7751,-5.017,-5.2471,-5.4653,-5.7825,-5.9772,-6.0265,-6.1709,-6.2777,-6.345,-6.3701,-6.4296,-6.5182,-6.431,-6.4442,-6.5255,-6.3972,-6.3187,-6.2714,-6.1517,-6.0486,-5.9349,-5.5234,-5.3035,-5.1692,-4.7315,-4.4267,0.0,-3.9811,-3.8751,-3.8212,-3.7105,-3.7015,-3.7404,-3.7644,-3.8018,-3.8482,-3.896,-4.0352,-4.2066,-4.3404,-4.5529,-4.7698,-4.9015,-5.0137,-5.1274,-5.2546,-5.2321,-5.2037,-5.2665,-5.1573,-5.0586,-5.0765,-5.0795,-5.1154,-5.2261,-5.3877,-5.4865,-5.4521,-5.4431,-5.3533,-5.1214,-5.0853,-5.053,-4.9727,-5.1126,-5.2989,-5.5236,-5.4762,-5.452,-5.4801,-5.443,-5.4211,-5.4211,-5.4211,-5.3974,-5.3501,-5.3501,-5.3365,-5.3061,-5.1809,-5.0811,-5.005,-4.9069,-4.8359,-4.7838,-4.6836,-4.6143,-4.5652,-4.4919,-4.4786,-4.4908,-4.3537,-4.3491,-4.4037,-4.2685,-4.2498,-4.2901,0.0,0.0,-4.3278,0.0,0.0,0.0,0.0,0.0,0.0,0.0,0.0,0.0,0.0,0.0,0.0,0.0,0.0,0.0,-4.6583,-4.8071,-4.983,-5.1928,-5.4245,-5.5478,-5.5547,-5.6968,-5.7991,-5.8543,-5.9232,-6.0214,-6.1384,-6.2013,-6.2364,-6.2431,-6.2455,-6.1933,-6.0859,-5.9213,-5.7146,-5.4745,-5.2329,-4.9811,-4.7195,-4.5031,-4.2621,-4.0243,-3.8867,-3.7588,-3.6432,-3.5774,-3.5594,-3.5759,-3.6387,-3.7509,-3.8841,-4.0083,-4.1542,-4.3249,-4.5738,-4.7893,-4.9763,-5.096,-5.1738,-5.2187,-5.2112,-5.1588,-5.0915,-5.0181,-4.9494,-4.882,-4.8147,-4.8057,-4.8327,-4.9134,-5.0391,-5.1783,-5.3099,-5.2232,-5.1663,-5.2187,-5.1124,-5.0607,-5.1429,-5.103,-5.0928,-5.1367,-5.2904,-5.3629,-5.3177,-5.3298,-5.3433,-5.3501,-5.3501,-5.3501,-5.3501,-5.3467,-5.3027,-5.2181,-5.1488,-5.076,-4.9982,-4.8578,-4.7872,-4.7753,-4.6329,-4.5686,-4.5602,-4.4902,-4.4581,-4.4423,-4.3434,-4.3266,-4.3489,-4.2534,-4.2474,-4.2863,0.0,0.0,0.0,0.0,0.0,0.0,0.0,0.0,0.0,0.0,0.0,0.0,0.0,0.0,0.0,0.0,0.0,0.0,-4.5156,-4.6532,-4.7614,-4.8173,-5.0879,-5.2621,-5.3162,-5.4651,-5.5766,-5.6455,-5.6641,-5.7161,-5.8019,-5.7665,-5.8086,-5.9098,-5.8354,-5.7913,-5.7635,-5.6457,-5.5263,-5.3806,-4.9852,-4.8123,-4.7435,-4.3021,-4.0979,-4.029,-3.8904,-3.7876,-3.7075,-3.6447,-3.6866,-3.7689,-3.7853,-3.952,-4.1362,-4.1175,-4.3808,-4.692,-4.7593,-4.9583,-5.1528,-5.1858,-5.2067,-5.1947,-5.096,-5.0227,-4.9434,-4.8282,-4.6367,-4.4825,-4.4631,-4.499,-4.6037,-4.8177,-5.087,-5.3144,-5.4491,-5.482,-5.4416,-5.3084,-5.2202,-5.1398,-5.0622,-5.002,-4.9765,-4.9967,-5.0819,-5.1582,-5.2222,-5.2277,-5.2662,-5.3467,-5.3501,-5.3501,-5.3501,-5.2909,-5.1944,-5.0659,-5.0473,-4.9982,-4.9255,-4.8342,-4.7614,-4.7022,-4.6109,-4.5382,-4.4886,-4.4682,-4.4231,-4.3673,-4.3403,-4.2912,-4.2323,-4.2084,-4.2146,-4.2378,0.0,0.0,0.0,0.0,0.0,0.0,0.0,0.0,0.0,0.0,0.0,0.0,0.0,0.0,0.0,0.0,0.0,0.0,0.0,-4.5376,-4.5821,-4.5821,-4.7411,-4.8494,-4.89,-4.9763,-5.0879,-5.2267,-5.164,-5.2029,-5.3365,-5.2638,-5.2739,-5.3518,-5.3264,-5.3163,-5.3146,-5.2185,-5.133,0.0,0.0,-4.5501,-4.4963,-4.1964,-4.069,-4.0319,-3.9245,-3.8439,-3.7883,-3.8123,-3.8871,-3.9798,-4.0382,-4.1983,-4.3788,-4.4257,-4.6456,-4.8955,-4.9763,-5.1513,-5.301,-5.271,-5.2411,-5.1783,-5.0182,-4.8865,-4.7519,-4.5903,-4.3928,-4.2417,-4.2102,-4.2342,-4.3374,-4.5723,-4.8386,-5.1139,-5.3922,-5.4371,-5.4446,-5.4491,-5.3668,-5.2561,-5.1229,-5.0511,-4.9945,-4.9437,-4.9869,-5.0444,-5.1096,-5.1525,-5.2065,-5.28,-5.3179,-5.3247,-5.2993,-5.2536,-5.1555,-5.0084,-5.0084,-4.9712,-4.8968,-4.7902,-4.7192,-4.6735,-4.5669,-4.4976,-4.4581,-4.4215,-4.3809,-4.3325,-4.2682,-4.221,-4.1871,-4.1543,-4.162,-4.1888,0.0,0.0,0.0,0.0,0.0,0.0,0.0,0.0,0.0,0.0,-4.4733,-4.4615,-4.4615,-4.4615,0.0,0.0,0.0,0.0,0.0,0.0,-4.4615,-4.4615,-4.4615,-4.4615,-4.4615,-4.4615,-4.5534,-4.7479,-4.6194,-4.6481,-4.824,-4.7584,-4.7229,-4.7162,-4.7834,-4.8105,-4.8071,-4.7231,-4.6447,-4.5656,-4.4073,-4.2744,-4.171,0.0,-4.1105,-4.0607,-3.9999,-3.9295,-3.8928,-4.0409,-4.1235,-4.1893,-4.3245,-4.4811,-4.6426,-4.8162,-4.9389,-5.0572,-5.2157,-5.3518,-5.4281,-5.3503,-5.268,-5.1528,-4.9479,-4.7474,-4.5457,-4.3439,-4.2102,-4.1055,-4.0382,-4.0412,-4.1235,-4.3334,-4.5293,-4.8192,-5.28,-5.2875,-5.3354,-5.5763,-5.488,-5.3578,-5.2321,-5.1528,-5.0586,-4.9404,-4.9487,-4.9745,-5.008,-5.1043,-5.1724,-5.2029,-5.27,-5.2775,-5.2131,-5.2063,-5.1319,-4.9949,-4.9949,-4.961,-4.8951,-4.7462,-4.6786,-4.6718,-4.5258,-4.4615,-4.4564,-4.3859,-4.3494,-4.3257,-4.1999,-4.1622,-4.1714,-4.1078,-4.1082,-4.141,0.0,0.0,0.0,0.0,0.0,0.0,0.0,0.0,0.0,-4.6244,-4.5376,-4.4615,0.0,0.0,0.0,0.0,0.0,0.0,0.0,0.0,0.0,-4.4615,-4.4615,-4.4615,-4.4615,-4.4615,-4.4801,-4.5162,-4.4936,-4.4637,-4.4356,-4.422,-4.3859,-4.3284,-4.3403,-4.3453,-4.3436,-4.3291,-4.2774,-4.2081,-4.1668,-4.1651,-4.1771,-4.1039,0.0,0.0,-4.1402,-4.072,-4.0504,-4.2897,-4.3425,-4.3359,-4.5173,-4.7818,-5.0257,-5.0601,-5.274,-5.4975,-5.473,-5.5239,-5.5538,-5.4326,-5.2695,-5.0735,-4.8222,-4.6097,-4.4107,-4.2117,-4.11,-4.0367,-3.9709,-4.0472,-4.2222,-4.5263,-4.701,-4.9568,-5.4192,-5.4281,-5.4236,-5.5239,-5.4177,-5.3054,-5.2276,-5.1109,-5.0092,-4.9359,-4.8863,-4.9013,-5.0041,-5.0962,-5.1826,-5.2712,-5.2454,-5.1967,-5.1242,-5.073,-5.005,-4.9187,-4.9187,-4.912,-4.8951,-4.7462,-4.6786,-4.6718,-4.5258,-4.4615,-4.4598,-4.4462,-4.3995,-4.3358,-4.3105,-4.2323,-4.1299,-4.118,-4.1055,-4.0926,0.0,0.0,0.0,0.0,0.0,0.0,-4.5235,-4.5614,-4.6261,-4.775,-4.7648,-4.7035,-4.5855,-4.5072,-4.4615,0.0,0.0,0.0,0.0,0.0,0.0,-4.4615,-4.4615,-4.4615,-4.4615,-4.4615,-4.4801,-4.5162,0.0,-4.3792,-4.3375,-4.3014,-4.2219,-4.1179,-4.1559,-4.1508,-4.1162,-4.1162,-4.0959,-4.0646,-4.0905,-4.117,-4.1433,0.0,0.0,0.0,-4.219,-4.1393,-4.0786,-4.2698,-4.335,-4.3823,-4.6501,-4.8895,-5.084,-5.1528,-5.3354,-5.5224,-5.5598,-5.5978,-5.5852,-5.4536,-5.2441,-4.9882,-4.6935,-4.4721,-4.2746,-4.0771,-4.0113,-3.9798,-3.9448,-4.0217,-4.1609,-4.3898,-4.5364,-4.7713,-5.2007,-5.2336,-5.2785,-5.4476,-5.3788,-5.292,-5.2261,-5.1005,-4.9972,-4.9359,-4.9182,-4.8938,-4.8682,-4.9947,-5.1352,-5.2694,-5.2217,-5.1598,-5.0859,-5.0266,-4.9637,-4.8894,-4.8987,-4.9001,-4.8951,-4.7462,-4.6786,-4.6718,-4.5258,-4.4615,-4.4547,-4.3735,-4.3403,-4.3274,-4.2134,-4.1474,-4.1153,-4.0764,-4.0552,-4.0451,0.0,0.0,0.0,0.0,0.0,0.0,-4.6584,-4.6801,-4.7428,-4.9238,-4.9695,-4.9306,-4.7902,-4.6278,-4.5139,0.0,0.0,0.0,0.0,0.0,0.0,0.0,0.0,0.0,-4.4615,0.0,0.0,-4.5466,-4.4248,0.0,0.0,0.0,0.0,0.0,-4.0933,-4.0781,-4.0096,-4.0096,-4.0096,0.0,0.0,-4.1131,0.0,0.0,0.0,0.0,0.0,-4.2029,-4.1143,-4.2443,-4.2965,-4.3642,-4.6545,-4.8729,-5.042,-5.1648,-5.3249,-5.488,-5.6047,-5.6361,-5.6047,-5.4745,-5.2202,-4.9194,-4.6022,-4.3698,-4.1677,-3.9798,-3.9388,-3.9388,-3.9388,-3.9843,-4.0666,-4.2171,-4.3225,-4.5274,-4.9254,-4.9942,-5.0915,-5.3279,-5.3219,-5.271,-5.2052,-5.0883,-4.9972,-4.9359,-4.9438,-4.9116,-4.8187,-4.9686,-5.1129,-5.2252,-5.1776,-5.1212,-5.0643,-4.997,-4.9327,-4.8818,-4.8846,-4.8909,-4.8906,-4.7402,-4.6727,-4.6672,-4.5213,-4.4615,-4.4513,-4.3295,-4.3132,-4.3453,-4.1399,-4.1018,-4.1559,-4.0688,-4.035,-4.035,0.0,0.0,0.0,0.0,0.0,0.0,-4.593,-4.652,-4.78,-5.0642,-4.9898,-4.9543,-5.0693,-4.8869,-4.6802,0.0,0.0,0.0,0.0,0.0,0.0,0.0,0.0,0.0,0.0,0.0,0.0,-4.4699,-4.4564,0.0,0.0,0.0,0.0,0.0,0.0,-4.0781,-4.0096,-4.0096,0.0,0.0,0.0,0.0,0.0,0.0,0.0,0.0,0.0,-4.3035,-4.2606,-4.3877,-4.35,-4.2757,-4.4266,-4.7262,-5.033,-5.1094,-5.3533,-5.6137,-5.6825,-5.7019,-5.6705,-5.5418,-5.2202,-4.8685,-4.5918,-4.3314,-4.1085,-3.9709,-3.9388,-3.9388,-3.9388,-3.9433,-4.0127,-4.2096,-4.25,-4.3968,-4.7908,-4.8985,-4.9883,-5.1319,-5.1962,-5.2037,-5.1379,-5.0614,-4.9972,-4.9359,-4.8935,-4.9318,-5.0685,-5.1655,-5.1891,-5.1268,-5.0775,-5.0509,-5.0443,-4.9222,-4.8694,-4.8818,-4.8627,-4.8658,-4.875,-4.7235,-4.6544,-4.646,-4.5155,-4.4615,-4.4598,-4.4462,-4.4445,-4.4344,-4.2709,-4.2557,-4.302,-4.1627,-4.1102,-4.1102,0.0,0.0,0.0,0.0,0.0,0.0,-4.6425,-4.6746,-4.7851,-5.0828,-5.1082,-5.1048,-5.1168,-5.039,-4.8646,-4.5534,-4.4869,0.0,0.0,0.0,0.0,0.0,0.0,0.0,0.0,0.0,-4.5263,-4.5263,-4.5703,0.0,0.0,0.0,0.0,0.0,0.0,-4.1204,-4.0096,-4.0096,0.0,0.0,0.0,0.0,0.0,0.0,0.0,0.0,0.0,0.0,-4.2666,-4.3201,-4.2967,-4.2408,-4.214,-4.3915,-4.647,-4.8324,-5.0915,-5.3503,-5.4955,-5.5643,-5.5733,-5.4835,-5.1319,-4.7593,-4.5723,-4.2955,-4.0531,-3.9604,-3.9388,-3.9388,-3.9388,-3.9388,-3.9679,-4.0457,-4.0591,-4.1564,-4.4372,-4.4986,-4.6229,-4.9105,-4.9688,-5.0212,-5.1124,-5.0272,-4.9419,-4.8928,-4.8714,-4.9116,-5.0267,-5.114,-5.1512,-5.1215,-5.0597,-5.0074,-4.9626,-4.8744,-4.8356,-4.8436,-4.8483,-4.8547,-4.8576,-4.7052,-4.6424,-4.643,-4.4937,-4.4327,-4.4378,-4.394,-4.4007,-4.4288,-4.2851,-4.276,-4.3274,-4.2236,-4.1863,-4.1863,0.0,0.0,0.0,0.0,0.0,-4.5067,-4.6499,-4.675,-4.7784,-5.0524,-5.1336,-5.1623,-5.1539,-5.0947,-4.9509,-4.6904,-4.5602,0.0,0.0,0.0,0.0,0.0,0.0,0.0,0.0,0.0,-4.5703,-4.5703,-4.643,-4.6143,0.0,0.0,-4.4333,-4.1863,0.0,0.0,0.0,0.0,0.0,0.0,0.0,0.0,0.0,0.0,0.0,0.0,0.0,0.0,0.0,0.0,0.0,-4.234,-4.1148,-4.1588,-4.298,-4.5206,-4.7982,-5.0735,-5.2546,-5.3803,-5.4446,-5.3788,-5.0436,-4.6905,-4.5364,-4.2626,-4.0217,-3.9559,-3.9388,-3.9388,-3.9388,-3.9388,-3.9388,-3.9388,-3.9388,-4.0038,-4.1856,-4.2276,-4.3579,-4.6726,-4.7279,-4.8177,-5.0152,-4.9688,-4.9011,-4.8279,-4.8449,-4.8846,-4.9423,-5.0307,-5.0843,-5.0895,-5.025,-4.9641,-4.911,-4.8447,-4.8163,-4.8195,-4.8292,-4.8356,-4.837,-4.6882,-4.6274,-4.6264,-4.4763,-4.4155,-4.4191,-4.367,-4.3799,-4.4175,-4.3023,-4.3044,-4.3673,-4.2895,-4.2625,-4.2625,0.0,0.0,0.0,0.0,0.0,-4.4174,-4.5845,-4.6515,-4.7597,-4.9813,-5.0101,-5.0676,-5.2131,-5.0338,-4.9018,-4.8968,-4.6972,0.0,0.0,0.0,0.0,0.0,0.0,0.0,-4.4615,-4.5314,-4.5703,-4.5703,-4.643,-4.6413,-4.5703,-4.5703,-4.4874,-4.3341,0.0,0.0,0.0,0.0,0.0,0.0,0.0,0.0,-4.457,0.0,0.0,0.0,0.0,0.0,0.0,0.0,0.0,0.0,0.0,-4.1042,-4.0769,-4.207,-4.5256,-4.8611,-4.9867,-5.1708,-5.3039,-5.2381,-4.9748,-4.6785,-4.4781,-4.2282,-4.0217,-3.9559,-3.9388,-3.9388,-3.9388,-3.9388,-3.9388,-3.9388,-3.9388,-3.9888,-4.1205,-4.1991,-4.289,-4.4197,-4.493,-4.6112,-4.8117,-4.894,-4.876,-4.7399,-4.8088,-4.8599,-4.8599,-4.9499,-4.9997,-4.9997,-4.9427,-4.911,-4.911,-4.8365,-4.8049,-4.8195,-4.8066,-4.8082,-4.8145,-4.6679,-4.5996,-4.5929,-4.4658,-4.4097,-4.4097,-4.4097,-4.4167,-4.4226,-4.3474,-4.3754,-4.4496,-4.369,-4.3375,-4.3375,0.0,0.0,0.0,0.0,0.0,0.0,-4.4941,-4.5213,-4.5918,-4.7614,-4.8274,-4.9171,-5.0625,-5.0168,-4.9543,-4.9035,-4.6989,0.0,0.0,0.0,0.0,0.0,0.0,-4.5585,-4.6075,-4.6836,-4.7179,-4.7179,-4.7953,-4.7936,-4.7179,-4.6684,-4.5652,-4.4181,-4.3403,-4.2642,0.0,0.0,0.0,0.0,0.0,-4.3876,-4.457,0.0,0.0,0.0,0.0,0.0,0.0,0.0,0.0,0.0,0.0,0.0,0.0,-4.0507,-4.2506,-4.5185,-4.6501,-4.7653,-4.8446,-4.8237,-4.6037,-4.3803,-4.3159,-4.1294,-3.9679,-3.9433,-3.9388,-3.9388,-3.9388,-3.9388,-3.9388,-3.9388,-3.9388,-3.9574,-3.9978,-4.0995,-4.2342,-4.4107,-4.6501,-4.8296,-4.894,-4.8745,-4.8237,-4.7369,-4.7538,-4.7779,-4.7912,-4.7722,-4.8105,-4.9216,-4.9148,-4.8862,-4.8349,-4.8117,-4.7785,-4.7303,-4.7785,-4.7768,-4.727,-4.6323,-4.592,-4.5929,-4.4421,-4.3852,-4.3969,-4.3969,-4.4056,-4.415,-4.4001,-4.4238,-4.4581,-4.4299,-4.4215,-4.413,0.0,0.0,0.0,0.0,0.0,0.0,-4.4563,-4.4626,-4.5038,-4.6227,-4.6786,-4.775,-4.9492,-4.9441,-4.9306,-4.9407,-4.7648,0.0,0.0,0.0,0.0,0.0,-4.528,-4.5635,-4.6363,-4.7107,-4.7902,-4.8731,-4.9475,-4.9458,-4.8731,-4.8257,-4.6955,-4.4976,-4.4198,-4.3436,0.0,0.0,0.0,0.0,-4.3859,-4.4147,-4.4587,0.0,0.0,0.0,0.0,0.0,0.0,0.0,0.0,0.0,0.0,0.0,0.0,0.0,-4.0539,-4.2192,-4.3763,-4.4855,-4.5574,-4.5574,-4.3958,-4.2336,-4.2081,-4.0651,-3.9388,-3.9388,-3.9388,-3.9388,-3.9388,-3.9388,-3.9388,-3.9388,-3.9388,-3.9514,-3.9753,-4.0711,-4.2028,-4.3733,-4.6441,-4.8057,-4.7847,-4.8087,-4.8012,-4.7354,-4.707,-4.6996,-4.7113,-4.6465,-4.6485,-4.7236,-4.7629,-4.7748,-4.7603,-4.7292,-4.6914,-4.6493,-4.7222,-4.7206,-4.646,-4.5997,-4.5694,-4.5438,-4.4155,-4.3658,0.0,-4.3793,-4.3881,-4.4056,-4.4184,-4.4327,-4.4468,-4.4468,-4.4542,-4.4468,0.0,0.0,0.0,0.0,0.0,0.0,-4.4657,-4.4597,-4.4705,-4.5517,-4.5618,-4.6447,-4.8612,-4.8291,-4.8477,-4.9898,-4.8781,0.0,0.0,0.0,0.0,0.0,-4.4835,-4.5162,-4.5923,-4.6599,-4.7986,-5.0084,-5.0845,-5.0879,-5.0253,-5.0185,-4.8663,-4.5906,-4.5122,-4.4265,-4.3504,-4.3504,-4.3927,-4.4615,-4.4615,-4.4581,0.0,0.0,0.0,0.0,0.0,0.0,0.0,0.0,0.0,0.0,0.0,0.0,0.0,0.0,0.0,0.0,0.0,-4.3,-4.3973,-4.3973,-4.3045,-4.2021,-4.1324,-4.0217,0.0,-3.9254,-3.9239,-3.9254,-3.9298,-3.9305,-3.9254,-3.9298,-3.9313,-3.9559,-4.0172,-4.0995,-4.2043,-4.3409,-4.5218,-4.6142,-4.5499,-4.7115,-4.7967,-4.7354,-4.6696,-4.6264,-4.6204,-4.5662,-4.5064,-4.4464,-4.5059,-4.5805,-4.6648,-4.5994,-4.562,-4.5653,-4.646,-4.6427,-4.5715,-4.5715,-4.5334,-4.4655,-4.3926,-4.3565,-4.3515,-4.3515,-4.3651,-4.3814,-4.3943,-4.41,-4.4226,-4.4248,-4.4378,-4.4356,0.0,0.0,0.0,0.0,0.0,0.0,0.0,0.0,0.0,0.0,-4.4869,-4.5512,-4.7141,-4.7682,-4.8291,0.0,0.0,0.0,0.0,0.0,0.0,0.0,-4.7124,-4.7479,-4.8206,-4.8392,-4.9001,-5.0084,-5.0845,-5.1403,-5.1775,-5.1217,-4.9982,-4.8173,-4.6853,-4.5534,-4.4316,-4.4316,-4.4445,-4.4615,-4.4615,-4.4215,0.0,0.0,0.0,0.0,-4.3982,-4.4068,0.0,0.0,0.0,0.0,0.0,0.0,0.0,0.0,-3.9466,-3.8736,-3.92,0.0,-4.0561,-4.0561,-4.0337,-3.9933,0.0,-3.8856,-3.8497,-3.7988,-3.7883,-3.8033,-3.8542,-3.8227,-3.8048,-3.8542,-3.8631,-3.8691,-3.8841,-4.1175,-4.3748,-4.6097,-4.6785,-4.701,-4.6845,-4.7264,-4.7474,-4.7309,-4.6696,-4.6097,-4.5559,-4.4434,-4.3773,-4.3734,-4.2892,-4.3061,-4.4449,-4.4817,-4.4724,-4.4218,-4.5463,-4.5665,-4.4967,-4.4967,-4.4854,-4.4655,-4.3926,-4.3267,-4.2754,-4.2754,-4.2887,-4.3048,-4.3106,-4.326,-4.3508,-4.3982,-4.3871,-4.3412,0.0,0.0,0.0,0.0,0.0,0.0,0.0,0.0,0.0,0.0,-4.435,-4.5173,-4.6633,-4.7158,-4.7834,0.0,0.0,0.0,0.0,0.0,0.0,-4.7411,-4.7411,-4.775,-4.8494,-4.8152,-4.9009,-5.1099,-5.116,-5.1749,-5.2841,-5.2063,-5.0744,-4.8917,-4.7107,-4.5652,-4.4615,-4.4615,-4.4615,-4.4615,-4.4615,0.0,0.0,0.0,0.0,0.0,-4.3558,-4.3813,0.0,-4.3319,-4.3317,-4.3432,0.0,0.0,0.0,0.0,-3.8801,-3.7943,-3.7943,-3.8437,-3.8945,-3.8945,-3.8945,-3.8856,-3.8467,-3.8153,-3.7838,-3.7479,-3.7404,-3.7524,-3.7868,-3.7898,-3.7973,-3.8332,-3.8661,-3.9065,-3.9679,-4.1818,-4.4052,-4.6142,-4.6651,-4.698,-4.7279,-4.704,-4.686,-4.686,-4.5963,-4.511,-4.4436,-4.3434,-4.2625,-4.2082,-4.1325,-4.1687,-4.3174,-4.3577,-4.3572,-4.32,-4.4611,-4.4903,-4.4208,-4.4539,-4.4506,-4.4175,-4.3764,-4.3367,-4.2986,-4.2986,-4.3061,-4.3132,-4.2886,-4.2896,-4.3009,-4.3019,-4.2825,-4.2483,0.0,0.0,0.0,0.0,0.0,0.0,0.0,0.0,0.0,0.0,0.0,0.0,0.0,0.0,0.0,0.0,0.0,0.0,0.0,0.0,0.0,-4.7192,-4.7141,-4.7368,-4.7902,-4.7404,-4.8656,-5.1797,-5.1629,-5.2283,-5.3653,-5.2977,-5.1274,-4.8745,-4.6743,-4.5399,-4.4615,-4.4615,-4.4615,-4.4615,-4.4615,0.0,0.0,0.0,0.0,0.0,0.0,0.0,0.0,-4.2655,-4.2738,-4.3026,-4.1757,0.0,0.0,0.0,0.0,0.0,-3.7375,-3.7883,-3.8362,-3.8257,-3.8317,-3.8347,-3.8138,-3.7659,-3.724,-3.7135,-3.712,-3.718,-3.7375,-3.7778,-3.8167,-3.8362,-3.905,-4.0098,-4.1624,-4.2865,-4.4037,-4.5304,-4.6052,-4.6651,-4.7115,-4.6651,-4.6279,-4.6279,-4.508,-4.3992,-4.3334,-4.2626,-4.1692,-4.0442,-4.0307,-4.0842,-4.2108,-4.2158,-4.2276,-4.2459,-4.3764,-4.4117,-4.3615,-4.4257,-4.4191,-4.3598,-4.3598,-4.3532,-4.3416,-4.3416,-4.3416,-4.338,-4.2812,-4.2615,-4.2549,-4.1916,-4.1666,-4.1626,0.0,0.0,0.0,0.0,0.0,0.0,0.0,0.0,0.0,0.0,0.0,0.0,0.0,0.0,0.0,0.0,0.0,0.0,0.0,0.0,0.0,-4.868,-4.8663,-4.8402,-4.7898,-4.8409,-4.8946,-4.9493,-5.1934,-5.3585,-5.4431,-5.4238,-5.1953,-4.7933,-4.7039,-4.5855,-4.4615,-4.4615,-4.4615,-4.4615,-4.4615,0.0,0.0,0.0,0.0,0.0,0.0,0.0,0.0,-4.1709,-4.1629,-4.1597,-4.0891,0.0,0.0,0.0,0.0,0.0,-3.727,-3.7883,-3.8257,-3.7704,-3.7973,-3.8108,-3.703,-3.6701,-3.6477,-3.5908,-3.5804,-3.6133,-3.721,-3.706,-3.7135,-3.8212,-3.9439,-4.11,-4.3524,-4.4511,-4.5289,-4.6067,-4.6756,-4.698,-4.6516,-4.6339,-4.6279,-4.6279,-4.508,-4.3992,-4.3334,-4.2192,-4.119,-4.0427,-3.9858,-3.9667,-3.9904,-4.0493,-4.1102,-4.1689,-4.2525,-4.315,-4.3598,-4.3714,-4.3698,-4.3598,-4.3598,-4.3234,-4.2655,-4.2655,-4.2655,-4.2589,-4.1872,-4.1737,-4.1838,-4.1559,-4.1156,-4.0961,0.0,0.0,0.0,0.0,0.0,0.0,0.0,0.0,0.0,0.0,0.0,0.0,0.0,0.0,0.0,0.0,0.0,0.0,0.0,0.0,-4.9001,-4.9001,-4.9001,-4.8656,-4.7917,-4.8216,-4.8725,-4.9513,-5.0883,-5.2327,-5.3766,-5.2561,-5.0512,-4.777,-4.711,-4.6424,-4.5754,-4.5348,-4.5179,-4.5162,0.0,0.0,0.0,0.0,0.0,0.0,0.0,0.0,0.0,0.0,-4.111,-4.1238,-4.0206,0.0,0.0,0.0,0.0,0.0,-3.6312,-3.6866,-3.7285,-3.6985,-3.7943,-3.8691,-3.7734,-3.724,-3.6806,-3.6163,-3.6028,-3.6207,-3.6806,-3.724,-3.8182,-4.0239,-4.1369,-4.2432,-4.3614,-4.4347,-4.502,-4.5693,-4.6367,-4.6651,-4.6309,-4.5992,-4.5618,-4.5259,-4.4291,-4.3344,-4.2342,-4.1713,-4.092,-3.9903,-3.9574,-3.9388,-3.9388,-3.9753,-4.0443,-4.1525,-4.2253,-4.2943,-4.3598,-4.3598,-4.3598,-4.3598,-4.3598,-4.34,-4.3085,-4.3085,-4.3085,-4.2969,-4.1827,-4.1453,-4.1427,-4.0575,-4.0121,-3.9993,0.0,0.0,0.0,0.0,0.0,0.0,0.0,0.0,0.0,0.0,0.0,0.0,0.0,0.0,0.0,0.0,0.0,0.0,0.0,-4.8748,-4.8832,-4.9001,-4.8829,-4.8453,-4.7902,-4.8168,-4.8722,-4.9636,-5.029,-5.1478,-5.3029,-5.1258,-4.9482,-4.7746,-4.7111,-4.6703,-4.6527,-4.5942,-4.5693,-4.5652,0.0,0.0,0.0,0.0,0.0,0.0,0.0,0.0,0.0,0.0,0.0,0.0,0.0,0.0,0.0,-3.665,-3.5893,-3.5534,-3.5684,-3.6207,-3.6701,-3.6701,-3.7719,-3.8641,-3.8381,-3.7814,-3.7257,-3.7073,-3.6909,-3.6805,-3.6873,-3.7834,-3.9454,-4.1991,-4.306,-4.3703,-4.3962,-4.456,-4.514,-4.5499,-4.6142,-4.6426,-4.6112,-4.5603,-4.502,-4.4362,-4.3569,-4.2596,-4.1482,-4.1235,-4.0621,-3.9454,-3.9388,-3.9388,-3.9388,-3.9388,-4.0041,-4.126,-4.1981,-4.26,-4.3127,-4.3462,-4.3492,-4.3372,-4.3539,-4.3499,-4.335,-4.3515,-4.3499,-4.3201,-4.1922,-4.121,-4.0779,-3.9713,-3.9415,-3.9564,0.0,0.0,0.0,0.0,0.0,0.0,0.0,0.0,0.0,0.0,0.0,0.0,0.0,0.0,0.0,0.0,0.0,0.0,0.0,-4.7973,-4.8261,-4.8968,-4.8338,-4.7935,-4.7818,-4.9077,-4.9424,-4.8794,-5.1538,-5.2901,-5.3006,-5.2322,-5.045,-4.7567,-4.703,-4.6404,-4.5777,-4.5727,-4.5698,-4.5703,-4.5652,0.0,0.0,0.0,0.0,0.0,0.0,0.0,0.0,0.0,0.0,0.0,0.0,0.0,-3.724,-3.5953,-3.5549,-3.5639,-3.6252,-3.6866,-3.7345,-3.7345,-3.7015,-3.6967,-3.7907,-3.7584,-3.7416,-3.842,-3.8148,-3.7756,-3.7955,-3.8713,-4.0008,-4.2066,-4.3419,-4.4691,-4.5891,-4.6681,-4.6875,-4.6322,-4.683,-4.6741,-4.5484,-4.5334,-4.502,-4.4362,-4.315,-4.2156,-4.1452,-4.0801,-4.0142,-3.9403,-3.9388,-3.9388,-3.9388,-3.9388,-3.9773,-4.0581,-4.126,-4.1591,-4.1689,-4.3005,-4.3265,-4.271,-4.3342,-4.3201,-4.2622,-4.3317,-4.3184,-4.2489,-4.1695,-4.0597,-3.9448,-3.9332,-3.973,-4.0326,0.0,0.0,0.0,0.0,0.0,0.0,0.0,0.0,0.0,0.0,0.0,-4.7361,-4.8849,0.0,0.0,0.0,0.0,0.0,0.0,-4.7665,-4.7807,-4.7638,-4.7782,-4.7649,-4.7148,-4.845,-4.939,-4.9957,-5.1476,-5.1976,-5.1549,-5.0041,-4.8757,-4.7628,-4.6569,-4.6228,-4.6322,-4.5457,-4.5308,-4.5612,-4.4704,-4.4449,0.0,0.0,0.0,0.0,0.0,0.0,0.0,0.0,-3.821,-3.7911,-3.6753,-3.6569,-3.66,-3.5733,-3.5504,-3.5564,-3.5804,-3.6342,-3.6836,-3.6836,-3.6574,-3.6756,-3.8347,-3.8758,-3.8796,-3.8811,-3.9246,-3.9511,-3.921,-4.0196,-4.1581,-4.3155,-4.4609,-4.5696,-4.6204,-4.6531,-4.6441,-4.5768,-4.5903,-4.5693,-4.4781,-4.4691,-4.4407,-4.3708,-4.2865,-4.2111,-4.1452,-4.0756,-4.0098,-3.9403,-3.9388,-3.9388,-3.9388,-3.899,-3.8908,-3.9208,-4.0331,-4.1093,-4.1525,-4.2522,-4.2834,-4.2648,-4.3295,-4.3433,-4.3201,-4.3482,-4.3168,-4.2402,-4.1226,-4.0177,-3.9365,-3.9812,-4.016,-4.0475,0.0,0.0,0.0,0.0,0.0,0.0,0.0,0.0,-4.5055,0.0,0.0,0.0,0.0,-4.78,0.0,0.0,0.0,0.0,-4.643,-4.6743,-4.6762,-4.6509,-4.675,-4.6823,-4.6708,-4.7588,-4.8795,-5.0374,-5.1267,-5.1251,-5.0328,-4.8466,-4.7608,-4.7613,-4.6069,-4.5896,-4.667,-4.5291,-4.4959,-4.529,-4.4046,-4.3723,0.0,0.0,0.0,0.0,0.0,0.0,0.0,0.0,-3.7764,-3.728,-3.66,-3.6399,-3.629,-3.5683,-3.5504,-3.5504,-3.5504,-3.5833,-3.6237,-3.6432,-3.6343,-3.6758,-3.8802,-3.9335,-3.9539,-4.0011,-4.0226,-4.0309,-4.0303,-4.0716,-4.167,-4.3597,-4.4846,-4.5717,-4.6149,-4.61,-4.5753,-4.5065,-4.517,-4.4945,-4.4092,-4.4197,-4.3958,-4.309,-4.2432,-4.1796,-4.1115,-4.0442,-3.9888,-3.9388,-3.9215,-3.9095,-3.9095,-3.8422,-3.8078,-3.8093,-3.905,-4.0007,-4.0898,-4.139,-4.1863,-4.226,-4.2523,-4.2739,-4.292,-4.3151,-4.2804,-4.2054,-4.0845,-3.9945,-3.9398,-4.0144,-4.0542,-4.0779,0.0,0.0,0.0,0.0,0.0,0.0,0.0,0.0,-4.484,-4.5602,-4.5703,0.0,0.0,0.0,0.0,0.0,0.0,0.0,-4.5635,-4.5066,-4.5033,-4.573,-4.5085,-4.5302,-4.6655,-4.661,-4.7604,-4.9682,-5.1021,-5.099,-4.9635,-4.825,-4.7588,-4.7496,-4.548,-4.5381,-4.6592,-4.5238,-4.4694,-4.4609,-4.3961,-4.32,-4.2424,0.0,0.0,0.0,0.0,0.0,0.0,0.0,-3.7501,-3.728,-3.66,-3.6399,-3.6274,-3.5683,-3.5504,-3.5504,-3.5504,-3.5504,-3.5669,-3.6327,-3.6343,-3.6842,-3.9165,-3.9082,-3.9361,-4.2366,-4.115,-3.9896,-4.1153,-4.0,-3.9887,-4.316,-4.3856,-4.4481,-4.5802,-4.5597,-4.505,-4.4392,-4.487,-4.4751,-4.3409,-4.3873,-4.3748,-4.2485,-4.1782,-4.1085,-4.0442,-3.9768,-3.9388,-3.9373,-3.8751,-3.8392,-3.8377,-3.7734,-3.7404,-3.7404,-3.7389,-3.813,-3.9465,-3.9486,-4.0209,-4.1421,-4.0785,-4.0847,-4.1446,-4.2175,-4.2042,-4.1326,-4.0647,-3.9945,-3.9398,-4.0144,-4.0812,-4.1409,0.0,0.0,0.0,0.0,0.0,0.0,0.0,0.0,-4.484,-4.5602,-4.5703,0.0,0.0,0.0,0.0,0.0,0.0,0.0,-4.348,-4.4212,-4.4123,-4.2832,-4.3995,-4.4645,-4.4514,-4.5874,-4.7357,-4.8943,-4.9328,-4.9081,-4.8204,-4.7311,-4.6634,-4.6157,-4.5557,-4.5017,-4.4452,-4.3599,-4.3209,-4.3146,-4.2432,-4.2313,-4.2473,0.0,0.0,0.0,0.0,0.0,0.0,0.0,0.0,0.0,-3.5829,-3.5765,-3.5733,-3.5554,-3.5504,-3.5504,-3.5504,-3.5848,-3.6237,-3.6432,-3.7063,-3.7955,-3.9372,-3.9419,-3.9823,-4.193,-4.1436,-4.0735,-4.1113,-4.1284,-4.1638,-4.2606,-4.334,-4.3974,-4.4513,-4.4463,-4.4214,-4.3663,-4.3389,-4.3114,-4.2686,-4.2402,-4.2087,-4.1737,-4.107,-4.0606,-4.0412,-3.9768,-3.92,-3.8706,-3.8497,-3.8167,-3.7704,-3.7075,-3.6761,-3.6746,-3.6282,-3.6742,-3.805,-3.8556,-3.8994,-3.9438,-4.0198,-4.0596,-4.0785,-4.0941,-4.0878,-4.0613,-3.9912,-3.9497,-3.9398,-4.0144,-4.0542,-4.0829,0.0,0.0,0.0,0.0,0.0,0.0,-4.4615,-4.4615,-4.4767,-4.5196,-4.5263,-4.5534,0.0,0.0,0.0,0.0,0.0,0.0,-4.2604,-4.3088,-4.2976,-4.1968,-4.3192,-4.3915,-4.3994,-4.5434,-4.6465,-4.7004,-4.7819,-4.7727,-4.6803,-4.6665,-4.6372,-4.5988,-4.5988,-4.5387,-4.4348,-4.3387,-4.2833,-4.2546,-4.1844,-4.1813,-4.2144,0.0,0.0,0.0,0.0,0.0,0.0,0.0,0.0,0.0,-3.5797,-3.5668,-3.5504,-3.5504,-3.5504,-3.5504,-3.5504,-3.5983,-3.6552,-3.6791,-3.7769,-3.8939,-3.9896,-4.0524,-4.1179,-4.225,-4.1729,-4.125,-4.1758,-4.1663,-4.1744,-4.2517,-4.2957,-4.3299,-4.3688,-4.3645,-4.3392,-4.2857,-4.2557,-4.2306,-4.2036,-4.1422,-4.0876,-4.0621,-4.0232,-3.9768,-3.9245,-3.908,-3.8706,-3.8018,-3.7764,-3.7449,-3.7045,-3.6417,-3.6088,-3.6088,-3.5684,-3.5908,-3.6656,-3.7107,-3.7751,-3.8559,-3.9624,-4.0069,-4.0066,-4.0308,-4.0409,-4.0326,-3.9597,-3.9299,-3.9398,-4.0144,-4.0409,-4.0575,0.0,0.0,-4.4581,-4.4514,0.0,0.0,-4.4615,-4.4615,-4.4615,-4.4615,-4.4615,-4.4869,0.0,0.0,0.0,-4.4633,0.0,0.0,0.0,-4.1788,-4.1759,-4.237,-4.259,-4.3279,-4.4594,-4.5187,-4.5187,-4.4572,-4.648,-4.6757,-4.5511,-4.6249,-4.6573,-4.6511,-4.6573,-4.6157,-4.5311,-4.4071,-4.3063,-4.2371,-4.1755,-4.1509,-4.1494,-4.1432,0.0,0.0,0.0,0.0,0.0,0.0,0.0,0.0,-3.6148,-3.5941,-3.5504,-3.5504,-3.5504,-3.5519,-3.5579,-3.6028,-3.6656,-3.733,-3.8476,-3.9697,-4.0607,-4.1807,-4.2787,-4.2803,-4.199,-4.1613,-4.2702,-4.1512,-4.0916,-4.2629,-4.2607,-4.2541,-4.3052,-4.2968,-4.2614,-4.2015,-4.2091,-4.1923,-4.1265,-4.0606,-3.9948,-3.9254,-3.9209,-3.8706,-3.7479,-3.7973,-3.8003,-3.7345,-3.6776,-3.6462,-3.6402,-3.5804,-3.5504,-3.5504,-3.5504,-3.5504,-3.5504,-3.5504,-3.6515,-3.8348,-3.8945,-3.9237,-3.9352,-3.9956,-4.0238,-4.0243,-3.9493,-3.9202,-3.9284,-3.9963,-4.0211,-4.031,0.0,0.0,-4.4421,-4.3852,0.0,0.0,-4.4615,-4.4615,-4.4615,-4.4615,-4.4615,-4.4666,-4.4835,-4.431,0.0,-4.3761,-4.3291,0.0,0.0,-4.129,-4.1339,-4.0966,-4.2489,-4.3778,-4.4594,-4.4764,-4.4649,-4.4358,-4.5464,-4.5525,-4.4603,-4.5955,-4.6232,-4.5598,-4.6278,-4.5634,-4.3994,-4.3156,-4.2109,-4.092,-4.0782,-4.072,-4.0674,-4.017,-3.9736,0.0,0.0,0.0,0.0,0.0,0.0,0.0,-3.5651,-3.5587,-3.5504,-3.5504,-3.5504,-3.5609,-3.6133,-3.6372,-3.6761,-3.7898,-3.9056,-4.0114,-4.0672,-4.0886,-4.1073,-4.1436,-4.2078,-4.2528,-4.2324,-4.2339,-4.2353,-4.2295,-4.2221,-4.207,-4.1825,-4.177,-4.1646,-4.1338,-4.0865,-4.0398,-3.9866,-3.9215,-3.8542,-3.7898,-3.7838,-3.7719,-3.7419,-3.7539,-3.733,-3.6701,-3.6552,-3.6237,-3.5729,-3.5579,-3.5504,-3.5504,-3.5504,-3.5504,-3.5504,-3.5504,-3.5985,-3.6894,-3.7561,-3.812,-3.8549,-3.8707,-3.9073,-3.946,-3.8766,-3.8535,-3.8535,-3.8697,-3.8763,-3.8877,0.0,0.0,0.0,0.0,0.0,0.0,0.0,0.0,-4.541,-4.4699,-4.4891,-4.4845,-4.4155,-4.4085,0.0,0.0,-4.259,-4.1994,-4.0607,-4.0821,-4.1165,-4.1494,-4.3156,-4.4101,-4.4132,-4.4019,-4.3921,-4.3808,-4.3876,-4.3953,-4.4196,-4.5617,-4.606,-4.5675,-4.6548,-4.5815,-4.3883,-4.3319,-4.2279,-4.1047,-4.1047,-4.0797,-4.0459,-4.0105,-3.9567,-3.8908,-3.7877,0.0,0.0,0.0,0.0,0.0,0.0,0.0,-3.5504,-3.5504,-3.5504,-3.5579,-3.5923,-3.6462,-3.7315,-3.8945,-3.9815,-4.0367,-4.0817,-4.0757,-4.0612,-4.0752,-4.1477,-4.199,-4.1671,-4.2136,-4.2353,-4.1715,-4.1613,-4.1421,-4.0858,-4.0904,-4.0803,-4.0374,-3.9898,-3.9393,-3.8811,-3.7993,-3.7345,-3.7,-3.6971,-3.6821,-3.6522,-3.6791,-3.6671,-3.6028,-3.6013,-3.5848,-3.5504,-3.5504,-3.5504,-3.5504,-3.5504,-3.5504,-3.5504,-3.5504,-3.5683,-3.599,-3.6631,-3.7101,-3.7413,-3.7735,-3.8067,-3.8367,-3.8322,-3.8108,-3.7908,-3.8193,-3.8108,-3.7972,0.0,0.0,0.0,0.0,0.0,0.0,0.0,0.0,0.0,-4.456,-4.4846,-4.4725,-4.3641,-4.38,-4.3243,0.0,0.0,0.0,-4.042,0.0,0.0,-4.2386,-4.3587,-4.4009,-4.3454,-4.3254,-4.3157,-4.3067,-4.2332,-4.269,-4.4092,-4.5172,-4.5703,-4.5784,-4.6453,-4.5755,-4.4083,-4.3337,-4.2355,-4.1232,-4.1109,-4.0709,-4.0136,-4.0013,-3.9308,-3.8246,-3.7569,-3.7131,-3.6767,-3.6187,0.0,0.0,0.0,0.0,-3.5489,-3.537,-3.5325,-3.5325,-3.5325,-3.6267,-3.7704,-3.9574,-4.0053,-4.0195,-4.0642,-4.0639,-4.0418,-4.0173,-4.0552,-4.0916,-4.0916,-4.1381,-4.157,-4.1018,-4.0916,-4.0699,-4.0046,-4.013,-3.9984,-3.927,-3.9011,-3.8593,-3.7836,-3.7003,-3.6432,-3.6327,-3.6312,-3.6088,-3.5534,-3.6028,-3.6073,-3.5519,-3.5504,-3.5504,-3.5504,-3.5504,-3.5504,-3.5504,-3.5504,-3.5504,-3.5504,-3.5504,-3.5504,-3.5522,-3.5889,-3.6184,-3.6446,-3.6886,-3.72,-3.7458,-3.7822,-3.7677,-3.728,-3.7793,-3.7648,-3.731,0.0,0.0,0.0,0.0,0.0,0.0,0.0,0.0,0.0,0.0,-4.3258,-4.3096,-4.3523,-4.2077,-4.0944,-4.0673,-4.0195,-3.984,-3.9662,0.0,0.0,-4.1724,-4.2463,-4.2833,-4.274,-4.2704,-4.2505,-4.2158,-4.2082,-4.278,-4.4263,-4.427,-4.4486,-4.4856,-4.457,-4.4066,-4.3303,-4.149,-4.037,-3.9739,-3.9154,-3.8862,-3.8708,-3.8123,-3.78,-3.7554,-3.6861,-3.649,-3.627,-3.6067,-3.5831,0.0,0.0,0.0,-3.5385,-3.4786,-3.4638,-3.4638,-3.4638,-3.5594,-3.6941,-3.8317,-3.8661,-3.8805,-3.9245,-3.9335,-3.9247,-3.9047,-3.9662,-4.0234,-4.0234,-4.0307,-4.0336,-4.0249,-4.0234,-4.0017,-3.9407,-3.9358,-3.8999,-3.796,-3.7907,-3.7556,-3.6565,-3.6481,-3.6252,-3.5684,-3.5639,-3.5594,-3.5504,-3.5594,-3.5594,-3.5504,-3.5504,-3.5504,-3.5504,-3.5504,-3.5504,-3.5504,-3.5504,-3.5504,-3.5504,-3.5504,-3.5504,-3.5477,-3.4912,-3.5322,-3.6353,-3.589,-3.6358,-3.734,-3.6845,-3.66,-3.6538,-3.6631,-3.66,-3.6554,0.0,0.0,0.0,0.0,0.0,0.0,0.0,0.0,0.0,0.0,0.0,-4.3138,-4.3035,-4.1848,-4.0919,-4.0538,-4.0232,-3.989,-3.9505,-4.0093,-4.0601,-4.0986,-4.1663,-4.2048,-4.2048,-4.1469,-4.1239,-4.1438,-4.0447,-4.1287,-4.3763,-4.3638,-4.4544,-4.6145,-4.5675,-4.4709,-4.3342,-4.1465,-4.0181,-3.9278,-3.8652,-3.8146,-3.773,-3.7424,-3.7118,-3.6719,-3.6444,-3.6274,-3.6196,-3.6148,-3.5926,-3.5688,-3.5621,0.0,0.0,0.0,-3.4503,-3.4593,-3.4951,-3.5237,-3.5759,-3.7419,-3.7584,-3.7494,-3.8033,-3.8041,-3.7934,-3.7863,-3.8348,-3.9028,-3.9644,-3.995,-3.9987,-3.9654,-3.9596,-3.9247,-3.8275,-3.8144,-3.7818,-3.6982,-3.6793,-3.6561,-3.6069,-3.5967,-3.5818,-3.5534,-3.5504,-3.5504,-3.5504,-3.5504,-3.5504,-3.5504,-3.5504,-3.5504,-3.5504,-3.5504,-3.5504,-3.5504,-3.5504,-3.5504,-3.5489,-3.51,-3.4936,-3.4923,-3.462,-3.4592,-3.4773,-3.4865,-3.5247,-3.583,-3.6245,-3.6196,-3.5941,-3.629,-3.6196,-3.5941,0.0,0.0,0.0,0.0,0.0,0.0,0.0,0.0,0.0,0.0,0.0,-4.2761,-4.2378,0.0,0.0,0.0,-4.0243,-4.009,-3.9767,-3.9582,-3.9782,-4.0459,-4.0878,-4.112,-4.1254,-4.0486,-4.0294,-4.0667,-3.9354,-4.0374,-4.3544,-4.3544,-4.5005,-4.7519,-4.6671,-4.5176,-4.3214,-4.1442,-4.0183,-3.9291,-3.8147,-3.7401,-3.6896,-3.6896,-3.6575,-3.6148,-3.6148,-3.6148,-3.6148,-3.6085,-3.5911,-3.5688,-3.5671,-3.5572,0.0,0.0,0.0,-3.4083,-3.4607,-3.4502,-3.4622,-3.6252,-3.6567,-3.6611,-3.7075,-3.7163,-3.7193,-3.7193,-3.7425,-3.7883,-3.8708,-3.9317,-3.9499,-3.8888,-3.8879,-3.8507,-3.723,-3.7201,-3.6997,-3.617,-3.5946,-3.5834,-3.5672,-3.5576,-3.5504,-3.5504,-3.5504,-3.5504,-3.5504,-3.5504,-3.5504,-3.5504,-3.5504,-3.5504,-3.5504,-3.5504,-3.5504,-3.5504,-3.5504,-3.5504,-3.5489,-3.4966,-3.4668,-3.4503,-3.4339,-3.4038,-3.3784,-3.4309,-3.4608,-3.485,-3.5792,-3.591,-3.5554,-3.6005,-3.5878,-3.5554,0.0,0.0,0.0,0.0,0.0,0.0,0.0,0.0,0.0,0.0,0.0,-4.0936,-4.1595,-4.042,-3.9603,-3.957,-3.9536,-3.9797,-4.0397,-3.9844,-3.9782,-4.0459,-3.992,0.0,-4.0342,-4.0327,-4.0101,-3.9777,-3.9666,-4.1227,-4.4272,-4.4272,-4.5678,-4.8147,-4.6217,-4.4363,-4.2537,-4.0579,-3.9783,-3.9627,-3.7144,-3.6096,-3.6051,-3.6051,-3.6035,-3.6005,-3.6005,-3.6005,-3.5973,-3.5784,-3.572,-3.5688,-3.5554,-3.5504,-3.537,0.0,0.0,0.0,-3.2662,-3.3095,-3.3724,-3.4474,-3.5597,-3.6492,-3.6537,-3.6985,-3.737,-3.737,-3.7243,-3.7149,-3.7223,-3.7951,-3.8376,-3.777,-3.8017,-3.781,-3.6533,-3.691,-3.6838,-3.5595,-3.5717,-3.5657,-3.5005,-3.5276,-3.5504,-3.5504,-3.5504,-3.5504,-3.5504,-3.5504,-3.5504,-3.5504,-3.5504,-3.5504,-3.5504,-3.5504,-3.5504,-3.5504,-3.5504,-3.5504,-3.5504,-3.5474,-3.51,-3.4474,-3.3814,-3.3873,-3.4459,-3.4503,-3.4861,-3.5444,-3.5522,-3.5537,-3.5504,-3.5537,-3.5537,-3.5504,0.0,0.0,0.0,0.0,0.0,0.0,0.0,0.0,0.0,0.0,0.0,0.0,0.0,-4.0739,-4.0136,-4.0136,-3.9736,-3.9582,-3.9828,-3.9247,-3.9136,-3.9813,-3.9613,-3.9745,-4.0296,-3.9764,-3.954,-3.9681,-3.9138,-4.0081,-4.2447,-4.3284,-4.3973,-4.4552,-4.505,-4.4702,-4.3498,-4.0695,-3.9604,-3.9586,-3.7337,-3.6464,-3.6418,-3.5965,-3.5831,-3.5831,-3.5831,-3.5894,-3.6005,-3.5926,-3.5831,-3.5688,-3.5638,-3.5572,-3.528,-3.4173,-3.3514,-3.3051,-3.2632,-3.2691,-3.3125,-3.4234,-3.4548,-3.4681,-3.5132,-3.5714,-3.6058,-3.5624,-3.6189,-3.672,-3.672,-3.7089,-3.7342,-3.7107,-3.7126,-3.6872,-3.5983,-3.5965,-3.5735,-3.4849,-3.5039,-3.5152,-3.4916,-3.5261,-3.5504,-3.5504,-3.5504,-3.5504,-3.5504,-3.5504,-3.5504,-3.5504,-3.5504,-3.5504,-3.5504,-3.5504,-3.5504,-3.5504,-3.5504,-3.5504,-3.5504,-3.5504,-3.4891,-3.3888,-3.4517,-3.4427,-3.3873,-3.4339,-3.4653,-3.4891,-3.5325,-3.5504,-3.5504,-3.5504,-3.5504,-3.5504,0.0,0.0,0.0,-4.461,0.0,-4.3716,-4.3033,-4.2556,-4.2094,-4.1663,0.0,0.0,0.0,0.0,-4.0489,-4.0489,-4.0074,-3.9828,-3.9828,-3.9198,-3.9121,-3.9797,-3.9564,-3.9661,-4.0191,-3.9575,-3.935,-3.9589,-3.9032,-3.9649,-4.1399,-4.2267,-4.2806,-4.3084,-4.3703,-4.3988,-4.3838,-4.1615,-4.068,-4.0401,-3.7936,-3.7214,-3.7515,-3.6598,-3.6421,-3.6601,-3.6343,-3.623,-3.6131,-3.5905,-3.575,-3.5638,-3.5638,-3.5422,-3.4891,-3.3559,-3.332,-3.3305,-3.2392,-3.2497,-3.3006,-3.3649,-3.3829,-3.3873,-3.4129,-3.4861,-3.531,-3.4653,-3.5402,-3.6148,-3.6148,-3.6257,-3.6428,-3.6581,-3.6628,-3.6362,-3.5429,-3.5385,-3.5194,-3.4486,-3.4702,-3.4902,-3.4902,-3.5261,-3.5504,-3.5504,-3.5504,-3.5504,-3.5504,-3.5504,-3.5504,-3.5504,-3.5504,-3.5504,-3.5504,-3.5504,-3.5504,-3.5504,-3.5504,-3.5504,-3.5504,-3.5504,-3.5011,-3.4218,-3.5115,-3.4741,-3.3559,-3.4457,-3.4848,-3.4861,-3.5325,-3.5504,-3.5504,-3.5504,-3.5504,-3.5504,-4.5434,-4.5033,-4.4572,-4.4572,-4.4572,-4.4356,-4.3679,-4.3571,-4.3094,-4.1801,0.0,0.0,0.0,0.0,0.0,-4.0551,-4.0536,-4.052,-4.052,-3.989,-3.9813,-4.0474,-3.9673,-3.9455,-3.998,-3.9803,-3.9589,-3.9388,-3.9388,-4.0068,-4.1324,-4.1339,-4.2357,-4.4092,-4.2207,-4.2058,-4.317,-4.3155,-4.2851,-4.2081,-3.8736,-3.8197,-3.9209,-3.7898,-3.7764,-3.8227,-3.7584,-3.6971,-3.6357,-3.5729,-3.5504,-3.5504,-3.5504,-3.504,-3.4249,-3.2916,-3.3006,-3.3245,0.0,0.0,0.0,-3.2706,-3.3484,-3.4294,-3.3634,-3.4517,-3.525,-3.4608,-3.4996,-3.5474,-3.5474,-3.5489,-3.5648,-3.6093,-3.6512,-3.6261,-3.4907,-3.521,-3.5288,-3.452,-3.4702,-3.4902,-3.4902,-3.5261,-3.5504,-3.5504,-3.5504,-3.5504,-3.5504,-3.5504,-3.5504,-3.5504,-3.5504,-3.5504,-3.5504,-3.5504,-3.5504,-3.5504,-3.5504,-3.5504,-3.5504,-3.5504,-3.5489,-3.5474,-3.5489,-3.4756,-3.3619,-3.4966,-3.5504,-3.5504,-3.5504,-3.5504,-3.5504,-3.5504,-3.5504,-3.5504,-4.441,-4.4303,-4.4181,-4.4181,-4.4181,-4.3953,-4.3282,-4.3175,-4.2908,0.0,0.0,0.0,-4.1801,-4.1786,-4.1786,-4.1786,-4.1342,-4.1066,-4.1066,-4.0298,-3.9939,-4.0121,-3.9919,-3.9798,-3.9803,-3.9732,-3.9589,-3.9388,-3.9388,-3.9604,-3.9963,-4.0442,-4.0711,-4.0748,-4.1205,-4.1055,-4.0435,-3.9963,-4.0487,-4.1452,-3.8556,-3.7913,-3.8542,-3.724,-3.6552,-3.6282,-3.6103,-3.5923,-3.5744,-3.5564,-3.5504,-3.5504,-3.5504,-3.504,-3.4339,-3.3469,-3.3694,-3.3918,-3.2602,0.0,0.0,0.0,0.0,0.0,-3.3425,-3.3784,-3.3993,-3.3799,-3.4292,-3.4788,-3.4788,-3.5175,-3.5532,-3.5678,-3.5677,-3.5529,-3.5108,-3.5097,-3.4993,-3.4798,-3.4968,-3.5115,-3.5115,-3.5359,-3.5504,-3.5504,-3.5504,-3.5504,-3.5504,-3.5504,-3.5504,-3.5504,-3.5504,-3.5504,-3.5504,-3.5504,-3.5504,-3.5504,-3.5504,-3.5504,-3.5504,-3.5504,-3.5235,-3.4786,-3.5295,-3.5011,-3.4309,-3.5145,-3.5504,-3.5504,-3.5504,-3.5504,-3.5504,-3.5504,-3.5504,-3.5504,-4.3988,-4.3988,-4.3988,-4.3988,-4.3988,-4.3851,-4.3472,-4.3411,-4.3206,0.0,0.0,0.0,-4.2147,-4.2397,-4.2458,-4.2169,-4.1559,-4.1178,-4.1178,-4.0446,-4.0011,-4.0011,-3.9925,-3.9803,-3.9681,-3.9625,-3.9517,-3.9388,-3.9388,-3.9388,-3.9388,-3.9813,-3.9783,-3.9403,-3.9918,-3.9709,-3.8931,-3.7988,-3.8901,-4.0816,-3.899,-3.8796,-3.9499,-3.8197,-3.7644,-3.7479,-3.6911,-3.6896,-3.6971,-3.5878,-3.5684,-3.5818,-3.525,-3.4996,-3.4726,-3.3769,-3.3963,-3.4279,-3.32,-3.341,-3.3934,-3.3934,0.0,0.0,-3.341,-3.3499,-3.3425,-3.314,-3.3604,-3.4068,-3.4068,-3.4397,-3.4756,-3.504,-3.4974,-3.4966,-3.5169,-3.5337,-3.5311,-3.4931,-3.5318,-3.5525,-3.5243,-3.5359,-3.5504,-3.5504,-3.5504,-3.5504,-3.5504,-3.5504,-3.5504,-3.5504,-3.5504,-3.5504,-3.5504,-3.5504,-3.5504,-3.5504,-3.5504,-3.5504,-3.5504,-3.5504,-3.5295,-3.4936,-3.5325,-3.528,-3.4936,-3.534,-3.5504,-3.5504,-3.5504,-3.5504,-3.5504,-3.5504,-3.5504,-3.5504,0.0,-4.391,-4.391,-4.391,-4.397,-4.4016,-4.4016,-4.4016,-4.3873,0.0,-4.3281,-4.3039,-4.2327,-4.2758,-4.2834,-4.2243,-4.1522,-4.1067,-4.1067,-4.037,-3.9925,-3.9925,-3.9768,-3.9661,-3.9661,-3.9481,-3.9388,-3.9388,-3.9388,-3.9388,-3.9388,-3.9388,-3.9298,-3.9134,-3.8556,-3.8197,-3.8003,-3.7015,-3.7898,-3.9918,-3.9334,-3.9933,-4.101,-3.9619,-3.9454,-3.9798,-3.8527,-3.8467,-3.8631,-3.6282,-3.5893,-3.6163,-3.4998,-3.4966,-3.516,-3.3963,-3.4023,-3.4384,-3.3769,-3.4038,-3.4503,-3.4503,-3.3978,0.0,-3.3499,-3.344,-3.3245,-3.2721,-3.3095,-3.3514,-3.3589,-3.3664,-3.3903,-3.4518,-3.4623,-3.4769,-3.5172,-3.5751,-3.5863,-3.5163,-3.5696,-3.5915,-3.5377,-3.5436,-3.5504,-3.5504,-3.5504,-3.5504,-3.5504,-3.5504,-3.5504,-3.5504,-3.5504,-3.5504,-3.5504,-3.5504,-3.5504,-3.5504,-3.5504,-3.5504,-3.5504,-3.5504,-3.5504,-3.5504,-3.5429,-3.5429,-3.5489,-3.5429,-3.5429,-3.5504,-3.5504,-3.5504,-3.5504,-3.5504,-3.5504,-3.5504,-4.3448,-4.3448,-4.3448,-4.3448,-4.3898,-4.4243,-4.4243,-4.4243,-4.4434,-4.5027,-4.5072,-4.4986,-4.4663,-4.4434,-4.4212,-4.4076,-4.2531,-4.1549,-4.1549,-4.0287,-3.9532,-3.9532,-3.9496,-3.9445,-3.9445,-3.9409,-3.9388,-3.9388,-3.9388,-3.9388,-3.9388,-3.9388,-3.8805,-3.7793,-3.7659,-3.703,-3.6118,-3.6896,-3.724,-3.724,-3.7105,-3.8153,-3.9604,-3.7764,-3.7135,-3.715,-3.6342,-3.6148,-3.6193,-3.5684,-3.5594,-3.5654,-3.5385,-3.5011,-3.4653,-3.4399,-3.4414,-3.4474,-3.4354,-3.4414,-3.4503,-3.4503,-3.3978,0.0,-3.3499,-3.308,-3.2826,-3.3215,-3.341,-3.3649,-3.4219,-3.4741,-3.516,-3.528,-3.5295,-3.5355,-3.5424,-3.5544,-3.5768,-3.6138,-3.5872,-3.5783,-3.6219,-3.5786,-3.5504,-3.5504,-3.5504,-3.5504,-3.5504,-3.5504,-3.5504,-3.5504,-3.5504,-3.5504,-3.5504,-3.5504,-3.5504,-3.5504,-3.5504,-3.5504,-3.5504,-3.5504,-3.5504,-3.5474,-3.4921,-3.4996,-3.5459,-3.4906,-3.4996,-3.5504,-3.5504,-3.5504,-3.5504,-3.5504,-3.5504,-3.5504,-4.329,-4.329,-4.329,-4.329,-4.3559,-4.3888,-4.4272,-4.4317,-4.4582,-4.5365,-4.5755,-4.5668,-4.4885,-4.4877,-4.4689,-4.3988,-4.2782,-4.1904,-4.1588,-4.0531,-3.9768,-3.9388,-3.9388,-3.9388,-3.9388,-3.9388,-3.9388,-3.9388,-3.9388,-3.9245,-3.8901,-3.8901,-3.8197,-3.6941,-3.6941,-3.6402,-3.5549,-3.6193,-3.6641,-3.6971,-3.73,-3.8018,-3.8796,-3.7808,-3.7434,-3.7345,-3.6686,-3.6043,-3.5609,-3.6237,-3.6252,-3.5938,-3.5609,-3.5489,-3.5415,-3.5085,-3.4996,-3.4996,-3.4996,-3.4996,-3.4996,-3.4996,-3.4487,0.0,0.0,-3.3469,-3.3095,-3.3425,-3.323,-3.3095,-3.344,-3.3784,-3.4113,-3.4457,-3.4502,-3.4741,-3.5415,-3.5789,-3.5998,-3.5998,-3.5998,-3.5998,-3.5998,-3.5699,-3.5504,-3.5504,-3.5504,-3.5504,-3.5504,-3.5504,-3.5504,-3.5504,-3.5504,-3.5504,-3.5504,-3.5504,-3.5504,-3.5504,-3.5504,-3.5504,-3.5504,-3.5504,-3.5325,-3.4966,-3.4653,-3.4698,-3.4966,-3.4653,-3.4891,-3.5504,-3.5504,-3.5504,-3.5504,-3.5504,-3.5504,-3.5504,-4.329,-4.329,-4.329,-4.329,-4.3409,-4.3663,-4.4227,-4.4317,-4.4541,-4.5214,-4.6007,-4.6097,-4.5005,-4.5125,-4.4975,-4.4127,-4.2925,-4.2156,-4.1953,-4.0861,-3.9978,-3.9403,-3.9388,-3.9328,-3.923,-3.9313,-3.9388,-3.9388,-3.9388,-3.9065,-3.8392,-3.8392,-3.7704,-3.6492,-3.6492,-3.6252,-3.5863,-3.5744,-3.6357,-3.7449,-3.7853,-3.8257,-3.8542,-3.8167,-3.8108,-3.8093,-3.733,-3.6387,-3.5684,-3.6851,-3.6821,-3.6237,-3.5818,-3.5968,-3.6193,-3.5669,-3.5504,-3.5504,-3.5504,-3.5504,-3.5504,-3.5504,-3.5085,-3.4668,0.0,0.0,0.0,-3.3679,-3.326,-3.2931,-3.3066,-3.2976,-3.3066,-3.3589,-3.3679,-3.4068,-3.516,-3.5878,-3.6148,-3.5744,-3.5818,-3.5804,-3.5534,-3.5385,-3.5355,-3.5489,-3.5504,-3.5504,-3.5504,-3.5504,-3.5504,-3.5504,-3.5504,-3.5504,-3.5504,-3.5504,-3.5504,-3.5504,-3.5504,-3.5504,-3.5504,-3.5504,-3.519,-3.4698,-3.4429,-3.4459,-3.4651,-3.4429,-3.4771,-3.5504,-3.5504,-3.5504,-3.5504,-3.5504,-3.5504,-3.5504,-4.329,-4.329,-4.329,-4.329,-4.3768,-4.4227,-4.4302,-4.4317,-4.4541,-4.5214,-4.6396,-4.713,-4.698,-4.5963,-4.5723,-4.677,-4.3569,-4.2207,-4.3868,-4.119,-3.9499,-3.9388,-3.9388,-3.9125,-3.8527,-3.911,-3.9388,-3.9388,-3.9388,-3.9065,-3.8392,-3.8392,-3.7704,-3.6492,-3.6492,-3.6746,-3.7165,-3.6611,-3.6776,-3.736,-3.6896,-3.7749,-3.911,-3.736,-3.7045,-3.736,-3.6148,-3.5624,-3.5609,-3.6342,-3.6148,-3.5699,-3.6207,-3.6028,-3.5609,-3.5534,-3.5504,-3.5504,-3.5504,-3.5504,-3.5504,-3.5504,-3.5444,-3.5235,-3.4653,0.0,-3.4399,-3.4399,0.0,-3.4442,-3.5055,0.0,0.0,-3.4384,-3.4399,-3.4444,-3.4593,-3.519,-3.5804,-3.6312,-3.4876,-3.4277,-3.54,-3.4951,-3.4846,-3.5459,-3.5504,-3.5504,-3.5504,-3.5504,-3.5504,-3.5504,-3.5504,-3.5504,-3.5504,-3.5504,-3.5504,-3.5504,-3.5504,-3.5504,-3.5504,-3.5504,-3.5459,-3.5325,-3.4128,-3.4277,-3.5295,-3.4098,-3.4352,-3.5504,-3.5504,-3.5504,-3.5504,-3.5504,-3.5504,-3.5504,-4.329,-4.329,-4.329,-4.329,-4.3529,-4.3962,-4.4766,-4.5873,-4.6576,-4.6471,-4.7279,-4.7728,-4.7339,-4.68,-4.6531,-4.6711,-4.4855,-4.3688,-4.3778,-4.2117,-4.095,-4.0576,-4.0187,-3.9858,-3.9559,-3.908,-3.8826,-3.8826,-3.8437,-3.7913,-3.7285,-3.7285,-3.7,-3.6477,-3.6088,-3.6267,-3.6851,-3.6596,-3.6641,-3.6881,-3.6985,-3.7524,-3.8123,-3.6941,-3.6656,-3.6761,-3.5833,-3.5504,-3.5549,-3.5818,-3.5729,-3.5549,-3.5833,-3.5729,-3.5504,-3.5504,-3.5504,-3.5504,-3.5504,-3.5504,-3.5504,-3.5504,-3.5504,-3.5429,-3.513,-3.507,-3.507,-3.507,0.0,0.0,0.0,0.0,0.0,0.0,-3.4503,-3.4503,-3.4503,-3.4068,-3.4307,-3.5744,-3.5175,-3.4726,-3.4891,-3.4683,-3.4474,-3.4352,-3.4696,-3.4906,-3.4906,-3.4906,-3.51,-3.5489,-3.5504,-3.5504,-3.5504,-3.5504,-3.5504,-3.5504,-3.5504,-3.5504,-3.5504,-3.5504,-3.5295,-3.4861,-3.3903,-3.4038,-3.4846,-3.3888,-3.4292,-3.5504,-3.5504,-3.5504,-3.5504,-3.5504,-3.5504,-3.5504,-4.329,-4.329,-4.329,-4.329,-4.329,-4.3678,-4.4855,-4.6411,-4.7354,-4.707,-4.7608,-4.7908,-4.7608,-4.7743,-4.7788,-4.7683,-4.6546,-4.5529,-4.4781,-4.3279,-4.2036,-4.1145,-4.0831,-4.0412,-3.9858,-3.908,-3.8571,-3.8392,-3.7734,-3.727,-3.7,-3.6656,-3.6582,-3.6716,-3.6237,-3.6182,-3.6461,-3.6461,-3.6344,-3.6173,-3.6433,-3.6697,-3.6866,-3.6596,-3.6372,-3.6148,-3.5669,-3.5504,-3.5534,-3.5714,-3.5654,-3.5534,-3.5714,-3.5654,-3.5504,-3.5504,-3.5504,-3.5504,-3.5504,-3.5504,-3.5504,-3.5504,-3.5504,-3.5504,-3.5504,-3.5639,-3.5729,-3.5549,-3.525,0.0,0.0,0.0,-3.4503,-3.4503,0.0,-3.4503,-3.4503,-3.3649,-3.3589,-3.5055,-3.522,-3.5026,-3.4563,-3.4503,-3.4309,-3.3799,-3.4234,-3.4429,-3.4249,-3.4414,-3.4728,-3.5205,-3.54,-3.5504,-3.5504,-3.5504,-3.5504,-3.5504,-3.5504,-3.5504,-3.5504,-3.5504,-3.5235,-3.4726,-3.4053,-3.4143,-3.4728,-3.4038,-3.4457,-3.5504,-3.5504,-3.5504,-3.5504,-3.5504,-3.5504,-3.5504,-4.329,-4.329,-4.329,-4.329,-4.329,-4.3529,-4.4242,-4.4945,-4.5618,-4.6277,-4.6935,-4.7578,-4.8192,-4.8865,-4.9703,-5.096,-4.8716,-4.7489,-4.8087,-4.4552,-4.1826,-4.0487,-4.1025,-4.0479,-3.8497,-3.9065,-3.9065,-3.8392,-3.7734,-3.7719,-3.8302,-3.7075,-3.6806,-3.7375,-3.736,-3.6966,-3.6299,-3.6299,-3.5892,-3.517,-3.4623,-3.4865,-3.5639,-3.6252,-3.6088,-3.5534,-3.5519,-3.5504,-3.5609,-3.6237,-3.6028,-3.5609,-3.6252,-3.6013,-3.5504,-3.5504,-3.5504,-3.5504,-3.5504,-3.5504,-3.5504,-3.5504,-3.5504,-3.5504,-3.5504,-3.5998,-3.6267,-3.5639,-3.5998,-3.6237,-3.5594,-3.4921,-3.4503,-3.4503,-3.4503,0.0,0.0,-3.4474,-3.4474,-3.4533,-3.4533,-3.4533,-3.4503,-3.4503,-3.4503,-3.4474,-3.4503,-3.4234,-3.3559,-3.4159,-3.4518,-3.4533,-3.516,-3.5504,-3.5504,-3.5504,-3.5504,-3.5504,-3.5504,-3.5504,-3.5504,-3.5504,-3.5489,-3.5429,-3.4741,-3.4846,-3.5415,-3.4726,-3.4861,-3.5504,-3.5504,-3.5504,-3.5504,-3.5504,-3.5504,-3.5504,-4.2537,-4.2456,-4.2618,-4.321,-4.329,-4.3663,-4.4796,-4.6277,-4.7668,-4.8731,-4.9868,-5.1139,-5.2695,-5.3054,-5.3189,-5.3204,-5.1573,-4.9898,-4.8386,-4.6621,-4.484,-4.3075,-4.321,-4.2596,-4.1093,-4.0397,-3.9468,-3.8275,-3.6734,-3.6029,-3.6071,-3.4872,-3.4879,-3.5899,-3.6435,-3.6011,-3.5011,-3.6375,-3.5784,-3.3874,-3.3662,-3.4301,-3.5408,-3.5728,-3.5699,-3.5504,-3.5504,-3.5504,-3.5534,-3.5759,-3.5684,-3.5549,-3.5774,-3.5684,-3.5504,-3.5504,-3.5504,-3.5504,-3.5504,-3.5504,-3.5504,-3.5504,-3.5504,-3.5504,-3.5504,-3.6013,-3.6297,-3.5639,-3.6028,-3.6297,-3.5624,-3.531,-3.516,-3.516,-3.516,-3.4846,0.0,-3.3455,-3.3335,-3.3784,-3.3829,-3.3993,-3.4474,-3.4114,-3.3649,-3.3215,-3.3185,-3.308,-3.2856,-3.3051,-3.3574,-3.4474,-3.4728,-3.504,-3.5504,-3.5504,-3.5504,-3.5504,-3.5504,-3.5504,-3.5504,-3.5504,-3.5504,-3.5474,-3.4771,-3.4861,-3.5444,-3.4788,-3.4891,-3.5504,-3.5504,-3.5504,-3.5504,-3.5504,-3.5504,-3.5504,-4.1646,-4.1505,-4.1769,-4.2699,-4.3269,-4.4047,-4.5125,-4.7189,-4.903,-5.0046,-5.1798,-5.3237,-5.4086,-5.4805,-5.4968,-5.4317,-5.2885,-5.1101,-4.8947,-4.7358,-4.5493,-4.3316,-4.327,-4.2609,-4.1086,-4.0198,-3.9082,-3.7682,-3.6421,-3.5988,-3.6311,-3.4823,-3.4756,-3.5915,-3.6335,-3.5364,-3.3579,-3.5586,-3.489,-3.2448,-3.2684,-3.3508,-3.4568,-3.4651,-3.5182,-3.5753,-3.4975,-3.4854,-3.5019,-3.4787,-3.4854,-3.5052,-3.5052,-3.5052,-3.5133,-3.5439,-3.5294,-3.5133,-3.5424,-3.5504,-3.5504,-3.5504,-3.5504,-3.5504,-3.5504,-3.6013,-3.6297,-3.5639,-3.6028,-3.6297,-3.5624,-3.5504,-3.5504,-3.5504,-3.5504,-3.504,0.0,-3.3335,-3.3275,-3.3469,-3.3709,-3.4039,-3.4474,-3.4129,-3.3469,-3.2587,-3.2512,-3.2392,-3.2153,-3.2363,-3.3006,-3.4129,-3.4384,-3.4801,-3.5489,-3.5504,-3.5504,-3.5504,-3.5504,-3.5504,-3.5504,-3.5504,-3.5504,-3.5489,-3.504,-3.51,-3.5474,-3.5026,-3.51,-3.5504,-3.5504,-3.5504,-3.5504,-3.5504,-3.5504,-3.5504,-4.0673,-4.0532,-4.0859,-4.1729,-4.3178,-4.4419,-4.5105,-4.7433,-4.9387,-5.0087,-5.2487,-5.374,-5.2628,-5.4225,-5.5065,-5.4385,-5.2698,-5.113,-4.975,-4.6863,-4.405,-4.1535,-4.1625,-4.077,-3.8781,-3.8739,-3.8137,-3.6867,-3.6744,-3.7388,-3.875,-3.662,-3.6156,-3.7076,-3.6906,-3.5065,-3.2173,-3.4091,-3.3386,-3.1048,-3.1773,-3.2533,-3.3199,-3.3122,-3.4473,-3.6104,-3.3976,-3.3665,-3.4143,-3.3422,-3.3665,-3.4245,-3.4245,-3.4245,-3.4394,-3.5166,-3.4839,-3.4428,-3.5213,-3.5424,-3.5439,-3.5504,-3.5472,-3.5457,-3.5504,-3.598,-3.6264,-3.5639,-3.6028,-3.6297,-3.5624,-3.5504,-3.5504,-3.5504,-3.5474,-3.5011,-3.3724,-3.4053,-3.4234,-3.3619,-3.4068,-3.4474,-3.4503,-3.4444,-3.3858,-3.2617,-3.2452,-3.2168,-3.154,-3.2093,-3.2781,-3.3469,-3.4129,-3.4771,-3.5489,-3.5504,-3.5504,-3.5504,-3.5504,-3.5504,-3.5504,-3.5504,-3.5504,-3.5504,-3.5504,-3.5504,-3.5504,-3.5504,-3.5504,-3.5504,-3.5504,-3.5504,-3.5504,-3.5504,-3.5504,-3.5504,-3.9804,-3.9933,-4.0292,-4.0559,-4.1549,-4.2639,-4.3665,-4.5563,-4.7589,-4.9616,-5.2084,-5.4071,-5.5196,-5.5777,-5.5693,-5.453,-5.3571,-5.191,-4.9289,-4.8348,-4.6574,-4.3584,-4.3999,-4.3157,-4.0812,-4.0756,-3.9855,-3.8016,-3.6606,-3.6062,-3.6219,-3.4353,-3.3631,-3.397,-3.5418,-3.4301,-3.1439,-3.3873,-3.3386,-3.1024,-3.1198,-3.2018,-3.3019,-3.1961,-3.2904,-3.4639,-3.3579,-3.3318,-3.3457,-3.3248,-3.3318,-3.3492,-3.3492,-3.3492,-3.3526,-3.3713,-3.363,-3.3665,-3.4394,-3.461,-3.4758,-3.5359,-3.5052,-3.4758,-3.5359,-3.5555,-3.557,-3.5526,-3.6028,-3.6297,-3.5624,-3.5504,-3.5504,-3.5504,-3.507,-3.4653,-3.4309,-3.3948,-3.3858,-3.4219,-3.3979,-3.3933,-3.4459,-3.3589,-3.2886,-3.2542,-3.2034,-3.169,-3.1511,-3.166,-3.2273,-3.3455,-3.3664,-3.4322,-3.5489,-3.5504,-3.5504,-3.5504,-3.5504,-3.5504,-3.5504,-3.5504,-3.5504,-3.5504,-3.5504,-3.5504,-3.5504,-3.5504,-3.5504,-3.5504,-3.5504,-3.5504,-3.5504,-3.5504,-3.5504,-3.5504,-3.9157,-3.9447,-3.9941,-4.0194,-4.0937,-4.2065,-4.3766,-4.5487,-4.7249,-4.9174,-5.163,-5.3304,-5.3585,-5.4332,-5.4415,-5.3386,-5.2246,-5.0734,-4.8761,-4.7885,-4.6218,-4.3468,-4.3413,-4.2508,-4.0309,-4.0037,-3.9216,-3.7771,-3.6489,-3.5978,-3.6183,-3.4564,-3.3606,-3.3288,-3.458,-3.3768,-3.1456,-3.2917,-3.2694,-3.1339,-3.1091,-3.1457,0.0,-3.1292,-3.1755,-3.2732,-3.2355,-3.2448,-3.2684,-3.2354,-3.2448,-3.272,-3.272,-3.272,-3.2791,-3.3108,-3.2967,-3.2897,-3.363,-3.3837,-3.3939,-3.439,-3.4172,-3.3953,-3.439,-3.4447,-3.4404,-3.4462,-3.4797,-3.5029,-3.4979,-3.4986,-3.51,-3.5424,-3.5175,-3.4816,-3.4548,-3.4427,-3.4397,-3.4503,-3.4174,-3.4099,-3.4474,-3.329,-3.2392,-3.2079,-3.1974,-3.1809,-3.1525,-3.178,-3.2437,-3.3469,-3.3499,-3.4143,-3.5489,-3.5504,-3.5504,-3.5504,-3.5504,-3.5504,-3.5504,-3.5504,-3.5504,-3.5504,-3.5504,-3.5504,-3.5504,-3.5504,-3.5504,-3.5504,-3.5504,-3.5504,-3.5504,-3.5504,-3.5504,-3.5504,-3.8841,-3.9364,-3.9952,-4.0344,-4.1036,-4.2269,-4.4621,-4.6214,-4.7605,-4.8729,-5.1039,-5.1988,-5.0376,-5.1575,-5.2239,-5.1503,-4.9976,-4.884,-4.8109,-4.6586,-4.4709,-4.2369,-4.1808,-4.0684,-3.8867,-3.8214,-3.7599,-3.6998,-3.6253,-3.6264,-3.699,-3.5666,-3.46,-3.3752,-3.403,-3.33,-3.1797,-3.1797,-3.1758,-3.1641,-3.1182,-3.0986,-3.0986,-3.0986,-3.0986,-3.0986,-3.0986,-3.1394,-3.1882,-3.1222,-3.1431,-3.1942,-3.1942,-3.1942,-3.2087,-3.272,-3.2448,-3.2123,-3.2875,-3.3073,-3.3073,-3.3178,-3.3108,-3.3073,-3.3178,-3.3108,-3.3073,-3.3178,-3.3178,-3.3388,-3.4041,-3.4177,-3.4394,-3.5082,-3.5279,-3.5118,-3.4411,-3.4832,-3.5046,-3.4524,-3.4347,0.0,-3.4488,-3.3365,-3.2378,-3.1809,-3.2288,-3.2333,-3.1675,-3.2168,-3.2826,-3.3469,-3.3499,-3.4188,-3.5624,-3.5549,-3.5549,-3.5624,-3.5549,-3.5504,-3.5504,-3.5504,-3.5504,-3.5504,-3.5504,-3.5504,-3.5504,-3.5504,-3.5504,-3.5504,-3.5504,-3.5504,-3.5504,-3.5504,-3.5504,-3.5504,-3.9534,-4.0292,-4.0893,-4.0488,-4.169,-4.3179,-4.46,-4.5858,-4.7078,-4.8188,-5.0022,-5.1028,-5.0693,-5.0956,-5.0706,-4.9653,-4.9304,-4.8459,-4.6915,-4.655,-4.5297,-4.2971,-4.2775,-4.169,-3.9494,-3.8436,-3.7599,-3.6998,-3.5456,-3.4782,-3.4895,-3.4232,-3.3537,-3.2922,-3.2974,-3.2555,-3.1797,-3.1797,-3.1523,-3.1117,-3.1026,-3.0986,-3.0986,-3.0986,-3.0986,-3.0986,-3.0986,-3.1086,-3.1161,-3.1048,-3.1099,-3.1185,-3.1185,-3.1185,-3.1222,-3.1334,-3.1296,-3.1371,-3.2087,-3.229,-3.2434,-3.3038,-3.2755,-3.2434,-3.3073,-3.272,-3.247,-3.3073,-3.3178,-3.3248,-3.3353,-3.3388,-3.3422,-3.3575,-3.4124,-3.425,-3.3522,-3.3667,-3.3963,-3.4309,-3.3466,-3.3296,-3.4381,-3.3784,-3.3275,-3.3155,-3.326,-3.3036,-3.2348,-3.2452,-3.2826,-3.3469,-3.3499,-3.4397,-3.6297,-3.5774,-3.5774,-3.6312,-3.5759,-3.5504,-3.5504,-3.5504,-3.5504,-3.5504,-3.5504,-3.5504,-3.5504,-3.5504,-3.5504,-3.5504,-3.5504,-3.5504,-3.5504,-3.5504,-3.5504,-3.5504,-4.0488,-4.0932,-4.1507,-4.2108,-4.3167,-4.4317,-4.548,-4.663,-4.7349,-4.7296,-4.8028,-4.8551,-4.8551,-4.8826,-4.8773,-4.8224,-4.7911,-4.7257,-4.6107,-4.5741,-4.4813,-4.3101,-4.2735,-4.1651,-3.9651,-3.8187,-3.7442,-3.7469,-3.5129,-3.428,-3.4842,-3.3992,-3.3117,-3.2241,-3.2241,-3.2267,-3.2267,-3.1928,-3.1641,-3.1405,-3.1104,-3.0986,-3.0986,-3.0986,-3.0986,-3.0986,-3.0986,-3.0986,-3.0986,-3.0986,-3.0986,-3.0986,-3.0986,-3.0986,-3.0986,-3.0986,-3.0986,-3.1099,-3.1431,-3.1529,-3.1603,-3.1955,-3.1786,-3.1603,-3.1992,-3.1786,-3.164,-3.2005,-3.2064,-3.2173,-3.2541,-3.2932,-3.3178,-3.3178,-3.3492,-3.3596,-3.3262,-3.3285,-3.3325,-3.3316,-3.2787,-3.2709,-3.3354,-3.346,-3.3367,-3.3005,-3.3305,-3.3066,-3.2034,-3.2647,-3.317,-3.3484,-3.3499,-3.4292,-3.5968,-3.5669,-3.5669,-3.5968,-3.5654,-3.5504,-3.5504,-3.5504,-3.5504,-3.5504,-3.5504,-3.5504,-3.5504,-3.5504,-3.5504,-3.5504,-3.5504,-3.5504,-3.5504,-3.5504,-3.5504,-3.5504,-4.1471,-4.1629,-4.2125,-4.3635,-4.4548,-4.5386,-4.6286,-4.7453,-4.7911,-4.7127,-4.7035,-4.6983,-4.6852,-4.7244,-4.7414,-4.7166,-4.6734,-4.6186,-4.548,-4.4929,-4.416,-4.2892,-4.2291,-4.1232,-3.9651,-3.7782,-3.6985,-3.7351,-3.4829,-3.3927,-3.4541,-3.377,-3.2777,-3.1628,-3.1876,-3.2136,-3.2306,-3.1941,-3.1732,-3.1575,-3.1169,-3.0986,-3.0986,-3.0986,-3.0986,-3.0986,-3.0986,-3.0986,-3.0986,-3.0986,-3.0986,-3.0986,-3.0986,-3.0986,-3.0986,-3.0986,-3.0986,-3.0986,-3.0986,-3.0986,-3.0986,-3.0986,-3.0986,-3.0986,-3.0986,-3.0986,-3.0986,-3.0986,-3.0986,-3.1198,-3.1773,-3.234,-3.2733,-3.2733,-3.2875,-3.2897,-3.2755,-3.2764,-3.264,-3.2185,-3.2052,-3.2036,-3.2171,-3.2734,-3.2885,-3.254,-3.3259,-3.3185,-3.1989,-3.2931,-3.3499,-3.3499,-3.3634,-3.4352,-3.5699,-3.5579,-3.5579,-3.5714,-3.5564,-3.5504,-3.5504,-3.5504,-3.5504,-3.5504,-3.5504,-3.5504,-3.5504,-3.5504,-3.5504,-3.5504,-3.5504,-3.5504,-3.5504,-3.5504,-3.5504,-3.5504,-4.2345,-4.2651,-4.3044,-4.3711,-4.4948,-4.5935,-4.6039,-4.7268,-4.8342,-4.8786,-4.8839,-4.8629,-4.8081,-4.8081,-4.7689,-4.6643,-4.6512,-4.6003,-4.4879,-4.4761,-4.3977,-4.2368,-4.1703,-4.0827,-3.9638,-3.7364,-3.5979,-3.5534,-3.4228,-3.3104,-3.2137,-3.2581,-3.2163,-3.1104,-3.215,-3.2071,-3.1169,-3.1602,-3.1497,-3.1065,-3.1013,-3.0986,-3.0986,-3.0986,-3.0986,-3.0986,-3.0986,-3.0986,-3.0986,-3.0986,-3.0986,-3.0986,-3.0986,-3.0986,-3.0986,-3.0986,-3.0986,-3.0986,-3.0986,-3.0986,-3.0986,-3.0986,-3.0986,-3.0986,-3.0986,-3.0986,-3.0986,-3.0986,-3.0986,-3.1024,-3.1086,-3.1161,-3.1198,-3.1198,-3.1773,-3.1978,-3.1296,-3.1316,-3.1365,-3.1311,-3.089,-3.0834,-3.1504,-3.157,-3.1856,-3.2433,-3.3665,-3.4099,-3.335,-3.3425,-3.3499,-3.3499,-3.4099,-3.5058,-3.6372,-3.5804,-3.5804,-3.6387,-3.5789,-3.5504,-3.5504,-3.5504,-3.5504,-3.5504,-3.5504,-3.5504,-3.5504,-3.5504,-3.5504,-3.5504,-3.5504,-3.5504,-3.5504,-3.5504,-3.5504,-3.5504,-4.3782,-4.3672,-4.3857,-4.5111,-4.5533,-4.5929,-4.6611,-4.6946,-4.7185,-4.7476,-4.7795,-4.7892,-4.7483,-4.6833,-4.6291,-4.6003,-4.5145,-4.4533,-4.4238,-4.3572,-4.2879,-4.2251,-4.1625,-4.0775,-3.9638,-3.8018,-3.6907,-3.6319,-3.4816,-3.4018,-3.3901,-3.3077,-3.2084,-3.0999,-3.147,-3.1418,-3.0999,-3.1235,-3.1196,-3.0986,-3.0986,-3.0911,-3.0849,-3.0949,-3.0911,-3.0811,-3.0811,-3.0811,-3.0811,-3.0811,-3.0911,-3.0986,-3.0986,-3.0911,-3.0849,-3.0949,-3.0911,-3.0849,-3.0986,-3.0911,-3.0849,-3.0986,-3.0911,-3.0849,-3.0986,-3.0986,-3.0986,-3.0986,-3.0986,-3.0986,-3.0986,-3.0986,-3.0986,-3.0986,-3.1259,-3.1334,-3.1048,-3.1061,-3.0834,-3.0131,-2.9874,-2.972,-2.9653,-3.033,-3.1059,-3.1676,-3.2288,-3.2716,-3.2832,-3.244,-3.2614,-3.3407,-3.322,-3.3786,-3.5173,-3.4923,-3.4923,-3.5173,-3.5398,-3.5504,-3.5504,-3.5504,-3.5504,-3.5504,-3.5504,-3.5504,-3.5504,-3.5504,-3.5504,-3.5504,-3.5504,-3.5504,-3.5504,-3.5504,-3.5504,-3.5504,-4.4449,-4.4247,-4.4395,-4.5661,-4.5719,-4.5827,-4.6499,-4.634,-4.611,-4.6039,-4.6289,-4.6485,-4.6256,-4.5378,-4.483,-4.4853,-4.3756,-4.3109,-4.3284,-4.2514,-4.2044,-4.1925,-4.1363,-4.0592,-3.9625,-3.8488,-3.7442,-3.6502,-3.509,-3.4358,-3.4254,-3.2842,-3.1757,-3.0986,-3.0986,-3.0986,-3.0986,-3.0986,-3.0986,-3.0986,-3.0949,-3.0849,-3.0736,-3.0836,-3.0798,-3.0609,-3.0698,-3.066,-3.0609,-3.0609,-3.0723,-3.0823,-3.0949,-3.0836,-3.0736,-3.0874,-3.0811,-3.0736,-3.0874,-3.0811,-3.0736,-3.0874,-3.0811,-3.0736,-3.0874,-3.0949,-3.0986,-3.0986,-3.0986,-3.0986,-3.0986,-3.0986,-3.0986,-3.0986,-3.0986,-3.0986,-3.0986,-3.0986,-3.062,-2.964,-2.9536,-2.9301,-2.8734,-2.951,-3.0327,-3.0907,-3.0699,-3.0992,-3.2055,-3.1801,-3.2014,-3.278,-3.2588,-3.2984,-3.3959,-3.3973,-3.3973,-3.3973,-3.4558,-3.4935,-3.5166,-3.5392,-3.5504,-3.5504,-3.5504,-3.5504,-3.5504,-3.5504,-3.5504,-3.5504,-3.5504,-3.5504,-3.5504,-3.5504,-3.5504,-3.5504,-4.4111,-4.4414,-4.4606,-4.4631,-4.5317,-4.574,-4.5195,-4.5406,-4.5464,-4.5164,-4.4896,-4.4707,-4.4707,-4.425,-4.3698,-4.3092,-4.2516,-4.211,-4.1828,-4.1828,-4.1671,-4.135,-4.0749,-4.0174,-3.9625,-3.8488,-3.705,-3.5312,-3.4698,-3.3535,-3.1836,-3.1274,-3.0999,-3.0986,-3.0986,-3.0986,-3.0986,-3.0986,-3.0986,-3.0986,-3.0773,-3.0698,-3.0698,-3.0698,-3.0571,-3.0444,-3.0622,-3.0571,-3.0406,-3.0406,-3.0406,-3.0482,-3.0861,-3.0836,-3.0698,-3.0698,-3.0698,-3.0698,-3.0698,-3.0698,-3.0698,-3.0698,-3.0698,-3.0698,-3.0698,-3.0836,-3.0986,-3.0986,-3.0986,-3.0986,-3.0986,-3.0986,-3.0986,-3.0986,-3.0986,-3.0986,-3.0986,-3.0986,-3.0764,-3.0153,-3.0087,-2.9902,-2.9327,-2.931,-2.9614,-3.0358,-2.9169,-2.9308,-3.1326,-3.1895,-3.1951,-3.1448,-3.2567,-3.3213,-3.3213,-3.3213,-3.3213,-3.3213,-3.3213,-3.3596,-3.4346,-3.5133,-3.5504,-3.5504,-3.5504,-3.5504,-3.5504,-3.5504,-3.5504,-3.5504,-3.5504,-3.5504,-3.5504,-3.5504,-3.5504,-3.5504,-4.5112,-4.5154,-4.5083,-4.4694,-4.4827,-4.4948,-4.4772,-4.4535,-4.4352,-4.4238,-4.3803,-4.3561,-4.3561,-4.3246,-4.3003,-4.2974,-4.1985,-4.1372,-4.1505,-4.1145,-4.0849,-4.077,-4.0577,-4.0022,-3.9068,-3.8694,-3.7756,-3.6171,-3.5425,-3.4203,-3.2542,-3.2523,-3.2005,-3.1126,-3.0904,-3.0811,-3.0811,-3.0811,-3.0811,-3.0811,-3.0736,-3.0546,-3.0318,-3.0457,-3.0381,-3.019,-3.0279,-3.0228,-3.019,-3.019,-3.019,-3.0228,-3.052,-3.0457,-3.0305,-3.0457,-3.0419,-3.0305,-3.0457,-3.0381,-3.0407,-3.0933,-3.0663,-3.0407,-3.0945,-3.1203,-3.1318,-3.1164,-3.1682,-3.1876,-3.0954,-3.1199,-3.1444,-3.1052,-3.0986,-3.0986,-3.0986,-3.0986,-3.0777,-3.0166,-3.01,-2.9879,-2.934,-2.9627,-2.9922,-3.0196,-3.0178,-3.0466,-3.1233,-3.0591,-3.0732,-3.1844,-3.1766,-3.1955,-3.2448,-3.2434,-3.2434,-3.247,-3.2967,-3.3596,-3.4312,-3.4576,-3.4986,-3.5504,-3.5504,-3.5504,-3.5504,-3.5504,-3.5504,-3.5504,-3.5504,-3.5504,-3.5504,-3.5504,-3.5504,-3.5504,-4.4957,-4.502,-4.492,-4.4141,-4.4179,-4.4242,-4.4041,-4.3539,-4.3187,-4.3187,-4.2942,-4.2728,-4.2728,-4.2536,-4.241,-4.2344,-4.1197,-4.0603,-4.0913,-4.053,-4.0389,-4.0504,-4.0299,-3.9748,-3.88,-3.8582,-3.7856,-3.649,-3.532,-3.4105,-3.2877,-3.281,-3.2206,-3.1188,-3.0958,-3.0778,-3.0584,-3.0584,-3.07,-3.0894,-3.0817,-3.0624,-3.0431,-3.0534,-3.0342,-3.0011,-3.0075,-3.0049,-3.001,-3.0212,-3.0288,-3.0352,-3.0659,-3.0544,-3.0276,-3.0292,-3.019,-3.0164,-3.0509,-3.0356,-3.0304,-3.1172,-3.0877,-3.0571,-3.1315,-3.1588,-3.1667,-3.1522,-3.2002,-3.2187,-3.1332,-3.1474,-3.1577,-3.1251,-3.1017,-3.0874,-3.0874,-3.0874,-3.0743,-3.0355,-3.0377,-3.0283,-2.9858,-2.9973,-3.0064,-2.9978,-3.0218,-3.0487,-3.0771,-3.027,-3.0378,-3.1328,-3.1117,-3.1222,-3.1676,-3.1713,-3.1713,-3.1713,-3.2448,-3.3038,-3.3463,-3.3754,-3.4293,-3.5052,-3.5052,-3.5213,-3.5504,-3.5504,-3.5504,-3.5504,-3.5504,-3.5504,-3.5504,-3.5504,-3.5504,-3.5504,-4.3966,-4.4267,-4.4279,-4.3225,-4.3426,-4.3576,-4.3062,-4.2564,-4.2225,-4.2263,-4.22,-4.2162,-4.2213,-4.2137,-4.1831,-4.1275,-4.0337,-3.9825,-4.0083,-4.0083,-4.0185,-4.0453,-3.9916,-3.934,-3.8751,-3.8213,-3.7382,-3.623,-3.4592,-3.3517,-3.2951,-3.2311,-3.1736,-3.1277,-3.1252,-3.0971,-3.0484,-3.0484,-3.0791,-3.1226,-3.1042,-3.0936,-3.0923,-3.0923,-3.0489,-2.9943,-3.0125,-3.0086,-2.998,-3.0495,-3.067,-3.0758,-3.1235,-3.106,-3.0597,-3.0226,-3.0138,-3.0253,-3.0733,-3.0518,-3.0455,-3.1493,-3.1367,-3.1153,-3.1862,-3.2017,-3.203,-3.2017,-3.2056,-3.2096,-3.2019,-3.1756,-3.1513,-3.1474,-3.1035,-3.0698,-3.0698,-3.0698,-3.0698,-3.0698,-3.0836,-3.0911,-3.0698,-3.0368,-3.0079,-2.987,-2.9585,-2.9627,-3.0127,-3.0699,-3.0751,-3.0179,-3.0712,-3.0986,-3.0986,-3.0986,-3.0986,-3.1024,-3.1713,-3.2051,-3.211,-3.2791,-3.3526,-3.423,-3.423,-3.4691,-3.5439,-3.5439,-3.5439,-3.5504,-3.5504,-3.5504,-3.5504,-3.5504,-3.5504,-3.5504,-4.4543,-4.4531,-4.4405,-4.3727,-4.3363,-4.3124,-4.2999,-4.2564,-4.2363,-4.2791,-4.2057,-4.1693,-4.2162,-4.1404,-4.0852,-4.0727,-4.0475,-4.0136,-3.9813,-3.9788,-3.9839,-3.9903,-3.936,-3.8793,-3.8212,-3.7657,-3.6837,-3.568,-3.5053,-3.4413,-3.3656,-3.2798,-3.2253,-3.1965,-3.1683,-3.1498,-3.1383,-3.1383,-3.146,-3.1587,-3.1546,-3.1413,-3.1279,-3.1279,-3.1163,-3.1009,-3.109,-3.105,-3.1035,-3.116,-3.121,-3.1223,-3.1348,-3.1298,-3.1097,-3.061,-3.0498,-3.0524,-3.0662,-3.0889,-3.1254,-3.1933,-3.1967,-3.1946,-3.2113,-3.2317,-3.2399,-3.218,-3.2771,-3.2976,-3.197,-3.1877,-3.1819,-3.1369,-3.0817,-3.0482,-3.0482,-3.0482,-3.0482,-3.0482,-3.0647,-3.0685,-3.0482,-3.0531,-3.0528,-3.0491,-3.0412,-3.0498,-3.0777,-3.0771,-3.0784,-3.079,-3.0921,-3.0986,-3.0986,-3.0986,-3.0986,-3.0986,-3.1198,-3.1566,-3.211,-3.229,-3.2755,-3.3457,-3.3457,-3.3871,-3.4576,-3.4576,-3.4953,-3.5504,-3.5504,-3.5504,-3.5504,-3.5504,-3.5504,-3.5504,-4.3928,-4.3878,-4.3777,-4.3476,-4.3175,-4.2974,-4.2974,-4.2564,-4.2225,-4.2221,-4.1652,-4.13,-4.1404,-4.1103,-4.0789,-4.0538,-4.0287,-4.0011,-3.971,-3.9697,-3.9697,-3.9697,-3.8906,-3.8329,-3.8015,-3.7211,-3.6508,-3.5918,-3.5516,-3.4916,-3.4261,-3.3481,-3.2802,-3.2202,-3.1996,-3.1801,-3.1562,-3.1562,-3.1713,-3.194,-3.194,-3.1858,-3.1763,-3.1763,-3.1612,-3.1386,-3.1386,-3.1386,-3.1436,-3.1675,-3.1763,-3.1813,-3.2077,-3.1976,-3.1712,-3.1424,-3.1173,-3.1022,-3.1273,-3.1361,-3.1524,-3.2077,-3.2416,-3.2604,-3.2604,-3.2731,-3.2786,-3.2646,-3.3055,-3.3208,-3.2487,-3.2092,-3.1809,-3.149,-3.079,-3.0254,-3.0254,-3.0254,-3.0254,-3.0254,-3.0457,-3.0495,-3.0292,-3.0457,-3.0533,-3.0432,-3.0495,-3.0763,-3.1187,-3.1035,-3.0957,-3.0999,-3.1159,-3.1251,-3.1378,-3.164,-3.164,-3.1378,-3.1378,-3.1448,-3.1603,-3.1603,-3.1992,-3.2684,-3.2684,-3.3108,-3.3837,-3.4177,-3.4562,-3.4986,-3.5359,-3.5504,-3.5504,-3.5504,-3.5504,-3.5504,-4.3099,-4.3099,-4.3099,-4.3099,-4.3037,-4.2974,-4.2974,-4.2489,-4.1894,-4.1517,-4.1188,-4.094,-4.0563,-4.0811,-4.0902,-4.0438,-3.9961,-3.9697,-3.9697,-3.9697,-3.9697,-3.9697,-3.8693,-3.809,-3.8002,-3.6923,-3.6405,-3.6405,-3.5818,-3.5257,-3.4793,-3.4274,-3.347,-3.2466,-3.2466,-3.2164,-3.165,-3.165,-3.1913,-3.234,-3.234,-3.234,-3.234,-3.234,-3.2051,-3.165,-3.165,-3.165,-3.1712,-3.219,-3.234,-3.2428,-3.2918,-3.2742,-3.234,-3.234,-3.2014,-3.1725,-3.2102,-3.1938,-3.1763,-3.2227,-3.2717,-3.3124,-3.3124,-3.3124,-3.3124,-3.3124,-3.3124,-3.3124,-3.3124,-3.229,-3.1655,-3.1655,-3.0759,-3.0049,-3.0049,-3.0049,-3.0075,-3.0163,-3.0343,-3.042,-3.0316,-3.0471,-3.0509,-3.0367,-3.0509,-3.0868,-3.1526,-3.1369,-3.1228,-3.1147,-3.1422,-3.1682,-3.1889,-3.2411,-3.245,-3.1941,-3.1941,-3.1628,-3.1117,-3.1117,-3.1413,-3.1942,-3.1942,-3.234,-3.3073,-3.3719,-3.4095,-3.438,-3.5052,-3.5392,-3.5504,-3.5359,-3.5392,-3.5472,-4.3677,-4.3677,-4.3677,-4.3677,-4.3288,-4.2974,-4.2974,-4.212,-4.1605,-4.2037,-4.0814,-4.0099,-4.0475,-4.0174,-3.991,-3.9823,-3.9747,-3.9697,-3.9697,-3.9697,-3.9697,-3.9697,-3.9082,-3.8504,-3.8015,-3.6923,-3.6405,-3.6405,-3.5818,-3.5458,-3.5357,-3.4806,-3.4248,-3.3646,-3.3646,-3.3332,-3.286,-3.286,-3.2867,-3.2943,-3.2943,-3.2943,-3.2943,-3.2943,-3.2893,-3.286,-3.286,-3.286,-3.283,-3.2918,-3.2943,-3.2998,-3.3056,-3.3061,-3.2943,-3.2943,-3.288,-3.2729,-3.2328,-3.2503,-3.2872,-3.2918,-3.3048,-3.3124,-3.3124,-3.3124,-3.3124,-3.3124,-3.3124,-3.3124,-3.3124,-3.2194,-3.1439,-3.1439,-3.0534,-2.9869,-2.9869,-2.9869,-2.9994,-3.0471,-3.0707,-3.0923,-3.1178,-3.139,-3.1483,-3.1443,-3.1483,-3.1629,-3.1906,-3.1718,-3.168,-3.183,-3.1907,-3.2039,-3.2291,-3.258,-3.2646,-3.2555,-3.2555,-3.2267,-3.1667,-3.1667,-3.1482,-3.1161,-3.1161,-3.1603,-3.229,-3.2384,-3.3164,-3.4312,-3.4461,-3.4905,-3.5439,-3.4725,-3.4905,-3.5392,-4.3363,-4.3363,-4.3363,-4.3363,-4.315,-4.2974,-4.2974,-4.2296,-4.1769,-4.1718,-4.0789,-4.0124,-4.0074,-3.9848,-3.9697,-3.9697,-3.9697,-3.9697,-3.9697,-3.9697,-3.9697,-3.9697,-3.8868,-3.8002,-3.7149,-3.6669,-3.6405,-3.6405,-3.6107,-3.583,-3.5495,-3.5245,-3.4818,-3.4349,-3.4349,-3.4198,-3.396,-3.396,-3.3796,-3.352,-3.352,-3.352,-3.3483,-3.3194,-3.3445,-3.3884,-3.3294,-3.3269,-3.347,-3.3224,-3.3269,-3.352,-3.352,-3.352,-3.352,-3.352,-3.3307,-3.3081,-3.3106,-3.3319,-3.352,-3.352,-3.352,-3.3445,-3.3187,-3.3124,-3.3124,-3.3124,-3.3319,-3.3432,-3.3131,-3.239,-3.1838,-3.1838,-3.0683,-2.9892,-3.0193,-3.0231,-3.0331,-3.0583,-3.0939,-3.1244,-3.1361,-3.148,-3.1521,-3.1521,-3.1521,-3.1782,-3.2291,-3.2098,-3.2225,-3.2737,-3.2593,-3.2703,-3.3122,-3.334,-3.3307,-3.2955,-3.3129,-3.2712,-3.1797,-3.1797,-3.1522,-3.0986,-3.0986,-3.1185,-3.1529,-3.1942,-3.2492,-3.3164,-3.3547,-3.3919,-3.4221,-3.3837,-3.3953,-3.4254,-4.2974,-4.2974,-4.2974,-4.2974,-4.2974,-4.2936,-4.2798,-4.2376,-4.1769,-4.1163,-4.0664,-4.0162,-3.9735,-3.9697,-3.9697,-3.9697,-3.9697,-3.9697,-3.9697,-3.9697,-3.9697,-3.9697,-3.8617,-3.755,-3.6619,-3.6468,-3.6405,-3.6405,-3.6405,-3.6144,-3.5683,-3.5683,-3.5395,-3.4868,-3.4868,-3.4806,-3.468,-3.468,-3.4474,-3.4085,-3.4085,-3.4085,-3.4048,-3.3621,-3.3985,-3.4568,-3.3759,-3.3658,-3.3859,-3.3558,-3.3658,-3.3922,-3.4048,-3.4085,-3.4085,-3.4085,-3.3796,-3.3558,-3.3972,-3.4085,-3.4085,-3.4085,-3.4085,-3.3985,-3.3558,-3.3458,-3.3458,-3.3458,-3.3796,-3.396,-3.3533,-3.2893,-3.2416,-3.2416,-3.1148,-3.0319,-3.0733,-3.0796,-3.0846,-3.0972,-3.1336,-3.1637,-3.1763,-3.1775,-3.1775,-3.1775,-3.1775,-3.2047,-3.2697,-3.25,-3.2701,-3.33,-3.3131,-3.3219,-3.3641,-3.3894,-3.3814,-3.3387,-3.3606,-3.3207,-3.2202,-3.2058,-3.1797,-3.1365,-3.1066,-3.0989,-3.1156,-3.1582,-3.1882,-3.2074,-3.2648,-3.3003,-3.3178,-3.2932,-3.3003,-3.3262,-4.2974,-4.2974,-4.2974,-4.2974,-4.2974,-4.2798,-4.2351,-4.1756,-4.115,-4.0651,-4.0099,-3.9735,-3.9697,-3.9697,-3.9697,-3.9697,-3.9697,-3.9697,-3.9697,-3.9697,-3.9697,-3.9697,-3.8617,-3.7726,-3.7136,-3.6669,-3.6405,-3.6405,-3.6405,-3.6392,-3.6342,-3.6342,-3.6006,-3.5445,-3.5445,-3.5157,-3.468,-3.468,-3.47,-3.4618,-3.4618,-3.4618,-3.4663,-3.4613,-3.465,-3.4668,-3.4625,-3.4299,-3.3972,-3.4449,-3.4286,-3.3985,-3.45,-3.4618,-3.4618,-3.4618,-3.4625,-3.4613,-3.465,-3.4618,-3.4618,-3.4618,-3.4618,-3.465,-3.4613,-3.46,-3.46,-3.46,-3.4625,-3.465,-3.4613,-3.3734,-3.3018,-3.3018,-3.2026,-3.1286,-3.1336,-3.1336,-3.1524,-3.2039,-3.2127,-3.2365,-3.2905,-3.2955,-3.2955,-3.2955,-3.2955,-3.3011,-3.3048,-3.3061,-3.3074,-3.3124,-3.3275,-3.339,-3.3441,-3.3641,-3.3827,-3.4011,-3.4053,-3.3825,-3.3443,-3.2881,-3.2607,-3.2502,-3.1266,-3.1021,-3.1435,-3.0968,-3.1222,-3.1833,-3.1869,-3.2434,-3.3073,-3.2218,-3.2434,-3.3108,-4.2911,-4.2974,-4.2974,-4.2974,-4.2698,-4.2451,-4.2238,-4.1404,-4.0752,-4.0538,-4.0036,-3.9697,-3.9697,-3.9697,-3.9697,-3.9697,-3.9697,-3.9697,-3.9697,-3.9697,-3.9534,-3.9195,-3.8429,-3.7751,-3.7199,-3.6681,-3.6405,-3.6405,-3.6405,-3.6405,-3.6405,-3.6405,-3.6304,-3.6056,-3.6056,-3.5931,-3.5742,-3.5742,-3.5542,-3.5194,-3.5194,-3.5194,-3.5144,-3.4806,-3.514,-3.5642,-3.4964,-3.4756,-3.4856,-3.4718,-3.4768,-3.4906,-3.5119,-3.5194,-3.5194,-3.5194,-3.5194,-3.5257,-3.5642,-3.5491,-3.5194,-3.5194,-3.5194,-3.5094,-3.4801,-3.468,-3.468,-3.468,-3.4944,-3.5082,-3.4743,-3.4374,-3.4098,-3.4098,-3.3169,-3.2428,-3.2428,-3.2428,-3.2378,-3.2227,-3.2528,-3.283,-3.3056,-3.3124,-3.3124,-3.3124,-3.3124,-3.3124,-3.3124,-3.3124,-3.3124,-3.3124,-3.3154,-3.3197,-3.3197,-3.3398,-3.3569,-3.3654,-3.3768,-3.3611,-3.3165,-3.3055,-3.2838,-3.2474,-3.198,-3.1656,-3.1474,-3.1139,-3.0983,-3.0934,-3.0934,-3.1158,-3.1405,-3.1046,-3.1233,-3.1676,-4.2665,-4.2778,-4.2828,-4.2949,-4.2577,-4.215,-4.1932,-4.1116,-4.045,-4.0275,-3.9936,-3.9697,-3.9697,-3.9697,-3.9697,-3.9697,-3.9697,-3.9697,-3.9697,-3.9697,-3.9446,-3.8944,-3.8492,-3.8015,-3.745,-3.6958,-3.6669,-3.6669,-3.6493,-3.6405,-3.6405,-3.6405,-3.6405,-3.6405,-3.6405,-3.6405,-3.6405,-3.6405,-3.6144,-3.5805,-3.5805,-3.5805,-3.5755,-3.5378,-3.5705,-3.6317,-3.5504,-3.5366,-3.547,-3.5303,-3.5332,-3.552,-3.5696,-3.5805,-3.5805,-3.5805,-3.5805,-3.5881,-3.6304,-3.6094,-3.5805,-3.5805,-3.5805,-3.5705,-3.5328,-3.524,-3.524,-3.524,-3.5542,-3.568,-3.5303,-3.5102,-3.4931,-3.4931,-3.4198,-3.3596,-3.3596,-3.3596,-3.3445,-3.3043,-3.3357,-3.3596,-3.3596,-3.3596,-3.352,-3.3345,-3.3332,-3.3257,-3.3124,-3.3124,-3.3124,-3.3124,-3.3124,-3.3124,-3.3124,-3.324,-3.3356,-3.3398,-3.3556,-3.3449,-3.3162,-3.3119,-3.2995,-3.2763,-3.2375,-3.2052,-3.182,-3.1316,-3.0906,-3.0535,-3.0369,-3.033,-3.0406,-3.033,-3.0419,-3.0685,-4.2087,-4.22,-4.2376,-4.2873,-4.2564,-4.1957,-4.1417,-4.0865,-4.0312,-3.9772,-3.9697,-3.9697,-3.9697,-3.9697,-3.9697,-3.9697,-3.9697,-3.9697,-3.9697,-3.9697,-3.9446,-3.8957,-3.8919,-3.8605,-3.8027,-3.7475,-3.7199,-3.7199,-3.6681,-3.6417,-3.6417,-3.6405,-3.6405,-3.6405,-3.6405,-3.6405,-3.6405,-3.6405,-3.6405,-3.6405,-3.6405,-3.6405,-3.6405,-3.6405,-3.6405,-3.6405,-3.6405,-3.6019,-3.5596,-3.6182,-3.5994,-3.5596,-3.6194,-3.6405,-3.6405,-3.6417,-3.6405,-3.6405,-3.6417,-3.6417,-3.6417,-3.6405,-3.6405,-3.6417,-3.6417,-3.6417,-3.6417,-3.6417,-3.6417,-3.6417,-3.6405,-3.5918,-3.5508,-3.5508,-3.5044,-3.4726,-3.4726,-3.4726,-3.468,-3.468,-3.468,-3.468,-3.468,-3.468,-3.45,-3.3947,-3.3897,-3.3658,-3.3106,-3.3124,-3.3124,-3.3124,-3.3124,-3.3081,-3.3124,-3.3124,-3.3197,-3.3398,-3.3398,-3.3513,-3.37,-3.3133,-3.3171,-3.3606,-3.2314,-3.2066,-3.2514,-3.1381,-3.0925,-3.0861,-3.0316,-3.0241,-3.0381,-3.0203,-3.0228,-3.0406,-4.148,-4.158,-4.163,-4.1794,-4.1367,-4.0953,-4.0789,-4.0287,-3.9885,-3.9722,-3.9697,-3.9697,-3.9697,-3.9697,-3.9697,-3.9697,-3.9697,-3.9697,-3.9697,-3.9697,-3.9622,-3.9459,-3.9082,-3.8844,-3.8617,-3.8052,-3.7764,-3.7764,-3.7211,-3.6935,-3.6923,-3.6593,-3.6405,-3.6405,-3.6405,-3.6405,-3.6405,-3.6405,-3.6405,-3.6405,-3.6405,-3.6405,-3.6405,-3.6405,-3.6405,-3.6405,-3.6405,-3.6304,-3.6144,-3.6355,-3.6304,-3.6144,-3.6355,-3.6405,-3.648,-3.687,-3.6707,-3.6493,-3.6883,-3.6935,-3.6895,-3.6505,-3.6694,-3.6935,-3.6935,-3.7236,-3.7412,-3.7023,-3.6935,-3.687,-3.648,-3.6267,-3.6119,-3.6119,-3.5981,-3.5742,-3.5307,-3.5257,-3.5107,-3.4718,-3.468,-3.468,-3.468,-3.468,-3.4605,-3.4487,-3.4123,-3.3822,-3.3658,-3.3658,-3.3658,-3.3658,-3.3658,-3.347,-3.3124,-3.3124,-3.3111,-3.3197,-3.3197,-3.324,-3.327,-3.3276,-3.3331,-3.3458,-3.3085,-3.2777,-3.2577,-3.2028,-3.1581,-3.1216,-3.1092,-3.1069,-3.1059,-3.0613,-3.0593,-3.0712,-4.0902,-4.0962,-4.1025,-4.125,-4.0837,-4.0513,-4.0513,-4.0049,-3.9697,-3.9697,-3.9697,-3.9697,-3.9697,-3.9697,-3.9697,-3.9697,-3.9697,-3.9697,-3.9697,-3.9697,-3.9697,-3.9697,-3.9371,-3.9195,-3.9195,-3.8642,-3.8354,-3.8354,-3.7776,-3.7513,-3.75,-3.6996,-3.6857,-3.6998,-3.6606,-3.6531,-3.6719,-3.6505,-3.6531,-3.6719,-3.6505,-3.6669,-3.6985,-3.682,-3.687,-3.701,-3.701,-3.701,-3.6973,-3.6807,-3.6732,-3.6769,-3.6996,-3.701,-3.7073,-3.7412,-3.7274,-3.7086,-3.7425,-3.7513,-3.7425,-3.7098,-3.7262,-3.7513,-3.7513,-3.7764,-3.7914,-3.7575,-3.7513,-3.7412,-3.7073,-3.6883,-3.6732,-3.6732,-3.6556,-3.6292,-3.5918,-3.5868,-3.5742,-3.5416,-3.5366,-3.5366,-3.5366,-3.5366,-3.5278,-3.5019,-3.4537,-3.4223,-3.4223,-3.4223,-3.4223,-3.4223,-3.4223,-3.396,-3.3407,-3.3407,-3.3294,-3.3124,-3.3124,-3.3124,-3.3124,-3.324,-3.3283,-3.3283,-3.3283,-3.3093,-3.2752,-3.2357,-3.2014,-3.17,-3.1474,-3.1386,-3.1336,-3.0809,-3.0687,-3.0718,-4.0337,-4.0438,-4.0601,-4.105,-4.0724,-4.0438,-4.0438,-4.0011,-3.9697,-3.9697,-3.9697,-3.9697,-3.9697,-3.9697,-3.9697,-3.9697,-3.9697,-3.9697,-3.9697,-3.9697,-3.9697,-3.9697,-3.9697,-3.9697,-3.9697,-3.9195,-3.8994,-3.8994,-3.8366,-3.809,-3.8065,-3.7513,-3.7525,-3.7965,-3.7008,-3.6784,-3.7224,-3.6769,-3.6845,-3.7211,-3.6757,-3.7111,-3.7952,-3.745,-3.7563,-3.8002,-3.8002,-3.8002,-3.7939,-3.7425,-3.7262,-3.7349,-3.7852,-3.8002,-3.8015,-3.8065,-3.8052,-3.8015,-3.8065,-3.809,-3.809,-3.809,-3.8115,-3.814,-3.809,-3.8128,-3.814,-3.809,-3.809,-3.8065,-3.8015,-3.76,-3.7249,-3.7199,-3.6807,-3.6468,-3.6417,-3.6405,-3.6405,-3.6405,-3.6405,-3.6405,-3.6405,-3.6405,-3.6132,-3.5545,-3.5031,-3.4756,-3.4756,-3.4756,-3.4756,-3.4756,-3.4756,-3.4525,-3.3985,-3.3972,-3.3671,-3.3124,-3.3124,-3.3124,-3.3124,-3.3124,-3.3124,-3.3124,-3.3124,-3.3124,-3.3074,-3.2503,-3.229,-3.224,-3.1738,-3.1537,-3.1474,-3.0947,-3.0721,-3.0608,-3.9848,-3.9873,-3.991,-4.0036,-3.9948,-3.9873,-3.9873,-3.9772,-3.9697,-3.9697,-3.9697,-3.9697,-3.9697,-3.9697,-3.9697,-3.9697,-3.9697,-3.9697,-3.9697,-3.9697,-3.9697,-3.9697,-3.9697,-3.9697,-3.9697,-3.9584,-3.9521,-3.9521,-3.8956,-3.868,-3.8668,-3.8103,-3.7889,-3.8002,-3.7764,-3.7713,-3.7814,-3.7701,-3.7713,-3.7814,-3.7701,-3.7789,-3.799,-3.7877,-3.7902,-3.8002,-3.8002,-3.8002,-3.799,-3.7864,-3.7826,-3.7852,-3.7965,-3.8002,-3.809,-3.8555,-3.8366,-3.8103,-3.8567,-3.868,-3.868,-3.868,-3.9007,-3.922,-3.8781,-3.9019,-3.9207,-3.8768,-3.868,-3.8542,-3.809,-3.7902,-3.7688,-3.7262,-3.7086,-3.6908,-3.6468,-3.6405,-3.6405,-3.6405,-3.6405,-3.6405,-3.6405,-3.6405,-3.6132,-3.5545,-3.5395,-3.532,-3.532,-3.532,-3.532,-3.532,-3.532,-3.5056,-3.455,-3.455,-3.4048,-3.3124,-3.3124,-3.3124,-3.3124,-3.3124,-3.3124,-3.3124,-3.3124,-3.3124,-3.3111,-3.2943,-3.288,-3.288,-3.2797,-3.2717,-3.2641,-3.2077,-3.1599,-3.1085,-3.9747,-3.9697,-3.9697,-3.9697,-3.9697,-3.9697,-3.9697,-3.9697,-3.9697,-3.9697,-3.9697,-3.9697,-3.9697,-3.9697,-3.9697,-3.9697,-3.9697,-3.9697,-3.9697,-3.9697,-3.9697,-3.9697,-3.9697,-3.9697,-3.9697,-3.9697,-3.9697,-3.9697,-3.9408,-3.927,-3.9245,-3.868,-3.8567,-3.8793,-3.8253,-3.8165,-3.8404,-3.8128,-3.8165,-3.8391,-3.8115,-3.8329,-3.8781,-3.8517,-3.858,-3.8806,-3.8806,-3.8642,-3.8467,-3.8718,-3.863,-3.8467,-3.873,-3.8806,-3.8868,-3.917,-3.9044,-3.8881,-3.9182,-3.927,-3.927,-3.927,-3.9484,-3.9622,-3.9333,-3.9484,-3.9609,-3.932,-3.927,-3.917,-3.8868,-3.8592,-3.8329,-3.804,-3.7764,-3.7374,-3.6883,-3.6807,-3.6707,-3.6443,-3.6405,-3.6405,-3.6405,-3.6405,-3.6292,-3.5956,-3.5931,-3.5931,-3.5931,-3.5931,-3.5931,-3.5931,-3.5931,-3.5667,-3.5069,-3.5069,-3.4688,-3.3859,-3.3859,-3.3859,-3.3847,-3.3583,-3.347,-3.3458,-3.3194,-3.3124,-3.3124,-3.3124,-3.3124,-3.3124,-3.3124,-3.3124,-3.3048,-3.2428,-3.17,-3.0947,-3.9785,-3.9697,-3.9697,-3.9697,-3.9697,-3.9697,-3.9697,-3.9697,-3.9697,-3.9697,-3.9697,-3.9697,-3.9697,-3.9697,-3.9697,-3.9697,-3.9697,-3.9697,-3.9697,-3.9697,-3.9697,-3.9697,-3.9697,-3.9697,-3.9697,-3.9697,-3.9697,-3.9697,-3.9697,-3.9697,-3.9685,-3.922,-3.9258,-3.9647,-3.8718,-3.8567,-3.8981,-3.8504,-3.8567,-3.8969,-3.8492,-3.8856,-3.9647,-3.9182,-3.9295,-3.9697,-3.9697,-3.9396,-3.9082,-3.9534,-3.9383,-3.9094,-3.9546,-3.9697,-3.9697,-3.9697,-3.9697,-3.9697,-3.9697,-3.9697,-3.9697,-3.9697,-3.9697,-3.9697,-3.9697,-3.9697,-3.9697,-3.9697,-3.9697,-3.9697,-3.9697,-3.932,-3.9032,-3.8881,-3.8467,-3.7965,-3.74,-3.7324,-3.7149,-3.6744,-3.6606,-3.6556,-3.6556,-3.6468,-3.6405,-3.6405,-3.6405,-3.6405,-3.6405,-3.6405,-3.6405,-3.6405,-3.6405,-3.6144,-3.5646,-3.5633,-3.5454,-3.5002,-3.5002,-3.4901,-3.4655,-3.4248,-3.3985,-3.3872,-3.342,-3.3169,-3.3124,-3.3124,-3.3124,-3.3124,-3.3124,-3.3124,-3.3048,-3.2428,-3.1587,-3.0733,-3.971,-3.9697,-3.9697,-3.9697,-3.9697,-3.9697,-3.9697,-3.9697,-3.9697,-3.9697,-3.9697,-3.9697,-3.9697,-3.9697,-3.9697,-3.9697,-3.9697,-3.9697,-3.9697,-3.9697,-3.9697,-3.9697,-3.9697,-3.9697,-3.9697,-3.9697,-3.9697,-3.9697,-3.9697,-3.9697,-3.9697,-3.9622,-3.9622,-3.9685,-3.9534,-3.9509,-3.9584,-3.9496,-3.9509,-3.9572,-3.9496,-3.9559,-3.9685,-3.9609,-3.9634,-3.9697,-3.9697,-3.9647,-3.9597,-3.9672,-3.9647,-3.9597,-3.9672,-3.9697,-3.9697,-3.9697,-3.9697,-3.9697,-3.9697,-3.9697,-3.9697,-3.9697,-3.9697,-3.9697,-3.9697,-3.9697,-3.9697,-3.9697,-3.9697,-3.9697,-3.9697,-3.9634,-3.9421,-3.8994,-3.8856,-3.8555,-3.7977,-3.7889,-3.7864,-3.7789,-3.7362,-3.7073,-3.7073,-3.6681,-3.6405,-3.6405,-3.6405,-3.6405,-3.6405,-3.6405,-3.6405,-3.6405,-3.6405,-3.6367,-3.6304,-3.6304,-3.6254,-3.6179,-3.6179,-3.5642,-3.468,-3.4605,-3.4349,-3.3897,-3.3822,-3.352,-3.3124,-3.3124,-3.3124,-3.3124,-3.3124,-3.3124,-3.3048,-3.2428,-3.1813,-3.1223,-3.9747,-3.9697,-3.9697,-3.9697,-3.9697,-3.9697,-3.9697,-3.9697,-3.9697,-3.9697,-3.9697,-3.9697,-3.9697,-3.9697,-3.9697,-3.9697,-3.9697,-3.9697,-3.9697,-3.9697,-3.9697,-3.9697,-3.9697,-3.9697,-3.9697,-3.9697,-3.9697,-3.9697,-3.9697,-3.9697,-3.9697,-3.9697,-3.9697,-3.9697,-3.9697,-3.9697,-3.9697,-3.9697,-3.9697,-3.9697,-3.9697,-3.9697,-3.9697,-3.9697,-3.9697,-3.9697,-3.9697,-3.9697,-3.9697,-3.9697,-3.9697,-3.9697,-3.9697,-3.9697,-3.9697,-3.9697,-3.9697,-3.9697,-3.9697,-3.9697,-3.9697,-3.9697,-3.9697,-3.9697,-3.9697,-3.9697,-3.9697,-3.9697,-3.9697,-3.9697,-3.9697,-3.9697,-3.9609,-3.9371,-3.9333,-3.9132,-3.8567,-3.8492,-3.8366,-3.804,-3.7789,-3.7525,-3.7211,-3.7008,-3.6732,-3.643,-3.6405,-3.6405,-3.6405,-3.6405,-3.6405,-3.6405,-3.6405,-3.6405,-3.6405,-3.6405,-3.6405,-3.6405,-3.6405,-3.6153,-3.5629,-3.5316,-3.4831,-3.4349,-3.4035,-3.3583,-3.3124,-3.3124,-3.3124,-3.3124,-3.3124,-3.3124,-3.3086,-3.2792,-3.234,-3.1813]},{"header":{"parameterUnit":"m.s-1","parameterCategory":1,"la1":30.6,"la2":28.766,"lo1":-90.7593,"lo2":-88.6598,"dy":0.0162,"dx":0.0183,"nx":116,"ny":114,"refTime":"2024-04-30T12:00:00:Z","depth":0,"parameterNumber":3,"parameterNumberName":"V-component_of_WINDS"},"data":[0.0,0.0,0.0,0.0,0.0,0.0,0.0,0.0,0.0,0.0,0.0,0.0,0.0,0.0,0.0,0.0,0.0,0.0,0.0,0.0,0.0,0.0,0.0,0.0,0.0,0.0,0.0,0.0,0.0,0.0,0.0,0.0,0.0,0.0,0.0,0.0,0.0,0.0,0.0,0.0,0.0,0.0,0.0,0.0,0.0,0.0,0.0,0.0,0.0,0.0,0.0,0.0,0.0,0.0,0.0,0.0,0.0,0.0,0.0,0.0,0.0,0.0,0.0,0.0,0.0,0.0,0.0,0.0,0.0,0.0,0.0,0.0,0.0,0.0,0.0,0.0,0.0,0.0,0.0,0.0,0.0,0.0,0.0,0.0,0.0,0.0,0.0,0.0,0.0,0.0,0.0,0.0,0.0,0.0,0.0,0.0,0.0,0.0,0.0,0.0,0.0,0.0,0.0,0.0,0.0,0.0,0.0,0.0,0.0,0.0,0.0,0.0,0.0,0.0,0.0,0.0,0.0,0.0,0.0,0.0,0.0,0.0,0.0,0.0,0.0,0.0,0.0,0.0,0.0,0.0,0.0,0.0,0.0,0.0,0.0,0.0,0.0,0.0,0.0,0.0,0.0,0.0,0.0,0.0,0.0,0.0,0.0,0.0,0.0,0.0,0.0,0.0,0.0,0.0,0.0,0.0,0.0,0.0,0.0,0.0,0.0,0.0,0.0,0.0,0.0,0.0,0.0,0.0,0.0,0.0,0.0,0.0,0.0,0.0,0.0,0.0,0.0,0.0,0.0,0.0,0.0,0.0,0.0,0.0,0.0,0.0,0.0,0.0,0.0,0.0,0.0,0.0,0.0,0.0,0.0,0.0,0.0,0.0,0.0,0.0,0.0,0.0,0.0,0.0,0.0,0.0,0.0,0.0,0.0,0.0,0.0,0.0,0.0,0.0,0.0,0.0,0.0,0.0,0.0,0.0,0.0,0.0,0.0,0.0,0.0,0.0,0.0,0.0,0.0,0.0,0.0,0.0,0.0,0.0,0.0,0.0,0.0,0.0,0.0,0.0,0.0,0.0,0.0,0.0,0.0,0.0,0.0,0.0,0.0,0.0,0.0,0.0,0.0,0.0,0.0,0.0,0.0,0.0,0.0,0.0,0.0,0.0,0.0,0.0,0.0,0.0,0.0,0.0,0.0,0.0,0.0,0.0,0.0,0.0,0.0,0.0,0.0,0.0,0.0,0.0,0.0,0.0,0.0,0.0,0.0,0.0,0.0,0.0,0.0,0.0,0.0,0.0,0.0,0.0,0.0,0.0,0.0,0.0,0.0,0.0,0.0,0.0,0.0,0.0,0.0,0.0,0.0,0.0,0.0,0.0,0.0,0.0,0.0,0.0,0.0,0.0,0.0,0.0,0.0,0.0,0.0,0.0,0.0,0.0,0.0,0.0,0.0,0.0,0.0,0.0,0.0,0.0,0.0,0.0,0.0,0.0,0.0,0.0,0.0,0.0,0.0,0.0,0.0,0.0,0.0,0.0,0.0,0.0,0.0,0.0,0.0,0.0,0.0,0.0,0.0,0.0,0.0,0.0,0.0,0.0,0.0,0.0,0.0,0.0,0.0,0.0,0.0,0.0,0.0,0.0,0.0,0.0,0.0,0.0,0.0,0.0,0.0,0.0,0.0,0.0,0.0,0.0,0.0,0.0,0.0,0.0,0.0,0.0,0.0,0.0,0.0,0.0,0.0,0.0,0.0,0.0,0.0,0.0,0.0,0.0,0.0,0.0,0.0,0.0,0.0,0.0,0.0,0.0,0.0,0.0,0.0,0.0,0.0,0.0,0.0,0.0,0.0,0.0,0.0,0.0,0.0,0.0,0.0,0.0,0.0,0.0,0.0,0.0,0.0,0.0,0.0,0.0,0.0,0.0,0.0,0.0,0.0,0.0,0.0,0.0,0.0,0.0,0.0,0.0,0.0,0.0,0.0,0.0,0.0,0.0,0.0,0.0,0.0,0.0,0.0,0.0,0.0,0.0,0.0,0.0,0.0,0.0,0.0,0.0,0.0,0.0,0.0,0.0,0.0,0.0,0.0,0.0,0.0,0.0,0.0,0.0,0.0,0.0,0.0,0.0,0.0,0.0,0.0,0.0,0.0,0.0,0.0,0.0,0.0,0.0,0.0,0.0,0.0,0.0,0.0,0.0,0.0,0.0,0.0,0.0,0.0,0.0,0.0,0.0,0.0,0.0,0.0,0.0,0.0,0.0,0.0,0.0,0.0,0.0,0.0,0.0,0.0,0.0,0.0,0.0,0.0,0.0,0.0,0.0,0.0,0.0,0.0,0.0,0.0,0.0,0.0,0.0,0.0,0.0,0.0,0.0,0.0,0.0,0.0,0.0,0.0,0.0,0.0,0.0,0.0,0.0,0.0,0.0,0.0,0.0,0.0,0.0,0.0,0.0,0.0,0.0,0.0,0.0,0.0,0.0,0.0,0.0,0.0,0.0,0.0,0.0,0.0,0.0,0.0,0.0,0.0,0.0,0.0,0.0,0.0,0.0,0.0,0.0,0.0,0.0,0.0,0.0,0.0,0.0,0.0,0.0,0.0,0.0,0.0,0.0,0.0,0.0,0.0,0.0,0.0,0.0,0.0,0.0,0.0,0.0,0.0,0.0,0.0,0.0,0.0,0.0,0.0,0.0,0.0,0.0,0.0,0.0,0.0,0.0,0.0,0.0,0.0,0.0,0.0,0.0,0.0,0.0,0.0,0.0,0.0,0.0,0.0,0.0,0.0,0.0,0.0,0.0,0.0,0.0,0.0,0.0,0.0,0.0,0.0,0.0,0.0,0.0,0.0,0.0,0.0,0.0,0.0,0.0,0.0,0.0,0.0,0.0,0.0,0.0,0.0,0.0,0.0,0.0,0.0,0.0,0.0,0.0,0.0,0.0,0.0,0.0,0.0,0.0,0.0,0.0,0.0,0.0,0.0,0.0,0.0,0.0,0.0,0.0,0.0,0.0,0.0,0.0,0.0,0.0,0.0,0.0,0.0,0.0,0.0,0.0,0.0,0.0,0.0,0.0,0.0,0.0,0.0,0.0,0.0,0.0,0.0,0.0,0.0,0.0,0.0,0.0,0.0,0.0,0.0,0.0,0.0,0.0,0.0,0.0,0.0,0.0,0.0,0.0,0.0,0.0,0.0,0.0,0.0,0.0,0.0,0.0,0.0,0.0,0.0,0.0,0.0,0.0,0.0,0.0,0.0,0.0,0.0,0.0,0.0,0.0,0.0,0.0,0.0,0.0,0.0,0.0,0.0,0.0,0.0,0.0,0.0,0.0,0.0,0.0,0.0,0.0,0.0,0.0,0.0,0.0,0.0,0.0,0.0,0.0,0.0,0.0,0.0,0.0,0.0,0.0,0.0,0.0,0.0,0.0,0.0,0.0,0.0,0.0,0.0,0.0,0.0,0.0,0.0,0.0,0.0,0.0,0.0,0.0,0.0,0.0,0.0,0.0,0.0,0.0,0.0,0.0,0.0,0.0,0.0,0.0,0.0,0.0,0.0,0.0,0.0,0.0,0.0,0.0,0.0,0.0,0.0,0.0,0.0,0.0,0.0,0.0,0.0,0.0,0.0,0.0,0.0,0.0,0.0,0.0,0.0,0.0,0.0,0.0,0.0,0.0,0.0,0.0,0.0,0.0,0.0,0.0,0.0,0.0,0.0,0.0,0.0,0.0,0.0,0.0,0.0,0.0,0.0,0.0,0.0,0.0,0.0,0.0,0.0,0.0,0.0,0.0,0.0,0.0,0.0,0.0,0.0,0.0,0.0,0.0,0.0,0.0,0.0,0.0,0.0,0.0,0.0,0.0,0.0,0.0,0.0,0.0,0.0,0.0,0.0,0.0,0.0,0.0,0.0,0.0,0.0,0.0,0.0,0.0,0.0,0.0,0.0,0.0,0.0,0.0,0.0,0.0,0.0,0.0,0.0,0.0,0.0,0.0,0.0,0.0,0.0,0.0,0.0,0.0,0.0,0.0,0.0,0.0,0.0,0.0,0.0,0.0,0.0,0.0,0.0,0.0,0.0,0.0,0.0,0.0,0.0,0.0,0.0,0.0,0.0,0.0,0.0,0.0,0.0,0.0,0.0,0.0,0.0,0.0,0.0,0.0,0.0,0.0,0.0,0.0,0.0,0.0,0.0,0.0,0.0,0.0,0.0,0.0,0.0,0.0,0.0,0.0,0.0,0.0,0.0,0.0,0.0,0.0,0.0,0.0,0.0,0.0,0.0,0.0,0.0,0.0,0.0,0.0,0.0,0.0,0.0,0.0,0.0,0.0,0.0,0.0,0.0,0.0,0.0,0.0,0.0,0.0,0.0,0.0,0.0,0.0,0.0,0.0,0.0,0.0,0.0,0.0,0.0,0.0,0.0,0.0,0.0,0.0,0.0,0.0,0.0,0.0,0.0,0.0,0.0,0.0,0.0,0.0,0.0,0.0,0.0,0.0,0.0,0.0,0.0,0.0,0.0,0.0,0.0,0.0,0.0,0.0,0.0,0.0,0.0,0.0,0.0,0.0,0.0,0.0,0.0,0.0,0.0,0.0,0.0,0.0,0.0,0.0,0.0,0.0,0.0,0.0,0.0,0.0,0.0,0.0,0.0,0.0,0.0,0.0,0.0,0.0,0.0,0.0,0.0,0.0,0.0,0.0,0.0,0.0,0.0,0.0,0.0,0.0,0.0,0.0,0.0,0.0,0.0,0.0,0.0,0.0,0.0,0.0,0.0,0.0,0.0,0.0,0.0,0.0,0.0,0.0,0.0,0.0,0.0,0.0,0.0,0.0,0.0,0.0,0.0,0.0,0.0,0.0,0.0,0.0,0.0,0.0,0.0,0.0,0.0,0.0,0.0,0.0,0.0,0.0,0.0,0.0,0.0,0.0,0.0,0.0,0.0,0.0,0.0,0.0,0.0,0.0,0.0,0.0,0.0,0.0,0.0,0.0,0.0,0.0,0.0,0.0,0.0,0.0,0.0,0.0,0.0,0.0,0.0,0.0,0.0,0.0,0.0,0.0,0.0,0.0,0.0,0.0,0.0,0.0,0.0,0.0,0.0,0.0,0.0,0.0,0.0,0.0,0.0,0.0,0.0,0.0,0.0,0.0,0.0,0.0,0.0,0.0,0.0,0.0,0.0,0.0,0.0,0.0,0.0,0.0,0.0,0.0,0.0,0.0,0.0,0.0,0.0,0.0,0.0,0.0,0.0,0.0,0.0,0.0,0.0,0.0,0.0,0.0,0.0,0.0,0.0,0.0,0.0,0.0,0.0,0.0,0.0,0.0,0.0,0.0,0.0,0.0,0.0,0.0,0.0,0.0,0.0,0.0,0.0,0.0,0.0,0.0,0.0,0.0,0.0,0.0,0.0,0.0,0.0,0.0,0.0,0.0,0.0,0.0,0.0,0.0,0.0,0.0,0.0,0.0,0.0,0.0,0.0,0.0,0.0,0.0,0.0,0.0,0.0,0.0,0.0,0.0,0.0,0.0,0.0,0.0,0.0,0.0,0.0,0.0,0.0,0.0,0.0,0.0,0.0,0.0,0.0,0.0,0.0,0.0,0.0,0.0,0.0,0.0,0.0,0.0,0.0,0.0,0.0,0.0,0.0,0.0,0.0,0.0,0.0,0.0,0.0,0.0,0.0,0.0,0.0,0.0,0.0,0.0,0.0,0.0,0.0,0.0,0.0,0.0,0.0,0.0,0.0,0.0,0.0,0.0,0.0,0.0,0.0,0.0,0.0,0.0,0.0,0.0,0.0,0.0,0.0,0.0,0.0,0.0,0.0,0.0,0.0,0.0,0.0,0.0,0.0,0.0,0.0,0.0,0.0,0.0,0.0,0.0,0.0,0.0,0.0,0.0,0.0,0.0,0.0,0.0,0.0,0.0,0.0,0.0,0.0,0.0,0.0,0.0,0.0,0.0,0.0,0.0,0.0,0.0,0.0,0.0,0.0,0.0,0.0,0.0,0.0,0.0,0.0,0.0,0.0,0.0,0.0,0.0,0.0,0.0,0.0,0.0,0.0,0.0,0.0,0.0,0.0,0.0,0.0,0.0,0.0,0.0,1.3683,1.2158,0.0,0.0,0.0,0.0,0.0,0.0,0.0,0.0,0.0,0.0,0.0,0.0,0.0,0.0,0.0,0.0,0.0,0.0,0.0,0.0,0.0,0.0,0.0,3.6405,3.6405,3.6405,3.6405,3.6405,3.6405,0.0,0.0,0.0,0.0,0.0,3.6405,3.6405,3.6267,3.5931,3.6267,3.6267,3.5943,3.5687,3.4975,3.3941,0.0,0.0,0.0,0.0,0.0,0.0,0.0,0.0,0.0,0.0,0.0,0.0,0.0,0.0,0.0,0.0,0.0,0.0,0.0,0.0,0.0,0.0,0.0,0.0,0.0,0.0,0.0,0.0,0.0,0.0,0.0,0.0,0.0,0.0,0.0,0.0,0.0,0.0,0.0,0.0,0.0,0.0,0.0,0.0,0.0,0.0,0.0,0.0,0.0,0.0,0.0,0.0,0.0,0.0,0.0,0.0,0.0,0.0,0.0,0.0,0.0,0.0,0.0,0.0,0.0,0.0,0.0,0.0,0.0,0.0,1.5475,1.403,0.0,0.0,0.0,0.0,0.0,0.0,0.0,0.0,0.0,0.0,0.0,0.0,0.0,0.0,0.0,0.0,0.0,0.0,0.0,0.0,0.0,3.6405,3.6405,3.6405,3.6405,3.6405,3.6405,3.6405,3.6405,3.6405,0.0,0.0,0.0,3.6405,3.6405,3.6405,3.6367,3.6267,3.6455,3.6606,3.6681,3.6295,3.5533,3.4575,3.3734,0.0,0.0,0.0,0.0,0.0,0.0,0.0,0.0,0.0,0.0,0.0,0.0,0.0,0.0,0.0,0.0,0.0,0.0,0.0,0.0,0.0,0.0,0.0,0.0,0.0,0.0,0.0,0.0,0.0,0.0,0.0,0.0,0.0,0.0,0.0,0.0,0.0,0.0,0.0,0.0,0.0,0.0,0.0,0.0,0.0,0.0,0.0,0.0,0.0,0.0,0.0,0.0,0.0,0.0,0.0,0.0,0.0,0.0,0.0,0.0,0.0,0.0,0.0,1.8657,1.8718,1.8871,1.8871,1.9005,1.9114,1.7197,1.6174,1.5644,1.325,0.0,0.0,0.0,0.0,0.0,0.0,0.0,0.0,0.0,0.0,0.0,0.0,0.0,0.0,0.0,0.0,0.0,0.0,0.0,3.6405,3.6405,3.6405,3.6405,3.6405,3.6405,3.6405,3.6405,3.6405,3.6405,3.6405,3.6405,3.6405,3.6405,3.6405,3.6119,3.5608,3.6609,3.7324,3.7801,3.8228,3.809,3.7374,3.5391,3.4731,3.5107,0.0,0.0,0.0,0.0,0.0,0.0,0.0,0.0,0.0,0.0,0.0,0.0,0.0,0.0,0.0,0.0,0.0,0.0,0.0,0.0,0.0,0.0,0.0,0.0,0.0,0.0,0.0,0.0,0.0,0.0,0.0,0.0,0.0,0.0,0.0,0.0,0.0,0.0,0.0,0.0,0.0,2.4785,2.4407,0.0,0.0,0.0,0.0,0.0,0.0,0.0,0.0,0.0,0.0,0.0,0.0,0.0,1.9215,1.9249,1.9908,2.0089,1.9639,2.0621,2.0842,2.0388,2.0388,2.0408,2.0421,1.9827,0.0,1.6704,1.6072,0.0,0.0,0.0,0.0,0.0,0.0,0.0,0.0,0.0,0.0,0.0,0.0,0.0,0.0,0.0,0.0,0.0,0.0,0.0,0.0,0.0,3.6287,3.687,3.687,3.7688,3.7826,3.6885,3.7473,3.7398,3.6455,3.6405,3.6405,3.6405,3.6405,3.6757,3.7412,3.8203,3.9032,3.9885,4.0136,3.9961,3.9371,3.8404,3.7025,3.5445,3.47,0.0,0.0,0.0,0.0,0.0,0.0,0.0,0.0,0.0,0.0,0.0,0.0,0.0,0.0,0.0,0.0,0.0,0.0,0.0,0.0,0.0,0.0,0.0,0.0,0.0,0.0,0.0,0.0,0.0,0.0,0.0,0.0,0.0,0.0,0.0,0.0,0.0,0.0,0.0,2.5469,2.5908,2.5187,2.5586,2.542,0.0,0.0,0.0,0.0,0.0,0.0,0.0,0.0,0.0,2.2819,2.2879,2.2717,2.2379,2.2636,2.2352,2.1665,2.2022,2.2139,2.2057,2.1794,2.173,2.1646,2.1229,2.0334,1.9137,1.7484,1.5892,1.4259,0.0,0.0,0.0,0.0,1.1219,1.1233,0.0,0.0,0.0,0.0,0.0,0.0,0.0,0.0,0.0,0.0,0.0,0.0,3.4956,3.6455,3.745,3.76,3.8617,3.873,3.7475,3.7789,3.7462,3.6207,3.6019,3.599,3.599,3.6405,3.7448,3.9082,3.9772,4.0601,4.1543,4.1693,4.1618,4.1354,4.1204,3.9459,3.6511,3.5705,3.4801,3.3897,0.0,0.0,0.0,0.0,0.0,0.0,0.0,0.0,0.0,0.0,0.0,0.0,0.0,0.0,0.0,0.0,0.0,0.0,0.0,0.0,0.0,0.0,0.0,0.0,0.0,0.0,0.0,0.0,0.0,0.0,0.0,0.0,0.0,0.0,0.0,0.0,0.0,2.6475,2.706,2.583,2.6973,2.706,0.0,0.0,0.0,0.0,0.0,0.0,2.5958,2.6326,2.6439,2.6259,2.6428,2.6313,2.5752,2.5203,2.4539,2.3731,2.3111,2.2888,2.3035,2.2766,2.2593,2.2511,2.1967,2.1511,2.1058,1.8816,1.7341,1.6367,1.4844,1.3869,1.3342,1.3281,1.321,1.3232,0.0,0.0,0.0,0.0,0.0,0.0,0.0,0.0,0.0,0.0,0.0,3.4474,3.5462,3.7023,3.8191,3.8781,3.8366,3.8052,3.7977,3.6498,3.5621,3.5545,3.5044,3.4813,3.4813,3.6345,3.7965,3.9647,4.0727,4.1555,4.2187,4.2647,4.3162,4.3614,4.3087,4.1593,3.9383,3.7751,3.6747,3.6107,3.45,0.0,0.0,0.0,0.0,0.0,0.0,0.0,0.0,0.0,0.0,0.0,0.0,0.0,0.0,0.0,0.0,0.0,0.0,0.0,0.0,0.0,0.0,0.0,0.0,0.0,0.0,0.0,0.0,0.0,0.0,0.0,0.0,0.0,0.0,0.0,0.0,0.0,0.0,2.5937,2.8281,0.0,0.0,0.0,0.0,2.8096,2.8506,2.9066,2.9894,2.9561,2.9586,2.992,2.9577,2.9158,2.8662,2.7356,2.6289,2.5477,2.4098,2.3301,2.3028,2.2962,2.2867,2.2601,2.2201,2.1888,2.1497,2.0469,1.8971,1.7289,1.6618,1.5381,1.4019,1.3685,1.3547,1.3603,0.0,0.0,0.0,2.4668,2.5478,2.6261,2.6553,2.7242,2.8082,2.9153,3.0905,3.2815,3.4871,3.7144,3.8881,3.9859,4.0714,4.0601,3.9182,3.8203,3.7362,3.6634,3.5683,3.5708,3.681,3.7776,3.9309,4.1333,4.2384,4.3401,4.4317,4.4857,4.5033,4.4882,4.4681,4.3752,4.2183,3.9798,3.8065,3.6759,3.5102,3.4311,0.0,0.0,0.0,0.0,0.0,0.0,0.0,0.0,0.0,0.0,0.0,0.0,0.0,0.0,0.0,0.0,0.0,0.0,0.0,0.0,0.0,0.0,0.0,0.0,0.0,0.0,0.0,0.0,0.0,0.0,0.0,0.0,0.0,0.0,0.0,0.0,0.0,2.9521,3.1377,0.0,2.9512,2.9941,3.0127,2.956,3.0449,3.126,3.1836,3.2243,3.2574,3.2727,3.2566,3.1995,3.0942,3.0079,2.8587,2.6302,2.5778,2.4897,2.3688,2.342,2.3184,2.2893,2.2573,2.2096,2.1562,2.1479,2.0564,1.9161,1.8818,1.7955,1.6876,1.654,1.6321,1.6158,0.0,2.3945,0.0,2.4443,2.5264,2.6084,2.6523,2.6779,2.7348,2.8551,3.012,3.215,3.4814,3.7423,3.9557,4.0946,4.1731,4.1455,3.9798,3.8642,3.7574,3.6408,3.5784,3.6273,3.7965,3.8944,4.0465,4.2489,4.335,4.4279,4.5196,4.5573,4.5648,4.5485,4.5485,4.507,4.4242,4.2208,4.0174,3.8165,3.6496,3.583,3.5604,0.0,0.0,0.0,0.0,0.0,0.0,0.0,0.0,0.0,0.0,0.0,0.0,0.0,0.0,0.0,0.0,0.0,0.0,0.0,0.0,0.0,0.0,0.0,0.0,0.0,0.0,0.0,0.0,0.0,0.0,0.0,0.0,0.0,0.0,3.0574,3.1797,3.1934,3.3848,3.4375,3.2373,3.2832,3.3008,3.2432,3.3193,3.375,3.3877,3.4424,3.459,3.4297,3.4287,3.3688,3.2477,3.1718,3.0081,2.7671,2.6729,2.5656,2.4382,2.3569,2.3083,2.2889,2.2467,2.2059,2.1631,2.1897,2.1374,2.0483,2.0164,1.9435,1.8561,1.8156,1.7849,1.7569,2.3091,2.3486,2.3926,2.4346,2.4775,2.5447,2.6527,2.6563,2.7077,2.8666,3.0446,3.2609,3.5354,3.7925,4.0153,4.201,4.1178,4.0312,3.976,3.7662,3.5893,3.4813,3.5295,3.6373,3.8078,3.9735,4.1392,4.3024,4.3576,4.4129,4.4656,4.4669,4.497,4.551,4.551,4.5522,4.5497,4.4945,4.315,4.0538,3.8793,3.8078,3.7764,0.0,0.0,0.0,0.0,0.0,0.0,0.0,0.0,0.0,0.0,0.0,0.0,0.0,0.0,0.0,0.0,0.0,0.0,0.0,0.0,0.0,0.0,0.0,0.0,0.0,0.0,0.0,0.0,0.0,0.0,0.0,0.0,0.0,2.9669,3.1721,3.3422,3.308,3.5566,3.6689,3.5,3.5986,3.6719,3.6689,3.6689,3.6494,3.6064,3.6025,3.5615,3.4746,3.4697,3.4287,3.3447,3.2027,3.0771,2.9604,2.6881,2.5467,2.5117,2.3436,2.2684,2.2608,2.1985,2.1721,2.1714,2.1728,2.1534,2.1124,2.0541,1.977,1.8837,1.8265,1.7849,1.7594,2.3057,2.3486,2.3926,2.4346,2.4775,2.5349,2.6141,2.6373,2.6956,2.8207,2.9881,3.1945,3.4592,3.7565,3.9915,4.1282,4.1174,4.0824,4.0325,3.7826,3.6267,3.5965,3.7224,3.873,4.0335,4.1656,4.2911,4.4166,4.4744,4.5095,4.5259,4.566,4.5937,4.6087,4.6087,4.6313,4.6677,4.6514,4.5773,4.443,4.1141,3.9584,3.9057,0.0,0.0,0.0,0.0,0.0,0.0,0.0,0.0,0.0,0.0,0.0,0.0,0.0,0.0,0.0,0.0,0.0,0.0,0.0,0.0,0.0,0.0,0.0,0.0,0.0,0.0,0.0,0.0,0.0,0.0,0.0,3.5812,3.7003,3.5912,3.6199,3.6977,3.8412,3.8674,3.8496,3.8008,3.8017,3.7793,3.7168,3.7129,3.6943,3.6514,3.6191,3.5771,3.5215,3.458,3.4131,3.3896,3.2884,3.1598,3.0018,2.8982,2.7783,2.6426,2.4811,2.4065,2.3989,2.2662,2.1918,2.1722,2.1955,2.1583,2.0845,2.0629,2.0159,1.9508,1.887,1.8323,1.7864,2.3057,2.3305,2.3711,2.4316,2.4629,2.5094,2.5953,2.6405,2.7019,2.8055,2.9711,3.169,3.4043,3.6496,3.84,3.9382,3.974,3.9491,3.8492,3.718,3.682,3.7713,3.9132,4.0576,4.1995,4.3338,4.4455,4.5334,4.5673,4.5949,4.6175,4.6276,4.6313,4.6313,4.6313,4.6489,4.679,4.679,4.674,4.6426,4.3702,4.2258,4.1543,3.9496,3.8743,3.8718,3.7764,3.7839,3.8128,3.6609,0.0,0.0,0.0,0.0,0.0,0.0,0.0,0.0,0.0,0.0,0.0,0.0,0.0,0.0,0.0,0.0,0.0,0.0,0.0,0.0,0.0,0.0,0.0,0.0,3.9303,4.1347,4.1899,4.0602,3.9972,4.0933,4.0541,3.9997,3.9547,3.8935,3.8369,3.7871,3.75,3.7031,3.6435,3.5996,3.5478,3.4863,3.416,3.3633,3.3344,3.2783,3.1841,3.0492,2.9698,2.8699,2.7514,2.5889,2.4771,2.4086,2.3002,2.2042,2.1306,2.1496,2.1159,2.0504,0.0,0.0,0.0,0.0,1.8123,1.7574,2.3047,2.3091,2.3364,2.4268,2.4414,2.4754,2.5875,2.6467,2.7102,2.8045,2.9727,3.1522,3.3388,3.4918,3.6101,3.6933,3.7268,3.6992,3.5799,3.6318,3.7662,3.9785,4.1053,4.2195,4.3237,4.4907,4.5999,4.6489,4.6489,4.674,4.7156,4.6652,4.6401,4.6401,4.6338,4.6338,4.6401,4.6401,4.6728,4.7142,4.615,4.5347,4.4392,4.1392,4.1116,4.2137,4.0176,3.956,3.9496,3.873,0.0,0.0,0.0,0.0,0.0,0.0,0.0,0.0,0.0,0.0,0.0,0.0,0.0,0.0,0.0,0.0,0.0,0.0,0.0,0.0,0.0,0.0,0.0,0.0,4.3218,4.5378,4.7006,4.4783,4.2667,4.1903,4.1493,4.0896,4.0004,3.9101,3.8574,3.8574,3.7783,3.6924,3.6064,3.5625,0.0,0.0,0.0,3.3018,3.2314,3.2168,3.1738,3.1035,2.9764,2.8895,2.8431,2.6849,2.5315,2.3885,2.3246,2.2199,2.094,2.0791,2.0453,2.0176,2.042,1.9986,1.9155,1.8341,1.7618,1.7085,2.3013,2.3091,2.3364,2.4268,2.4414,2.4717,2.5644,2.632,2.7003,2.7875,2.9357,3.073,3.1761,3.3343,3.4659,3.5577,3.5211,3.5302,3.6194,3.7617,3.9182,4.094,4.2924,4.4305,4.4982,4.6602,4.7493,4.7594,4.7594,4.7657,4.7744,4.723,4.6979,4.6954,4.6502,4.6552,4.6979,4.6979,4.728,4.7744,4.7518,4.6589,4.5196,4.4091,4.3589,4.3426,4.2999,4.3426,4.3915,4.2049,4.0915,4.0023,3.8002,3.6006,0.0,0.0,0.0,0.0,0.0,0.0,0.0,0.0,0.0,0.0,0.0,0.0,0.0,0.0,0.0,0.0,0.0,0.0,0.0,4.2278,4.4502,4.6634,4.8464,4.7786,4.6262,4.3951,4.1255,3.9746,3.9844,3.9101,3.8574,3.8574,3.7783,3.6924,3.6064,3.5625,3.499,3.4101,3.332,3.2998,3.3174,3.2158,3.1738,3.1914,3.0975,0.0,2.9776,2.8188,2.7103,2.6379,2.4028,2.283,2.247,2.1216,2.0377,1.9842,1.9643,1.9315,1.8826,1.839,1.8023,1.769,2.2882,2.3013,2.3364,2.4268,2.4414,2.4785,2.5898,2.6516,2.714,2.7891,2.9049,3.0029,3.0717,3.1554,3.2209,3.2628,3.3104,3.4384,3.6726,3.8891,4.1091,4.3325,4.5008,4.6137,4.669,4.777,4.8335,4.8335,4.8335,4.8335,4.8335,4.7782,4.738,4.7068,4.6841,4.6728,4.6728,4.6728,4.7029,4.7493,4.7217,4.679,4.625,4.5686,4.5296,4.502,4.4744,4.5008,4.5271,4.3865,4.2848,4.1869,4.0199,3.8354,3.6471,0.0,0.0,0.0,0.0,0.0,0.0,0.0,0.0,0.0,0.0,0.0,0.0,0.0,0.0,3.7626,3.9007,0.0,4.3388,4.5886,4.7004,4.7958,4.9209,4.8346,4.6945,4.5199,4.351,4.1846,4.0181,3.9634,3.8906,3.7727,3.7226,3.6709,3.6055,3.54,3.4844,3.4394,3.335,3.2793,3.2793,3.1943,3.1523,3.1523,3.1094,3.0537,2.9873,2.9086,2.8024,2.6765,2.5337,2.431,2.3541,2.1822,2.0475,1.9522,1.8979,1.8789,1.873,1.824,1.796,1.7819,2.2715,2.2925,2.332,2.4222,2.4414,2.4834,2.6074,2.6689,2.7231,2.7875,2.8741,2.9449,2.9924,2.9878,2.9751,2.958,3.1361,3.3742,3.6801,3.9675,4.237,4.4872,4.6548,4.752,4.767,4.8509,4.8937,4.8937,4.8937,4.8937,4.8912,4.8347,4.7845,4.7443,4.733,4.7041,4.6627,4.6627,4.6878,4.7242,4.6803,4.6828,4.7018,4.6527,4.6313,4.6298,4.5686,4.533,4.5087,4.4844,4.384,4.2534,4.1869,4.0601,3.8919,3.6624,3.5759,0.0,0.0,0.0,0.0,0.0,0.0,0.0,0.0,3.4613,3.578,3.7877,3.9383,4.1065,4.3514,4.4844,4.6439,4.9012,4.9151,4.9125,4.9678,4.8146,4.6801,4.6174,4.5587,4.3837,4.0327,3.9865,3.8871,3.6612,3.6338,3.6103,3.5664,3.4961,3.4541,3.4453,3.3301,3.2549,3.2295,3.1699,3.1269,3.1016,3.0928,3.043,2.9626,2.9626,2.8586,2.6853,2.6499,2.5514,2.4008,2.2229,2.0734,1.9517,1.8655,1.8503,1.8701,1.7984,1.7721,1.7684,2.2715,2.2803,2.3152,2.4222,2.4414,2.4736,2.5615,2.6444,2.7133,2.7468,2.8252,2.8903,2.9202,2.8715,2.8368,2.8144,3.0686,3.3228,3.5401,3.9118,4.1792,4.3026,4.6612,4.8015,4.6795,4.8546,4.9502,4.9502,4.9502,4.9502,4.949,4.8937,4.8648,4.856,4.8058,4.7795,4.7732,4.7732,4.777,4.782,4.7757,4.7493,4.7018,4.6527,4.6481,4.6572,4.5804,4.4691,4.3789,4.5024,4.3664,4.1614,4.2522,4.1995,4.0573,3.8391,3.6697,3.5107,3.337,3.2252,3.2014,3.3809,3.4035,3.4951,0.0,3.9984,4.0262,4.1969,4.4016,4.5284,4.4656,4.7004,4.9,4.8887,4.9226,4.969,5.0243,4.8834,4.7644,4.7303,4.4832,4.2106,3.9588,3.8688,3.7549,3.5701,3.5156,3.4736,3.4316,3.4199,3.3965,3.3574,3.2705,3.2393,3.2725,3.1553,3.1123,3.1445,3.1064,3.043,2.9626,2.9626,2.9046,2.7994,2.6588,2.5111,2.3587,2.2035,2.1151,2.0566,1.8947,1.8503,1.8672,1.7728,1.7384,1.733,2.2485,2.2574,2.2964,2.4176,2.4414,2.4795,2.5937,2.6416,2.6877,2.7469,2.7914,2.8292,2.8804,2.846,2.7952,2.7372,2.9931,3.2498,3.4779,3.8424,4.1327,4.3238,4.5519,4.6416,4.5806,4.663,4.7003,4.7003,4.7003,4.7003,4.7069,4.7669,4.7791,4.755,4.8118,4.8222,4.7908,4.7908,4.7908,4.7883,4.7581,4.7129,4.6527,4.5309,4.4628,4.4263,4.374,4.2997,0.0,4.215,4.1555,4.0877,4.1028,4.0538,3.9521,3.7613,3.6558,3.573,3.4387,3.4161,3.4349,3.465,3.5768,3.7513,4.0237,4.0874,4.1643,4.3966,4.5698,4.6841,4.7004,4.8435,4.9728,5.0155,4.9879,4.9565,4.9477,4.856,4.7381,4.5922,4.4789,4.2991,4.0258,3.9571,3.8253,3.562,3.4961,3.4629,3.4453,3.3965,3.3613,3.3428,3.2607,3.2129,3.2051,3.1279,3.0976,3.1152,3.0976,3.043,2.9626,2.9626,2.9101,2.8271,2.7357,2.607,2.4594,2.3747,2.2382,2.0813,1.967,1.8965,1.8408,1.7618,1.7403,1.7582,2.222,2.2403,2.2874,2.4103,2.4429,2.4876,2.6045,2.6309,2.666,2.7393,2.764,2.7888,2.8466,2.8184,2.7712,2.7,2.8926,3.117,3.361,3.6955,3.9871,4.1949,4.3872,4.4687,4.4276,4.4948,4.5233,4.5245,4.5371,4.5451,4.5599,4.669,4.6974,4.6673,4.7608,4.7989,4.7926,4.7841,4.7795,4.7857,4.7343,4.6615,4.566,4.3978,4.265,4.1534,4.1361,4.0654,3.975,3.9045,3.873,3.8705,3.8755,3.8504,3.7927,3.6546,3.5918,3.5504,3.4713,3.5303,3.6056,3.5717,3.7487,3.9659,4.0915,4.1856,4.3099,4.5271,4.6715,4.7782,4.8422,4.9238,5.0042,5.0707,5.0255,4.9577,4.8874,4.8021,4.6702,4.4644,4.4203,4.2999,4.0318,3.9886,3.852,3.5406,3.455,3.4121,3.4014,3.3408,3.3076,3.3076,3.2373,3.1836,3.1523,3.1103,3.0889,3.0889,3.0889,3.043,2.956,2.9326,2.8877,2.8262,2.7725,2.6881,2.5764,2.4928,2.3509,2.1668,2.0393,1.9447,1.8603,1.7662,1.7432,1.7647,2.2052,2.2413,2.2997,2.393,2.441,2.49,2.5635,2.6113,2.6543,2.6973,2.7402,2.777,2.7989,2.7677,2.7321,2.7111,2.7623,2.8957,3.1182,3.4355,3.6685,3.7915,4.1925,4.3426,4.2003,4.4211,4.5374,4.5401,4.5796,4.6198,4.6584,4.6584,4.6643,4.6608,4.6185,4.6779,4.8043,4.7581,4.7632,4.7857,4.7343,4.615,4.4493,4.2836,4.0918,3.902,3.902,3.777,3.6176,3.6436,3.5403,3.4374,3.6003,3.6471,3.637,3.5708,3.4768,3.3972,3.3935,3.4726,3.5897,3.7513,3.9195,4.089,4.2534,4.4179,4.5535,4.6163,4.7581,4.856,4.8033,4.9276,5.023,4.9728,5.0067,5.0017,4.8925,4.738,4.5723,4.4028,4.2619,4.0959,3.8744,3.8591,3.758,3.4899,3.3574,3.2676,3.2326,3.2217,3.2268,3.2268,3.1768,3.1533,3.1514,3.1103,3.0889,3.0889,3.0889,3.043,2.9597,2.8711,2.832,2.8242,2.7402,2.697,2.679,2.4905,2.4048,2.3709,2.0973,1.9877,1.9644,1.7938,1.7286,1.7293,2.2396,2.2395,2.2781,2.4229,2.4381,2.4619,2.5577,2.581,2.6113,2.6543,2.7226,0.0,0.0,0.0,0.0,0.0,2.7031,2.8137,2.9769,3.2035,3.3837,3.5154,3.7984,3.938,3.9209,4.0506,4.1381,4.1599,4.1756,4.2069,4.2519,4.3191,4.3802,4.4379,4.5161,4.584,4.6208,4.6062,4.599,4.6001,4.4654,4.3721,4.2964,4.0832,3.8843,3.7048,0.0,3.464,3.3953,3.33,3.2943,3.288,3.3432,3.3608,3.3583,3.3395,3.3859,3.4525,3.4843,3.6345,3.8065,3.9346,4.0639,4.2032,4.3689,4.4229,4.4631,4.5573,4.5321,4.4982,4.5146,4.5648,4.6213,4.6778,4.7933,4.8372,4.7292,4.6979,4.5824,4.3037,4.2642,4.1756,3.9775,3.8034,3.6291,3.4337,3.2779,3.2012,3.2158,3.1894,3.1738,3.1738,3.1592,3.1387,3.1103,3.0957,3.0889,3.0889,3.0293,2.9707,2.9121,2.8555,2.8135,2.7851,2.7266,2.6855,2.6502,2.5564,2.4756,2.3956,2.2521,2.1123,1.9789,1.8676,1.7878,1.7279,0.0,2.2473,2.2833,2.4307,2.4459,0.0,0.0,0.0,0.0,0.0,0.0,0.0,0.0,0.0,0.0,0.0,0.0,2.7182,2.8339,2.9774,3.1217,3.2515,3.4402,3.5561,3.5765,3.6622,3.7348,3.7936,3.8087,3.8538,3.9262,4.0088,4.0758,4.1372,4.2242,4.2922,4.3405,4.3175,4.3144,4.3119,4.1622,4.0512,3.9665,3.8059,3.6329,0.0,3.3258,3.2516,3.2064,3.1135,3.106,3.1386,3.1587,3.1901,3.229,3.2692,3.3859,3.5219,3.642,3.8203,4.0023,4.1128,4.207,4.3024,4.4091,4.3903,4.3664,4.4192,4.3275,4.2446,4.2597,4.2622,4.2924,4.3853,4.5208,4.6037,4.5748,4.5673,4.492,4.2974,4.2766,4.2026,4.0358,3.8439,3.6589,3.4852,3.3394,3.2356,3.1879,3.1505,3.1299,3.1299,3.1299,3.1162,3.0889,3.0889,3.081,3.0635,2.9912,2.9336,2.8896,2.833,2.792,2.7689,2.7041,2.6641,2.6357,2.5869,2.5274,2.4573,2.3455,2.1981,2.036,1.9228,1.8149,1.7279,0.0,0.0,2.3193,0.0,0.0,0.0,0.0,0.0,0.0,0.0,0.0,0.0,0.0,0.0,0.0,0.0,0.0,0.0,2.6894,2.7754,2.8769,2.998,3.1318,3.2111,3.207,3.2891,3.3735,3.457,3.4978,3.5735,3.6975,3.7445,3.7657,3.7698,3.762,3.8325,3.9616,3.9099,3.9092,3.932,3.8194,3.6607,3.4923,3.471,3.3449,3.1797,3.204,3.1471,3.057,3.0018,2.9867,3.0005,3.0532,3.1474,3.2591,3.3633,3.4781,3.621,3.8379,4.0187,4.1664,4.276,4.3413,4.379,4.3727,4.3288,4.2723,4.22,4.153,4.0874,4.04,4.0325,4.0551,4.1137,4.2283,4.3451,4.4556,4.3827,4.335,4.379,4.2898,4.181,4.0543,3.969,3.8377,3.6387,3.5183,3.3592,3.148,3.116,3.1005,3.0889,3.0889,3.0889,3.0889,3.0869,3.0615,3.0127,2.9726,2.9307,2.8857,2.8047,2.7708,2.764,2.6748,2.6377,2.6328,2.5859,2.5674,2.5518,2.3767,2.2463,2.1328,1.9608,1.8303,1.7372,0.0,0.0,0.0,0.0,0.0,0.0,0.0,0.0,0.0,0.0,0.0,0.0,0.0,0.0,0.0,0.0,0.0,0.0,2.6005,2.6865,2.749,2.7812,2.9375,3.0381,3.0693,3.1553,3.2278,3.2841,3.2949,3.3336,3.392,3.3713,3.396,3.4551,3.4545,3.4712,3.506,3.4851,3.47,3.4444,3.3389,3.2842,3.2601,3.14,3.1231,3.1548,3.0877,3.0877,3.111,3.0583,3.0934,3.1625,3.1763,3.3088,3.463,3.455,3.6759,3.9371,3.9936,4.1605,4.3237,4.3514,4.3689,4.3589,4.276,4.2145,4.148,4.0513,3.8906,3.7613,3.745,3.7751,3.863,4.0425,4.2685,4.4593,4.5723,4.5999,4.566,4.4543,4.3802,4.2937,4.1823,4.1141,4.003,3.8255,3.6248,3.4385,3.2711,3.2587,3.2035,3.0947,3.0889,3.0889,3.0889,3.0547,2.999,2.9248,2.9141,2.8857,2.8437,2.791,2.749,2.7148,2.6621,2.6201,2.5849,2.5732,2.5537,2.5215,2.4744,2.3542,2.2032,2.1559,2.0159,1.8427,0.0,0.0,0.0,0.0,0.0,0.0,0.0,0.0,0.0,0.0,0.0,0.0,0.0,0.0,0.0,0.0,0.0,0.0,0.0,2.6132,2.6455,2.6455,2.7373,2.7998,2.8232,2.873,2.9375,3.0252,2.9814,3.0039,3.081,3.0391,3.0449,3.0898,3.1063,3.1159,3.1149,3.1047,3.0766,0.0,0.0,2.9267,2.913,2.8976,2.9225,2.9767,3.025,3.0989,3.1788,3.1989,3.2616,3.3395,3.3884,3.5228,3.6661,3.7136,3.8981,4.0987,4.1756,4.3225,4.448,4.4229,4.3978,4.3451,4.2108,4.1003,3.9873,3.8517,3.686,3.5592,3.5328,3.5529,3.6395,3.8366,4.0601,4.2911,4.5246,4.5623,4.5686,4.5723,4.5033,4.4104,4.2986,4.2384,4.1447,4.0033,3.7836,3.5899,3.4303,3.362,3.2851,3.1883,3.1325,3.0897,3.0596,3.0332,2.9766,2.8916,2.8916,2.8701,2.8271,2.7656,2.7246,2.6982,2.6367,2.5967,2.5674,2.5527,2.5293,2.5077,2.4705,2.3639,2.2263,2.2089,2.0921,1.9422,0.0,0.0,0.0,0.0,0.0,0.0,0.0,0.0,0.0,0.0,2.5762,2.5693,2.5693,2.5693,0.0,0.0,0.0,0.0,0.0,0.0,2.5693,2.5693,2.5693,2.5693,2.5693,2.5693,2.6289,2.7412,2.667,2.6836,2.7851,2.7542,2.7337,2.7297,2.7617,2.7773,2.7754,2.7683,2.7359,2.6894,2.6613,2.6129,2.5685,0.0,2.753,2.7778,2.9936,3.1327,3.2304,3.3608,3.4447,3.5152,3.6367,3.76,3.8956,4.0413,4.1442,4.2341,4.3765,4.4907,4.5547,4.4895,4.4204,4.3237,4.1517,3.9835,3.8228,3.6531,3.5328,3.4449,3.3884,3.3909,3.46,3.6443,3.8089,4.0438,4.4305,4.4367,4.4769,4.679,4.605,4.4957,4.3903,4.3237,4.2446,4.1363,3.9629,3.7741,3.5804,3.4348,3.335,3.2907,3.1822,3.0855,3.0174,3.0059,2.9629,2.8838,2.8838,2.8643,2.8262,2.7402,2.7012,2.6973,2.6064,2.5693,2.5664,2.5322,2.5174,2.5037,2.4248,2.3369,2.2473,2.213,2.1329,2.0421,0.0,0.0,0.0,0.0,0.0,0.0,0.0,0.0,0.0,2.6699,2.6132,2.5693,0.0,0.0,0.0,0.0,0.0,0.0,0.0,0.0,0.0,2.5693,2.5693,2.5693,2.5693,2.5693,2.5801,2.6074,2.5879,2.5771,2.5673,2.5595,2.5322,2.499,2.5059,2.5088,2.5078,2.5057,2.482,2.4418,2.4544,2.4841,2.5285,2.5396,0.0,0.0,2.9874,3.0894,3.2002,3.4046,3.5322,3.6383,3.7989,4.0124,4.217,4.2459,4.4254,4.6027,4.5924,4.6351,4.6602,4.5585,4.4217,4.2572,4.0463,3.868,3.701,3.5341,3.4487,3.3872,3.3319,3.396,3.5429,3.8064,3.9446,4.1593,4.5472,4.5547,4.551,4.6351,4.546,4.4518,4.3865,4.2886,4.2032,4.1326,4.0549,3.8812,3.5859,3.4536,3.3335,3.2065,3.1207,3.0534,3.0033,2.9437,2.8896,2.8398,2.8398,2.8359,2.8262,2.7402,2.7012,2.6973,2.6064,2.5693,2.5684,2.5606,2.54,2.5096,2.4949,2.4312,2.3545,2.3477,2.2582,2.1418,0.0,0.0,0.0,0.0,0.0,0.0,2.5593,2.6071,2.6709,2.7568,2.751,2.7087,2.6475,2.5957,2.5693,0.0,0.0,0.0,0.0,0.0,0.0,2.5693,2.5693,2.5693,2.5693,2.5693,2.5801,2.6074,0.0,2.5283,2.5106,2.4834,2.4375,2.3715,2.3994,2.3965,2.3705,2.3705,2.3588,2.3467,2.3915,2.4312,2.4711,0.0,0.0,0.0,2.9268,3.0351,3.1865,3.351,3.5104,3.6772,3.9019,4.1028,4.266,4.3237,4.4769,4.6338,4.6652,4.6867,4.6866,4.5761,4.4003,4.1949,3.9383,3.7525,3.5868,3.4211,3.3658,3.3395,3.3174,3.3746,3.4914,3.6835,3.8065,4.0036,4.3639,4.3915,4.4292,4.5711,4.5133,4.4405,4.3853,4.2798,4.1932,4.1326,3.9384,3.8149,3.7779,3.5956,3.3989,3.2133,3.1298,3.0697,3.0258,2.9535,2.8947,2.8514,2.8354,2.8291,2.8262,2.7402,2.7012,2.6973,2.6064,2.5693,2.5654,2.5187,2.5059,2.5047,2.4326,2.3945,2.376,2.3535,2.3002,2.2422,0.0,0.0,0.0,0.0,0.0,0.0,2.6222,2.6749,2.7383,2.8428,2.8691,2.8467,2.7656,2.6719,2.5996,0.0,0.0,0.0,0.0,0.0,0.0,0.0,0.0,0.0,2.5693,0.0,0.0,2.625,2.5547,0.0,0.0,0.0,0.0,0.0,2.3633,2.3545,2.3091,2.3091,2.3091,0.0,0.0,2.4108,0.0,0.0,0.0,0.0,0.0,2.9498,3.1144,3.2274,3.4023,3.6136,3.854,4.0617,4.2401,4.3338,4.4681,4.605,4.7029,4.7292,4.7029,4.5937,4.3802,4.1279,3.8617,3.6586,3.4893,3.3395,3.3124,3.3124,3.3124,3.3432,3.4123,3.5307,3.627,3.799,4.1329,4.1907,4.2723,4.4706,4.4656,4.4229,4.3677,4.2791,4.1932,4.1326,3.8365,3.718,3.8502,3.6348,3.4325,3.281,3.1651,3.0923,3.058,2.9729,2.9128,2.8684,2.8558,2.8451,2.8378,2.7506,2.7114,2.7014,2.6103,2.5693,2.5635,2.4933,2.4902,2.5088,2.3842,2.3682,2.3994,2.3432,2.3237,2.3237,0.0,0.0,0.0,0.0,0.0,0.0,2.5591,2.6454,2.7598,2.9238,2.8809,2.8603,2.9268,2.8286,2.7021,0.0,0.0,0.0,0.0,0.0,0.0,0.0,0.0,0.0,0.0,0.0,0.0,2.5742,2.5664,0.0,0.0,0.0,0.0,0.0,0.0,2.3545,2.3091,2.3091,0.0,0.0,0.0,0.0,0.0,0.0,0.0,0.0,0.0,2.8081,2.9146,3.0297,3.1969,3.3782,3.5054,3.8529,4.2326,4.2873,4.492,4.7104,4.7682,4.7845,4.7581,4.6502,4.3802,4.0761,3.853,3.6345,3.4474,3.3319,3.3124,3.3124,3.3124,3.3162,3.3671,3.5245,3.5583,3.6812,4.0199,4.1103,4.1856,4.3062,4.3601,4.3664,4.3112,4.2564,4.1932,4.1326,3.9099,3.6911,3.508,3.3706,3.3378,3.4256,3.2114,3.0876,3.0836,2.9722,2.897,2.8684,2.893,2.8877,2.8644,2.7754,2.7348,2.7299,2.6202,2.5693,2.5684,2.5606,2.5596,2.5538,2.4658,2.457,2.49,2.4033,2.373,2.373,0.0,0.0,0.0,0.0,0.0,0.0,2.6066,2.665,2.7627,2.9346,2.9492,2.9473,2.9616,2.9166,2.8086,2.6289,2.584,0.0,0.0,0.0,0.0,0.0,0.0,0.0,0.0,0.0,2.6133,2.6133,2.6387,0.0,0.0,0.0,0.0,0.0,0.0,2.3789,2.3091,2.3091,0.0,0.0,0.0,0.0,0.0,0.0,0.0,0.0,0.0,0.0,2.8779,2.9208,3.0507,3.2029,3.2701,3.4931,3.7799,4.028,4.2723,4.4895,4.6112,4.669,4.6765,4.6012,4.3062,3.9936,3.8366,3.6044,3.401,3.3232,3.3124,3.3124,3.3124,3.3124,3.3294,3.3947,3.406,3.4876,3.715,3.7664,3.8705,4.1204,4.1693,4.2133,4.2898,4.2183,4.101,3.9357,3.8403,3.718,3.5608,3.4413,3.3532,3.3021,3.1847,3.1062,3.0784,2.987,2.9343,2.9248,2.9132,2.9026,2.89,2.8063,2.7551,2.735,2.6536,2.611,2.5945,2.5689,2.5729,2.5828,2.4803,2.4687,2.5047,2.4385,2.417,2.417,0.0,0.0,0.0,0.0,0.0,2.5174,2.6174,2.672,2.7588,2.917,2.9639,2.9805,2.9756,2.9414,2.8584,2.708,2.6328,0.0,0.0,0.0,0.0,0.0,0.0,0.0,0.0,0.0,2.6387,2.6387,2.6807,2.6641,0.0,0.0,2.5596,2.417,0.0,0.0,0.0,0.0,0.0,0.0,0.0,0.0,0.0,0.0,0.0,0.0,0.0,0.0,0.0,0.0,0.0,3.041,3.1008,3.2201,3.4035,3.7431,4.0262,4.2572,4.4091,4.5146,4.5686,4.5133,4.2321,3.9358,3.8065,3.5768,3.3746,3.3194,3.3124,3.3124,3.3124,3.3124,3.3124,3.3124,3.3124,3.3596,3.5044,3.5395,3.6486,3.9207,3.9672,4.0425,4.2082,4.1693,4.0492,3.8575,3.8108,3.7566,3.6738,3.5144,3.3732,3.258,3.1628,3.1019,3.0688,3.0053,2.9659,2.9606,2.9448,2.9343,2.9207,2.8309,2.7804,2.7592,2.683,2.64,2.6225,2.5916,2.5928,2.6021,2.509,2.4977,2.5215,2.4766,2.4609,2.4609,0.0,0.0,0.0,0.0,0.0,2.4929,2.5543,2.6384,2.748,2.876,2.8926,2.9258,3.0098,2.9062,2.8301,2.8271,2.7119,0.0,0.0,0.0,0.0,0.0,0.0,0.0,2.5693,2.6162,2.6387,2.6387,2.6807,2.6797,2.6387,2.6387,2.5908,2.5086,0.0,0.0,0.0,0.0,0.0,0.0,0.0,0.0,2.5732,0.0,0.0,0.0,0.0,0.0,0.0,0.0,0.0,0.0,0.0,3.0857,3.214,3.4757,3.789,4.0789,4.1936,4.3388,4.4505,4.3953,4.1743,3.9258,3.7575,3.5479,3.3746,3.3194,3.3124,3.3124,3.3124,3.3124,3.3124,3.3124,3.3124,3.347,3.4575,3.5157,3.5909,3.7086,3.7701,3.8693,4.0375,4.0974,4.0824,3.9772,3.8594,3.7885,3.7885,3.5307,3.3803,3.3803,3.1793,3.0688,3.0688,3.0222,2.9879,2.9606,2.9889,2.9827,2.9576,2.8605,2.8186,2.8145,2.6966,2.6496,2.6496,2.6496,2.6342,2.6051,2.5672,2.5581,2.5625,2.5225,2.5106,2.5106,0.0,0.0,0.0,0.0,0.0,0.0,2.5556,2.5907,2.6444,2.749,2.7871,2.8389,2.9228,2.8965,2.8603,2.831,2.7129,0.0,0.0,0.0,0.0,0.0,0.0,2.6318,2.6602,2.7041,2.7307,2.7307,2.7685,2.7676,2.7307,2.6953,2.6357,2.5508,2.5059,2.4619,0.0,0.0,0.0,0.0,0.0,2.5332,2.5732,0.0,0.0,0.0,0.0,0.0,0.0,0.0,0.0,0.0,0.0,0.0,0.0,3.3244,3.5667,3.7914,3.9019,3.9986,4.0651,4.0475,3.863,3.6674,3.6135,3.465,3.3294,3.3162,3.3124,3.3124,3.3124,3.3124,3.3124,3.3124,3.3124,3.3206,3.3545,3.4399,3.5529,3.701,3.9019,4.0435,4.0974,4.0902,4.0475,3.9747,3.9362,3.8604,3.7433,3.6206,3.487,3.3353,3.1613,3.0532,3.0212,3.0067,2.9787,2.9415,2.9787,2.9776,2.9394,2.8735,2.8347,2.8145,2.7355,2.6938,2.6747,2.6747,2.6602,2.6332,2.6048,2.5799,2.5674,2.5576,2.5527,2.5478,0.0,0.0,0.0,0.0,0.0,0.0,2.547,2.5635,2.5937,2.6689,2.7012,2.7568,2.8574,2.8545,2.8467,2.8525,2.751,0.0,0.0,0.0,0.0,0.0,2.6143,2.6348,2.6768,2.7197,2.7656,2.8135,2.8564,2.8555,2.8135,2.7861,2.7109,2.5967,2.5518,2.5078,0.0,0.0,0.0,0.0,2.5322,2.5488,2.5742,0.0,0.0,0.0,0.0,0.0,0.0,0.0,0.0,0.0,0.0,0.0,0.0,0.0,3.4092,3.5403,3.6722,3.7638,3.8241,3.8241,3.6885,3.5445,3.5232,3.411,3.3124,3.3124,3.3124,3.3124,3.3124,3.3124,3.3124,3.3124,3.3124,3.3156,3.3357,3.4161,3.5265,3.6697,3.8969,4.0325,4.0059,4.035,4.0287,3.9735,3.9496,3.8913,3.7812,3.6713,3.5348,3.3771,3.2353,3.1008,2.9746,3.0129,2.9887,2.9052,2.9508,2.9497,2.9032,2.8742,2.8415,2.8049,2.7524,2.7214,0.0,2.7034,2.689,2.6602,2.6352,2.611,2.5868,2.5868,2.5781,2.5674,0.0,0.0,0.0,0.0,0.0,0.0,2.5266,2.5489,2.581,2.6279,2.6338,2.6816,2.8066,2.7881,2.7988,2.8809,2.8164,0.0,0.0,0.0,0.0,0.0,2.582,2.6074,2.6514,2.6904,2.7705,2.8916,2.9355,2.9375,2.9014,2.8975,2.8096,2.6504,2.5986,2.5557,2.5117,2.5117,2.5361,2.5693,2.5693,2.5674,0.0,0.0,0.0,0.0,0.0,0.0,0.0,0.0,0.0,0.0,0.0,0.0,0.0,0.0,0.0,0.0,0.0,3.6081,3.6897,3.6897,3.6119,3.5182,3.4675,3.3746,0.0,3.3011,3.2998,3.3011,3.3048,3.298,3.3011,3.3048,3.3061,3.3194,3.3709,3.4399,3.5278,3.6505,3.8026,3.8718,3.8178,3.9534,4.0249,3.9735,3.9182,3.8906,3.8856,3.6812,3.5367,3.4739,3.3801,3.2073,2.9504,3.0371,3.0123,2.8666,2.9032,2.9011,2.8566,2.8566,2.8328,2.7903,2.7448,2.7289,2.7258,2.7258,2.7078,2.6849,2.66,2.6302,2.6051,2.6129,2.5945,2.5673,0.0,0.0,0.0,0.0,0.0,0.0,0.0,0.0,0.0,0.0,2.584,2.621,2.7217,2.7529,2.7881,0.0,0.0,0.0,0.0,0.0,0.0,0.0,2.7207,2.7412,2.7832,2.7939,2.8291,2.8916,2.9355,2.9678,2.9893,2.957,2.8857,2.7812,2.7051,2.6289,2.5586,2.5586,2.5596,2.5693,2.5693,2.5527,0.0,0.0,0.0,0.0,2.6232,2.6544,0.0,0.0,0.0,0.0,0.0,0.0,0.0,0.0,3.2173,3.2503,3.2893,0.0,3.4035,3.4035,3.3847,3.3508,0.0,3.2604,3.2303,3.1876,3.1788,3.1913,3.234,3.2077,3.1926,3.234,3.2416,3.2466,3.2591,3.455,3.6709,3.868,3.9258,3.9446,3.9308,3.9659,3.9835,3.9697,3.9182,3.868,3.8228,3.6955,3.5605,3.4246,3.4271,3.3266,3.0979,3.0515,2.9954,2.9198,2.8893,2.8535,2.803,2.803,2.8028,2.7903,2.7448,2.7102,2.6781,2.6781,2.6604,2.638,2.6286,2.5993,2.5692,2.6232,2.6036,2.5508,0.0,0.0,0.0,0.0,0.0,0.0,0.0,0.0,0.0,0.0,2.5605,2.6015,2.6924,2.7226,2.7617,0.0,0.0,0.0,0.0,0.0,0.0,2.7373,2.7373,2.7568,2.7998,2.8505,2.9013,2.9502,3.0286,3.0635,3.0508,3.0059,2.9297,2.8242,2.7197,2.6357,2.5693,2.5693,2.5693,2.5693,2.5693,0.0,0.0,0.0,0.0,0.0,2.5914,2.6325,0.0,2.6872,2.7133,2.7536,0.0,0.0,0.0,0.0,3.1843,3.1838,3.1838,3.2252,3.2679,3.2679,3.2679,3.2604,3.2277,3.2014,3.175,3.1449,3.1386,3.1486,3.1775,3.18,3.1863,3.2164,3.2441,3.278,3.3294,3.509,3.7046,3.8718,3.9145,3.9421,3.9672,3.9471,3.932,3.932,3.8567,3.7852,3.7287,3.6445,3.5372,3.4001,3.4217,3.3308,3.1224,3.0726,3.0016,2.907,2.8557,2.8059,2.7624,2.7831,2.781,2.7603,2.7413,2.7164,2.6926,2.6926,2.6842,2.6691,2.6345,2.603,2.5842,2.5977,2.5732,2.5275,0.0,0.0,0.0,0.0,0.0,0.0,0.0,0.0,0.0,0.0,0.0,0.0,0.0,0.0,0.0,0.0,0.0,0.0,0.0,0.0,0.0,2.7246,2.7217,2.7486,2.8006,2.8766,2.9525,3.0283,3.1252,3.1492,3.0976,3.0818,2.9977,2.8499,2.7123,2.6211,2.5693,2.5693,2.5693,2.5693,2.5693,0.0,0.0,0.0,0.0,0.0,0.0,0.0,0.0,2.646,2.677,2.7411,2.9171,0.0,0.0,0.0,0.0,0.0,3.1361,3.1788,3.219,3.2102,3.2152,3.2177,3.2001,3.1599,3.1248,3.116,3.1148,3.1198,3.1361,3.17,3.2026,3.219,3.2767,3.3646,3.4926,3.5968,3.7033,3.8015,3.8642,3.9145,3.9534,3.9145,3.8919,3.8919,3.7826,3.6996,3.6443,3.5768,3.4906,3.3935,3.3822,3.2926,3.1158,3.1124,3.0364,2.891,2.8285,2.7769,2.732,2.7655,2.7614,2.7309,2.7309,2.7268,2.7195,2.7195,2.7195,2.7107,2.6428,2.6115,2.6074,2.5686,2.5346,2.5073,0.0,0.0,0.0,0.0,0.0,0.0,0.0,0.0,0.0,0.0,0.0,0.0,0.0,0.0,0.0,0.0,0.0,0.0,0.0,0.0,0.0,2.8105,2.8096,2.8582,2.9568,2.88,2.912,3.0553,3.0897,3.1172,3.1426,3.2751,3.2071,2.9734,2.7778,2.6475,2.5693,2.5693,2.5693,2.5693,2.5693,0.0,0.0,0.0,0.0,0.0,0.0,0.0,0.0,2.5873,2.6076,2.6309,2.7323,0.0,0.0,0.0,0.0,0.0,3.1273,3.1788,3.2102,3.1637,3.1863,3.1976,3.1072,3.0796,3.0608,3.0131,3.0043,3.0319,3.1223,3.1097,3.116,3.2064,3.3093,3.4487,3.6521,3.7349,3.8002,3.8655,3.9233,3.9421,3.9032,3.8969,3.8919,3.8919,3.7826,3.6996,3.6443,3.5403,3.4562,3.3922,3.3445,3.3064,3.2748,3.1922,3.0972,2.9943,2.9022,2.8156,2.7309,2.7382,2.7372,2.7309,2.7309,2.7081,2.6718,2.6718,2.6718,2.6677,2.6165,2.5828,2.5701,2.578,2.5468,2.5039,0.0,0.0,0.0,0.0,0.0,0.0,0.0,0.0,0.0,0.0,0.0,0.0,0.0,0.0,0.0,0.0,0.0,0.0,0.0,0.0,2.8291,2.8291,2.8291,2.8804,2.9869,3.0275,3.1116,3.2308,3.3281,3.3819,3.3924,3.3889,3.249,3.0068,2.8798,2.7551,2.6416,2.6182,2.6084,2.6074,0.0,0.0,0.0,0.0,0.0,0.0,0.0,0.0,0.0,0.0,2.5689,2.6145,2.7568,0.0,0.0,0.0,0.0,0.0,3.047,3.0934,3.1286,3.1035,3.1838,3.2466,3.1662,3.1248,3.0884,3.0344,3.0231,3.0382,3.0884,3.1248,3.2039,3.369,3.4713,3.5604,3.6596,3.7211,3.7776,3.8341,3.8906,3.9145,3.8944,3.8592,3.8278,3.7977,3.7247,3.637,3.5529,3.5002,3.4336,3.3483,3.3206,3.3124,3.3124,3.2624,3.1669,3.017,2.9176,2.8222,2.7309,2.7309,2.7309,2.7309,2.7309,2.7185,2.6988,2.6988,2.6988,2.6915,2.62,2.584,2.5698,2.5292,2.4949,2.4748,0.0,0.0,0.0,0.0,0.0,0.0,0.0,0.0,0.0,0.0,0.0,0.0,0.0,0.0,0.0,0.0,0.0,0.0,0.0,2.8144,2.8193,2.8291,2.8548,2.9258,3.0444,3.158,3.2863,3.4193,3.5542,3.6297,3.6531,3.49,3.3063,3.1155,3.023,2.8901,2.7338,2.7062,2.6714,2.6357,0.0,0.0,0.0,0.0,0.0,0.0,0.0,0.0,0.0,0.0,0.0,0.0,0.0,0.0,0.0,2.9878,3.0118,2.9817,2.9942,3.0382,3.0796,3.0796,3.165,3.2495,3.2349,3.187,3.147,3.1385,3.1246,3.1158,3.1077,3.1817,3.3106,3.5157,3.6132,3.6671,3.6971,3.7473,3.7877,3.8178,3.8718,3.8956,3.8693,3.8266,3.7776,3.7224,3.6558,3.5742,3.4731,3.46,3.4085,3.3106,3.3124,3.3124,3.3124,3.3124,3.2208,3.0531,2.9532,2.8667,2.794,2.7489,2.7441,2.7631,2.7404,2.7247,2.7154,2.7258,2.7247,2.7061,2.6196,2.5751,2.5482,2.4755,2.4569,2.4662,0.0,0.0,0.0,0.0,0.0,0.0,0.0,0.0,0.0,0.0,0.0,0.0,0.0,0.0,0.0,0.0,0.0,0.0,0.0,2.7767,2.7933,2.8271,2.926,3.0538,3.2178,3.1795,3.2868,3.5451,3.5837,3.6785,3.8159,3.6044,3.4836,3.448,3.2398,3.0352,2.8466,2.8435,2.7662,2.6387,2.6357,0.0,0.0,0.0,0.0,0.0,0.0,0.0,0.0,0.0,0.0,0.0,0.0,0.0,2.7493,2.931,2.9829,2.9905,3.0419,3.0934,3.1336,3.1336,3.106,3.1087,3.2304,3.2171,3.2097,3.3325,3.3162,3.2749,3.2488,3.2773,3.3571,3.5219,3.6433,3.75,3.8592,3.917,3.9333,3.8868,3.9295,3.922,3.8165,3.804,3.7776,3.7224,3.6207,3.5295,3.4705,3.4236,3.3684,3.3136,3.3124,3.3124,3.3124,3.3124,3.2568,3.1492,3.0531,3.0079,2.9943,2.8128,2.7762,2.8538,2.7678,2.7061,2.6698,2.7133,2.705,2.6615,2.6117,2.5368,2.459,2.4518,2.4766,2.5137,0.0,0.0,0.0,0.0,0.0,0.0,0.0,0.0,0.0,0.0,0.0,2.7344,2.8203,0.0,0.0,0.0,0.0,0.0,0.0,2.7519,2.809,2.8907,2.9569,3.1018,3.3321,3.3846,3.5392,3.8074,3.8526,3.8901,3.911,3.7282,3.5832,3.4763,3.3294,3.1772,3.0442,2.9803,2.9423,2.9058,2.7529,2.6972,0.0,0.0,0.0,0.0,0.0,0.0,0.0,0.0,2.5955,2.6423,2.8011,2.8251,2.8211,2.9456,2.9792,2.9842,3.0043,3.0495,3.0909,3.0909,3.0826,3.1185,3.2751,3.3322,3.3577,3.3738,3.4191,3.4422,3.3935,3.4406,3.5279,3.6534,3.7597,3.8429,3.8856,3.9044,3.8969,3.8404,3.8517,3.8341,3.7575,3.75,3.7262,3.6757,3.5968,3.5257,3.4705,3.4198,3.3646,3.3136,3.3124,3.3124,3.3124,3.2717,3.2359,3.1963,3.1368,3.0756,3.017,2.8817,2.8351,2.8631,2.7715,2.7206,2.7061,2.7237,2.704,2.6496,2.5761,2.5044,2.4538,2.4817,2.5034,2.523,0.0,0.0,0.0,0.0,0.0,0.0,0.0,0.0,2.5947,0.0,0.0,0.0,0.0,2.7598,0.0,0.0,0.0,0.0,2.6807,2.7396,2.8167,2.8991,3.0071,3.1732,3.3935,3.5213,3.7021,3.9357,4.0054,4.0042,3.932,3.7866,3.6613,3.5474,3.4245,3.3192,3.2301,3.1273,3.0756,3.0477,2.8604,2.7989,0.0,0.0,0.0,0.0,0.0,0.0,0.0,0.0,2.6565,2.7273,2.8211,2.8502,2.8673,2.9546,2.9792,2.9792,2.9792,3.0068,3.0407,3.057,3.0767,3.1394,3.3361,3.4118,3.4598,3.5244,3.5355,3.535,3.5267,3.5238,3.5747,3.74,3.8133,3.8617,3.8982,3.8768,3.8391,3.7814,3.7902,3.7713,3.6998,3.7086,3.6885,3.6157,3.5604,3.4994,3.45,3.3935,3.347,3.3124,3.2905,3.2805,3.2805,3.224,3.1951,3.1964,3.1693,3.1117,3.0332,2.9184,2.8571,2.8438,2.7615,2.7097,2.6884,2.7029,2.6812,2.6279,2.5523,2.49,2.4559,2.5024,2.5272,2.5482,0.0,0.0,0.0,0.0,0.0,0.0,0.0,0.0,2.5889,2.6328,2.6387,0.0,0.0,0.0,0.0,0.0,0.0,0.0,2.6348,2.7347,2.8072,2.8506,3.0986,3.2914,3.3975,3.5604,3.7192,3.8815,3.9862,3.9838,3.8779,3.7697,3.718,3.7108,3.5533,3.4509,3.3929,3.2868,3.1514,3.0089,2.9513,2.907,2.8683,0.0,0.0,0.0,0.0,0.0,0.0,0.0,2.6935,2.7273,2.8211,2.8502,2.8661,2.9546,2.9792,2.9792,2.9792,2.9792,2.993,3.0482,3.0767,3.1536,3.4046,3.4349,3.4977,3.8063,3.6727,3.5375,3.6489,3.5079,3.4674,3.7518,3.7789,3.799,3.9119,3.8516,3.7801,3.7249,3.7651,3.755,3.6505,3.6895,3.6709,3.5571,3.4981,3.4474,3.3935,3.337,3.3124,3.3111,3.2516,3.2215,3.2202,3.1662,3.1386,3.1386,3.1373,3.1153,3.0764,2.9218,2.8351,2.8005,2.7445,2.6717,2.5962,2.6418,2.6335,2.5823,2.5399,2.49,2.4559,2.5024,2.5502,2.5875,0.0,0.0,0.0,0.0,0.0,0.0,0.0,0.0,2.5889,2.6328,2.6387,0.0,0.0,0.0,0.0,0.0,0.0,0.0,2.6384,2.7359,2.8449,2.9644,3.1454,3.2885,3.4003,3.5599,3.7,3.8238,3.8539,3.8346,3.7661,3.6964,3.6435,3.6062,3.5593,3.4856,3.3956,3.3304,3.2783,3.2218,3.0617,3.0112,3.0156,0.0,0.0,0.0,0.0,0.0,0.0,0.0,0.0,0.0,2.9339,2.9417,2.9456,2.9702,2.9792,2.9792,2.9792,3.008,3.0407,3.057,3.1307,3.2488,3.4225,3.4646,3.531,3.7671,3.7227,3.6517,3.6856,3.6606,3.6677,3.7529,3.7758,3.7891,3.8102,3.7891,3.743,3.6719,3.6408,3.6097,3.5818,3.5579,3.5316,3.4944,3.4462,3.4073,3.3909,3.337,3.2893,3.2478,3.2303,3.2026,3.1637,3.111,3.0846,3.0834,3.0444,3.0626,3.1158,3.0056,2.9518,2.9316,2.7821,2.7061,2.674,2.5957,2.5544,2.5378,2.4879,2.4621,2.4559,2.5024,2.5272,2.5513,0.0,0.0,0.0,0.0,0.0,0.0,2.5693,2.5693,2.5781,2.6094,2.6133,2.6289,0.0,0.0,0.0,0.0,0.0,0.0,2.7273,2.825,2.933,3.0491,3.196,3.3243,3.4294,3.5497,3.6302,3.6723,3.736,3.7288,3.6567,3.6459,3.623,3.593,3.593,3.5461,3.457,3.3897,3.3464,3.3166,3.1675,3.1294,3.147,0.0,0.0,0.0,0.0,0.0,0.0,0.0,0.0,0.0,2.9378,2.9534,2.9792,2.9792,2.9792,2.9792,2.9792,3.0193,3.067,3.0871,3.1833,3.311,3.4605,3.5696,3.6753,3.7958,3.7573,3.7142,3.7599,3.7267,3.7176,3.7865,3.7839,3.7805,3.7894,3.7524,3.6979,3.6281,3.5789,3.542,3.5194,3.468,3.4299,3.4085,3.3759,3.337,3.293,3.2792,3.2478,3.1901,3.1687,3.1424,3.1085,3.0557,3.0281,3.0281,2.9942,3.0131,3.0758,3.0183,2.9627,2.9056,2.7552,2.69,2.6835,2.5679,2.5189,2.5137,2.4683,2.4497,2.4559,2.5024,2.5189,2.5292,0.0,0.0,2.5869,2.583,0.0,0.0,2.5693,2.5693,2.5693,2.5693,2.5693,2.584,0.0,0.0,0.0,2.7754,0.0,0.0,0.0,2.967,3.0479,3.1067,3.2533,3.3813,3.4763,3.5304,3.5304,3.4823,3.6314,3.6531,3.5557,3.6134,3.6386,3.6338,3.6386,3.6062,3.54,3.4354,3.3645,3.3104,3.2623,3.243,3.2418,3.237,0.0,0.0,0.0,0.0,0.0,0.0,0.0,0.0,2.8882,2.917,2.9792,2.9792,2.9792,2.9804,2.9854,3.0231,3.0758,3.1323,3.2357,3.3606,3.5066,3.6988,3.8441,3.854,3.7808,3.7469,3.8449,3.7377,3.6841,3.8383,3.8028,3.772,3.8173,3.7352,3.6476,3.5884,3.5554,3.5177,3.4625,3.4073,3.352,3.3011,3.2973,3.2478,3.1449,3.1863,3.1888,3.1336,3.0859,3.0595,3.0545,3.0043,2.9792,2.9792,2.9792,2.9792,2.9792,2.9792,2.9111,2.7798,2.6954,2.6528,2.6357,2.5577,2.5205,2.5086,2.4738,2.4615,2.4667,2.5093,2.5249,2.5311,0.0,0.0,2.7355,2.6938,0.0,0.0,2.5693,2.5693,2.5693,2.5693,2.5693,2.5723,2.582,2.6559,0.0,2.7345,2.8046,0.0,0.0,2.9862,3.0589,3.1505,3.3047,3.4126,3.4763,3.4895,3.5041,3.5126,3.568,3.5728,3.532,3.6066,3.6283,3.6109,3.6319,3.5653,3.4294,3.3717,3.2899,3.2042,3.1934,3.1886,3.1849,3.1384,3.1115,0.0,0.0,0.0,0.0,0.0,0.0,0.0,2.9585,2.9663,2.9792,2.9792,2.9792,2.988,3.0319,3.052,3.0846,3.18,3.3063,3.4261,3.52,3.5935,3.6579,3.7227,3.7887,3.8292,3.8109,3.8122,3.8135,3.8083,3.7932,3.7632,3.7085,3.6793,3.6282,3.5384,3.4825,3.4199,3.3526,3.2905,3.234,3.18,3.175,3.165,3.1399,3.1499,3.1323,3.0796,3.067,3.0407,2.998,2.9854,2.9792,2.9792,2.9792,2.9792,2.9792,2.9792,2.9271,2.831,2.7352,2.6568,2.5941,2.5741,2.5253,2.4717,2.5295,2.5505,2.5505,2.5613,2.5656,2.5732,0.0,0.0,0.0,0.0,0.0,0.0,0.0,0.0,2.6152,2.5742,2.5918,2.6153,2.64,2.7081,0.0,0.0,2.9272,2.9954,3.0461,3.0761,3.1374,3.2418,3.3717,3.4378,3.4402,3.4547,3.4703,3.4846,3.4823,3.504,3.5392,3.6367,3.672,3.6576,3.686,3.6118,3.4594,3.3921,3.3032,3.207,3.207,3.1946,3.1681,3.1404,3.0983,3.0398,2.9593,0.0,0.0,0.0,0.0,0.0,0.0,0.0,2.9792,2.9792,2.9792,2.9854,3.0143,3.0595,3.1311,3.2679,3.3557,3.4325,3.5092,3.543,3.5773,3.6293,3.7182,3.7808,3.7521,3.7939,3.8135,3.756,3.7469,3.7214,3.6467,3.6269,3.5941,3.5097,3.4303,3.3571,3.2929,3.2021,3.1336,3.1047,3.1022,3.0896,3.0645,3.0871,3.0771,3.0231,3.0218,3.008,2.9792,2.9792,2.9792,2.9792,2.9792,2.9792,2.9792,2.9792,2.9546,2.9079,2.8171,2.7516,2.7058,2.6607,2.6163,2.5757,2.5788,2.6069,2.6359,2.5944,2.6069,2.6404,0.0,0.0,0.0,0.0,0.0,0.0,0.0,0.0,0.0,2.6445,2.6614,2.7006,2.7535,2.7904,2.869,0.0,0.0,0.0,3.1509,0.0,0.0,3.3116,3.4054,3.4306,3.3874,3.4098,3.4252,3.4334,3.4127,3.4647,3.5864,3.6579,3.7009,3.7158,3.7199,3.6477,3.5065,3.4087,3.3092,3.2214,3.2118,3.1805,3.1428,3.1332,3.0711,2.9881,2.9352,2.9403,2.964,2.9239,0.0,0.0,0.0,0.0,2.9779,2.9679,2.9641,2.9641,2.9641,3.0432,3.1637,3.3206,3.3608,3.3803,3.4635,3.4939,3.5135,3.5386,3.6194,3.6841,3.6841,3.726,3.7429,3.6933,3.6841,3.6645,3.6057,3.5817,3.5452,3.4667,3.3837,3.3035,3.2387,3.1256,3.057,3.0482,3.047,3.0281,2.9817,3.0231,3.0269,2.9804,2.9792,2.9792,2.9792,2.9792,2.9792,2.9792,2.9792,2.9792,2.9792,2.9792,2.9792,2.974,2.8675,2.8333,2.841,2.7544,2.7151,2.7028,2.6483,2.6689,2.7273,2.6524,2.673,2.7232,0.0,0.0,0.0,0.0,0.0,0.0,0.0,0.0,0.0,0.0,2.8632,2.8592,2.915,2.919,2.9273,2.9483,3.0358,3.0917,3.0987,0.0,0.0,3.2599,3.3176,3.3464,3.3392,3.3439,3.3659,3.4063,3.4001,3.5031,3.6977,3.617,3.6185,3.6812,3.6173,3.5367,3.4445,3.2929,3.1825,3.1048,3.0591,3.0362,3.0242,2.9785,2.9532,2.934,2.8799,2.8766,2.898,2.9077,2.9275,0.0,0.0,0.0,2.9691,2.9189,2.9001,2.9001,2.9001,2.9867,3.0997,3.2152,3.2441,3.2634,3.3444,3.367,3.3743,3.3943,3.5167,3.6227,3.6227,3.6292,3.6319,3.624,3.6227,3.6031,3.5482,3.5361,3.4884,3.3584,3.3171,3.2503,3.1229,3.0815,3.0419,2.9942,2.9905,2.9867,2.9792,2.9867,2.9867,2.9792,2.9792,2.9792,2.9792,2.9792,2.9792,2.9792,2.9792,2.9792,2.9792,2.9792,2.9792,2.9703,2.7832,2.7596,2.8466,2.7789,2.7336,2.7191,2.7891,2.8211,2.8291,2.8171,2.8211,2.8303,0.0,0.0,0.0,0.0,0.0,0.0,0.0,0.0,0.0,0.0,0.0,2.9371,3.0274,3.0057,3.0072,3.0617,3.1081,3.1235,3.0934,3.1324,3.1721,3.2022,3.2551,3.2851,3.2851,3.2765,3.3024,3.3555,3.3194,3.4262,3.6722,3.6293,3.6883,3.8379,3.7568,3.6529,3.5176,3.3428,3.2033,3.1034,3.0471,3.0072,2.9811,2.9569,2.9262,2.9012,2.873,2.8724,2.8791,2.8882,2.9157,2.9419,2.956,0.0,0.0,0.0,2.8888,2.8963,2.9327,2.9502,3.0005,3.1399,3.1537,3.1461,3.2126,3.2418,3.2542,3.2625,3.3556,3.4529,3.5306,3.5813,3.6005,3.5704,3.5652,3.5338,3.4463,3.4345,3.3977,3.3008,3.2338,3.1712,3.1147,3.0516,3.0055,2.9817,2.9792,2.9792,2.9792,2.9792,2.9792,2.9792,2.9792,2.9792,2.9792,2.9792,2.9792,2.9792,2.9792,2.9792,2.9779,2.9453,2.9315,2.9239,2.8349,2.8074,2.8285,2.8296,2.8226,2.812,2.8382,2.8791,2.917,2.8673,2.8791,2.917,0.0,0.0,0.0,0.0,0.0,0.0,0.0,0.0,0.0,0.0,0.0,3.029,3.1286,0.0,0.0,0.0,3.1512,3.1392,3.1139,3.0995,3.1151,3.1681,3.1937,3.2199,3.2376,3.2276,3.2484,3.3079,3.2585,3.3803,3.6619,3.6619,3.7764,3.9873,3.8816,3.7406,3.5702,3.386,3.2467,3.1394,3.0479,2.9817,2.948,2.948,2.9224,2.8882,2.8882,2.8882,2.8882,2.8961,2.9145,2.9419,2.947,2.965,0.0,0.0,0.0,2.8599,2.9038,2.895,2.9051,3.0419,3.0683,3.0721,3.111,3.1461,3.1696,3.1696,3.2176,3.2931,3.3946,3.4938,3.5409,3.4862,3.493,3.4672,3.3522,3.3496,3.3313,3.2568,3.1733,3.115,3.1009,3.0251,2.9792,2.9792,2.9792,2.9792,2.9792,2.9792,2.9792,2.9792,2.9792,2.9792,2.9792,2.9792,2.9792,2.9792,2.9792,2.9792,2.9779,2.934,2.9026,2.8888,2.875,2.8561,2.8348,2.8725,2.8976,2.9113,2.8919,2.9209,2.9702,2.9091,2.9248,2.9702,0.0,0.0,0.0,0.0,0.0,0.0,0.0,0.0,0.0,0.0,0.0,3.1767,3.2352,3.1509,3.0872,3.0915,3.0958,3.1163,3.1633,3.1199,3.1151,3.1681,3.1259,0.0,3.2018,3.2006,3.2257,3.2717,3.2698,3.4212,3.7149,3.7149,3.8329,4.04,3.8781,3.6978,3.5142,3.3525,3.2649,3.2161,3.0012,2.9165,2.9128,2.9128,2.9116,2.9091,2.9091,2.9091,2.9131,2.9302,2.938,2.9419,2.9702,2.9792,2.9679,0.0,0.0,0.0,2.7406,2.777,2.8298,2.8863,2.9803,3.062,3.0658,3.1035,3.1427,3.1427,3.1668,3.1868,3.1932,3.3209,3.4027,3.3416,3.3931,3.4045,3.2894,3.3234,3.3169,3.198,3.1461,3.0996,3.0496,3.0062,2.9792,2.9792,2.9792,2.9792,2.9792,2.9792,2.9792,2.9792,2.9792,2.9792,2.9792,2.9792,2.9792,2.9792,2.9792,2.9792,2.9792,2.9767,2.9453,2.8863,2.8373,2.8423,2.885,2.8888,2.9252,2.9741,2.974,2.9753,2.9792,2.9753,2.9753,2.9792,0.0,0.0,0.0,0.0,0.0,0.0,0.0,0.0,0.0,0.0,0.0,0.0,0.0,3.1829,3.1428,3.1428,3.1115,3.0995,3.1187,3.0663,3.0645,3.1175,3.1019,3.1262,3.1981,3.1772,3.2019,3.2711,3.2479,3.3483,3.5617,3.632,3.6897,3.7301,3.7801,3.7426,3.6338,3.3997,3.2865,3.2488,3.0642,2.9858,2.9821,2.945,2.9275,2.9275,2.9275,2.9197,2.9091,2.9157,2.9275,2.9419,2.9509,2.965,2.9603,2.8674,2.8122,2.7733,2.7381,2.7431,2.7795,2.8662,2.8925,2.9101,2.9414,2.9967,3.0256,2.9892,3.0434,3.1017,3.1017,3.2028,3.2748,3.2542,3.2846,3.2838,3.2045,3.2241,3.2176,3.1378,3.0931,3.0624,3.0419,3.0049,2.9792,2.9792,2.9792,2.9792,2.9792,2.9792,2.9792,2.9792,2.9792,2.9792,2.9792,2.9792,2.9792,2.9792,2.9792,2.9792,2.9792,2.9792,2.9277,2.8436,2.8963,2.8888,2.8423,2.875,2.9013,2.9277,2.9641,2.9792,2.9792,2.9792,2.9792,2.9792,0.0,0.0,0.0,3.4775,0.0,3.4078,3.3621,3.3248,3.2887,3.2551,0.0,0.0,0.0,0.0,3.1705,3.1705,3.138,3.1187,3.1187,3.0694,3.0633,3.1163,3.105,3.1336,3.2113,3.1976,3.2222,3.2853,3.2607,3.3269,3.4738,3.5466,3.5918,3.6072,3.6671,3.691,3.6784,3.4997,3.3984,3.3526,3.1481,3.0882,3.1132,3.0371,3.0157,3.0306,3.0159,2.9866,2.9586,2.9401,2.9404,2.9509,2.9509,2.9525,2.9277,2.816,2.7959,2.7946,2.7241,2.7268,2.7695,2.8235,2.8386,2.8423,2.8574,2.9252,2.9628,2.9013,2.964,3.0331,3.0331,3.0898,3.1388,3.166,3.2052,3.2029,3.1345,3.1513,3.155,3.1052,3.0634,3.0406,3.0406,3.0049,2.9792,2.9792,2.9792,2.9792,2.9792,2.9792,2.9792,2.9792,2.9792,2.9792,2.9792,2.9792,2.9792,2.9792,2.9792,2.9792,2.9792,2.9792,2.9377,2.8712,2.9465,2.9151,2.816,2.8913,2.9176,2.9252,2.9641,2.9792,2.9792,2.9792,2.9792,2.9792,3.5497,3.5184,3.4823,3.4823,3.4823,3.4655,3.4126,3.4042,3.3669,3.2659,0.0,0.0,0.0,0.0,0.0,3.1753,3.1741,3.1729,3.1729,3.1235,3.1175,3.1693,3.1416,3.1595,3.2376,3.2593,3.2853,3.3124,3.3124,3.3621,3.4675,3.4688,3.5542,3.6998,3.5416,3.529,3.6304,3.6292,3.5956,3.5232,3.2503,3.2051,3.2973,3.18,3.1687,3.2077,3.1537,3.1022,3.0507,2.998,2.9792,2.9792,2.9792,2.9402,2.8675,2.762,2.7695,2.7896,0.0,0.0,0.0,2.7444,2.8097,2.8712,2.8222,2.8963,2.9578,2.8976,2.9365,2.9767,2.9767,2.9779,3.0045,3.0759,3.153,3.173,3.0815,3.1151,3.1357,3.1014,3.0634,3.0406,3.0406,3.0049,2.9792,2.9792,2.9792,2.9792,2.9792,2.9792,2.9792,2.9792,2.9792,2.9792,2.9792,2.9792,2.9792,2.9792,2.9792,2.9792,2.9792,2.9792,2.9779,2.9767,2.9779,2.9164,2.821,2.934,2.9792,2.9792,2.9792,2.9792,2.9792,2.9792,2.9792,2.9792,3.5563,3.5478,3.538,3.538,3.538,3.5197,3.466,3.4574,3.4283,0.0,0.0,0.0,3.3101,3.3089,3.3089,3.3089,3.2738,3.2519,3.2519,3.2198,3.2054,3.2201,3.211,3.2228,3.2593,3.268,3.2853,3.3124,3.3124,3.3232,3.3533,3.3935,3.4161,3.4268,3.4575,3.4449,3.4004,3.3533,3.3972,3.4705,3.2353,3.1813,3.234,3.1248,3.067,3.0444,3.0294,3.0143,2.9993,2.9842,2.9792,2.9792,2.9792,2.9402,2.875,2.8084,2.8273,2.8461,2.7356,0.0,0.0,0.0,0.0,0.0,2.8047,2.8348,2.8524,2.836,2.8775,2.9126,2.9126,2.9515,2.9881,3.007,3.0404,3.0547,3.0318,3.0509,3.0688,3.0584,3.033,3.019,3.019,2.9934,2.9792,2.9792,2.9792,2.9792,2.9792,2.9792,2.9792,2.9792,2.9792,2.9792,2.9792,2.9792,2.9792,2.9792,2.9792,2.9792,2.9792,2.9792,2.9566,2.9189,2.9616,2.9377,2.8725,2.949,2.9792,2.9792,2.9792,2.9792,2.9792,2.9792,2.9792,2.9792,3.562,3.562,3.562,3.562,3.562,3.551,3.5203,3.5153,3.491,0.0,0.0,0.0,3.3827,3.3952,3.4,3.3768,3.328,3.2975,3.2975,3.2607,3.24,3.24,3.2475,3.2593,3.2711,3.281,3.2939,3.3124,3.3124,3.3124,3.3124,3.3407,3.3382,3.3136,3.3495,3.3319,3.2667,3.1876,3.2641,3.4248,3.2717,3.2554,3.3144,3.2051,3.1587,3.1449,3.0972,3.0959,3.1022,3.0105,2.9942,3.0055,2.9578,2.9365,2.9139,2.8335,2.8499,2.87,2.7858,2.8034,2.8411,2.8411,0.0,0.0,2.8034,2.8109,2.8047,2.7808,2.8197,2.8586,2.8586,2.8863,2.9164,2.9402,2.9542,2.9732,3.0037,3.0381,3.056,3.0432,3.0432,3.0341,3.01,2.9934,2.9792,2.9792,2.9792,2.9792,2.9792,2.9792,2.9792,2.9792,2.9792,2.9792,2.9792,2.9792,2.9792,2.9792,2.9792,2.9792,2.9792,2.9792,2.9616,2.9315,2.9641,2.9603,2.9315,2.9654,2.9792,2.9792,2.9792,2.9792,2.9792,2.9792,2.9792,2.9792,0.0,3.5716,3.5716,3.5716,3.5766,3.5803,3.5803,3.5803,3.5607,0.0,3.5127,3.493,3.4505,3.478,3.4841,3.4361,3.3699,3.333,3.333,3.2764,3.2475,3.2475,3.2636,3.2766,3.2766,3.2982,3.3124,3.3124,3.3124,3.3124,3.3124,3.3124,3.3048,3.291,3.2353,3.2051,3.1888,3.106,3.18,3.3495,3.3006,3.3508,3.4412,3.3244,3.3106,3.3395,3.2328,3.2277,3.2416,3.0444,3.0118,3.0344,2.9302,2.934,2.9503,2.8499,2.8549,2.8787,2.8335,2.8561,2.8888,2.8888,2.8511,0.0,2.8109,2.8059,2.7896,2.7457,2.777,2.8122,2.8185,2.8247,2.8448,2.89,2.8988,2.924,2.9973,3.0467,3.0698,3.0433,3.0622,3.0607,3.0214,2.9933,2.9792,2.9792,2.9792,2.9792,2.9792,2.9792,2.9792,2.9792,2.9792,2.9792,2.9792,2.9792,2.9792,2.9792,2.9792,2.9792,2.9792,2.9792,2.9792,2.9792,2.9729,2.9729,2.9779,2.9729,2.9729,2.9792,2.9792,2.9792,2.9792,2.9792,2.9792,2.9792,3.6216,3.6216,3.6216,3.6216,3.6591,3.6878,3.6878,3.6878,3.6955,3.7035,3.7072,3.7084,3.7229,3.671,3.6365,3.6253,3.4904,3.4099,3.4099,3.3358,3.2952,3.2952,3.2995,3.3025,3.3025,3.3068,3.3124,3.3124,3.3124,3.3124,3.3124,3.3124,3.2634,3.1712,3.1599,3.1072,3.0306,3.0959,3.1248,3.1248,3.1135,3.2014,3.3232,3.1687,3.116,3.1173,3.0495,3.0331,3.0369,2.9942,2.9867,2.9917,2.9691,2.9377,2.9013,2.88,2.8813,2.8863,2.8762,2.8813,2.8888,2.8888,2.8511,0.0,2.8109,2.7758,2.7544,2.7871,2.8034,2.8235,2.865,2.9151,2.9503,2.9603,2.9616,2.9666,2.9856,2.9957,3.0146,3.0525,3.0234,3.0159,3.0459,3.0094,2.9792,2.9792,2.9792,2.9792,2.9792,2.9792,2.9792,2.9792,2.9792,2.9792,2.9792,2.9792,2.9792,2.9792,2.9792,2.9792,2.9792,2.9792,2.9792,2.9767,2.9302,2.9365,2.9754,2.9289,2.9365,2.9792,2.9792,2.9792,2.9792,2.9792,2.9792,2.9792,3.6405,3.6405,3.6405,3.6405,3.6631,3.6908,3.7149,3.7186,3.7326,3.7729,3.8054,3.8066,3.7663,3.749,3.7167,3.6666,3.5581,3.4774,3.4512,3.3859,3.337,3.3124,3.3124,3.3124,3.3124,3.3124,3.3124,3.3124,3.3124,3.293,3.2641,3.2641,3.2051,3.0997,3.0997,3.0545,2.9829,3.0369,3.0746,3.1022,3.1298,3.1901,3.2554,3.1725,3.1411,3.1336,3.0783,3.0244,2.988,3.0407,3.0419,3.0156,2.988,2.9779,2.9716,2.944,2.9365,2.9365,2.9365,2.9365,2.9365,2.9365,2.8938,0.0,0.0,2.8084,2.777,2.8047,2.7883,2.777,2.8059,2.8348,2.8624,2.8913,2.895,2.9151,2.9716,3.003,3.0206,3.0206,3.0206,3.0206,3.0206,2.9955,2.9792,2.9792,2.9792,2.9792,2.9792,2.9792,2.9792,2.9792,2.9792,2.9792,2.9792,2.9792,2.9792,2.9792,2.9792,2.9792,2.9792,2.9792,2.9641,2.934,2.9013,2.9051,2.934,2.9013,2.9277,2.9792,2.9792,2.9792,2.9792,2.9792,2.9792,2.9792,3.6405,3.6405,3.6405,3.6405,3.6505,3.6719,3.7111,3.7186,3.7374,3.7939,3.8605,3.868,3.7764,3.7864,3.7739,3.7109,3.6019,3.5295,3.5203,3.4286,3.3545,3.3136,3.3124,3.3074,3.2918,3.3061,3.3124,3.3124,3.3124,3.278,3.2215,3.2215,3.1637,3.062,3.062,3.0419,3.0093,2.9993,3.0507,3.1424,3.1763,3.2102,3.234,3.2026,3.1976,3.1964,3.1323,3.0532,2.9942,3.0922,3.0896,3.0407,3.0055,3.0181,3.0369,2.993,2.9792,2.9792,2.9792,2.9792,2.9792,2.9792,2.944,2.9026,0.0,0.0,0.0,2.826,2.7908,2.7632,2.7745,2.767,2.7745,2.8185,2.826,2.8586,2.9503,3.0105,3.0331,2.9993,3.0055,3.0043,2.9817,2.9691,2.9666,2.9779,2.9792,2.9792,2.9792,2.9792,2.9792,2.9792,2.9792,2.9792,2.9792,2.9792,2.9792,2.9792,2.9792,2.9792,2.9792,2.9792,2.9528,2.9051,2.8825,2.885,2.9076,2.8825,2.9176,2.9792,2.9792,2.9792,2.9792,2.9792,2.9792,2.9792,3.6405,3.6405,3.6405,3.6405,3.6807,3.7111,3.7174,3.7186,3.7374,3.7939,3.8931,3.9546,3.9421,3.8567,3.8366,3.9245,3.6558,3.5416,3.681,3.4562,3.3144,3.3124,3.3124,3.283,3.2328,3.2817,3.3124,3.3124,3.3124,3.278,3.2215,3.2215,3.1637,3.062,3.062,3.0834,3.1185,3.0721,3.0859,3.1348,3.0959,3.1675,3.2817,3.1348,3.1085,3.1348,3.0331,2.9892,2.988,3.0495,3.0331,2.9955,3.0382,3.0231,2.988,2.9817,2.9792,2.9792,2.9792,2.9792,2.9792,2.9792,2.9741,2.9566,2.9013,0.0,2.88,2.88,0.0,2.89,2.9415,0.0,0.0,2.8787,2.88,2.8838,2.8963,2.9528,3.0043,3.047,2.9264,2.8762,2.9704,2.9327,2.9239,2.9754,2.9792,2.9792,2.9792,2.9792,2.9792,2.9792,2.9792,2.9792,2.9792,2.9792,2.9792,2.9792,2.9792,2.9792,2.9792,2.9792,2.9754,2.9641,2.8637,2.8762,2.9616,2.8612,2.8825,2.9792,2.9792,2.9792,2.9792,2.9792,2.9792,2.9792,3.6405,3.6405,3.6405,3.6405,3.6606,3.6971,3.7563,3.8492,3.9082,3.8994,3.9672,4.0049,3.9722,3.927,3.9044,3.9195,3.7638,3.6659,3.6734,3.5341,3.4361,3.4048,3.3721,3.3445,3.3194,3.2792,3.2579,3.2579,3.2252,3.1813,3.1286,3.1286,3.1047,3.0608,3.0281,3.0432,3.0922,3.0708,3.0746,3.0947,3.1035,3.1486,3.1989,3.0997,3.0758,3.0846,3.0068,2.9792,2.9829,3.0055,2.998,2.9829,3.0068,2.998,2.9792,2.9792,2.9792,2.9792,2.9792,2.9792,2.9792,2.9792,2.9792,2.9729,2.9478,2.9428,2.9428,2.9428,0.0,0.0,0.0,0.0,0.0,0.0,2.8888,2.8888,2.8888,2.8586,2.8787,2.9993,2.9515,2.9139,2.9277,2.9038,2.8863,2.8825,2.9114,2.9289,2.9289,2.9289,2.9453,2.9779,2.9792,2.9792,2.9792,2.9792,2.9792,2.9792,2.9792,2.9792,2.9792,2.9792,2.9616,2.9252,2.8448,2.8561,2.9239,2.8436,2.8775,2.9792,2.9792,2.9792,2.9792,2.9792,2.9792,2.9792,3.6405,3.6405,3.6405,3.6405,3.6405,3.6732,3.7638,3.8944,3.9735,3.9496,3.9948,4.0199,3.9948,4.0061,4.0099,4.0011,3.9057,3.8203,3.7575,3.6235,3.5194,3.4525,3.4261,3.3909,3.3445,3.2792,3.2365,3.2215,3.1662,3.1273,3.1047,3.0758,3.0696,3.0809,3.0407,3.0563,3.114,3.114,3.1247,3.1445,3.1323,3.1135,3.0934,3.0708,3.052,3.0331,2.993,2.9792,2.9817,2.9967,2.9917,2.9817,2.9967,2.9917,2.9792,2.9792,2.9792,2.9792,2.9792,2.9792,2.9792,2.9792,2.9792,2.9792,2.9792,2.9905,2.998,2.9829,2.9578,0.0,0.0,0.0,2.8888,2.8888,0.0,2.8888,2.8888,2.8235,2.8185,2.9415,2.9553,2.939,2.8938,2.8888,2.8725,2.836,2.8662,2.8825,2.8675,2.8813,2.9076,2.9541,2.9704,2.9792,2.9792,2.9792,2.9792,2.9792,2.9792,2.9792,2.9792,2.9792,2.9566,2.9139,2.8574,2.8649,2.9076,2.8561,2.8913,2.9792,2.9792,2.9792,2.9792,2.9792,2.9792,2.9792,3.6405,3.6405,3.6405,3.6405,3.6405,3.6606,3.7123,3.7713,3.8278,3.8831,3.9383,3.9923,4.0438,4.0912,4.1706,4.276,4.0877,3.9848,4.035,3.7301,3.5019,3.3972,3.4424,3.389,3.2303,3.278,3.278,3.2215,3.1662,3.165,3.2139,3.111,3.0884,3.1361,3.1348,3.1782,3.2541,3.2541,3.2961,3.3448,3.1657,3.0508,2.9905,3.0419,3.0281,2.9817,2.9804,2.9792,2.988,3.0407,3.0231,2.988,3.0419,3.0218,2.9792,2.9792,2.9792,2.9792,2.9792,2.9792,2.9792,2.9792,2.9792,2.9792,2.9792,3.0206,3.0432,2.9905,3.0206,3.0407,2.9867,2.9302,2.8888,2.8888,2.8888,0.0,0.0,2.8863,2.8863,2.8913,2.8913,2.8913,2.8888,2.8888,2.8888,2.8863,2.8888,2.8662,2.816,2.8599,2.89,2.8913,2.9503,2.9792,2.9792,2.9792,2.9792,2.9792,2.9792,2.9792,2.9792,2.9792,2.9779,2.9729,2.9151,2.9239,2.9716,2.9139,2.9252,2.9792,2.9792,2.9792,2.9792,2.9792,2.9792,2.9792,3.7222,3.7315,3.7129,3.6499,3.6405,3.6719,3.7588,3.8831,3.9998,4.0981,4.1844,4.2911,4.4217,4.4518,4.4631,4.4644,4.3275,4.1869,4.0601,3.912,3.7626,3.6144,3.6257,3.5742,3.4405,3.3897,3.3634,3.364,3.2286,3.2228,3.3343,3.2165,3.2101,3.304,3.2448,3.2424,3.2791,3.304,3.2934,3.257,3.1944,3.1431,3.0984,3.0313,2.9955,2.9792,2.9792,2.9792,2.9817,3.0005,2.9942,2.9829,3.0018,2.9942,2.9792,2.9792,2.9792,2.9792,2.9792,2.9792,2.9792,2.9792,2.9792,2.9792,2.9792,3.0218,3.0457,2.9905,3.0231,3.0457,2.9892,2.9628,2.9503,2.9503,2.9503,2.9239,0.0,2.8072,2.7971,2.8348,2.8386,2.8524,2.8863,2.8562,2.8235,2.7871,2.7846,2.7758,2.757,2.7733,2.8172,2.8863,2.9076,2.9402,2.9792,2.9792,2.9792,2.9792,2.9792,2.9792,2.9792,2.9792,2.9792,2.9767,2.9176,2.9252,2.9741,2.9126,2.9277,2.9792,2.9792,2.9792,2.9792,2.9792,2.9792,2.9792,3.8245,3.8283,3.8024,3.7036,3.6792,3.696,3.7864,3.9597,4.1141,4.2087,4.3463,4.4969,4.6501,4.7223,4.7363,4.6802,4.6277,4.4815,4.2083,4.1441,4.0337,3.8407,3.8282,3.7614,3.627,3.5564,3.5113,3.4909,3.3741,3.3633,3.4458,3.3555,3.3344,3.3711,3.3661,3.3413,3.307,3.3917,3.3767,3.2875,3.2613,3.2218,3.1746,3.0927,3.0381,3.0133,3.0471,3.0432,3.0241,3.0508,3.0432,3.0203,3.0203,3.0203,3.0139,2.9869,3.0011,3.0139,2.9856,2.9792,2.9792,2.9792,2.9792,2.9792,2.9792,3.0218,3.0457,2.9905,3.0231,3.0457,2.9892,2.9792,2.9792,2.9792,2.9792,2.9402,0.0,2.7971,2.7921,2.8084,2.8285,2.8499,2.8863,2.8574,2.8084,2.7344,2.7281,2.7241,2.704,2.7216,2.7695,2.8574,2.8787,2.9202,2.9779,2.9792,2.9792,2.9792,2.9792,2.9792,2.9792,2.9792,2.9792,2.9779,2.9402,2.9453,2.9767,2.939,2.9453,2.9792,2.9792,2.9792,2.9792,2.9792,2.9792,2.9792,3.9363,3.9312,3.9029,3.8154,3.7617,3.752,3.81,4.0066,4.1717,4.2402,4.4434,4.6305,4.7594,4.9147,4.9908,4.9291,4.9791,4.8521,4.4894,4.4278,4.3006,4.055,4.0373,3.9543,3.7779,3.7738,3.7152,3.5993,3.5951,3.5791,3.5508,3.5209,3.4536,3.3604,3.5023,3.4761,3.3389,3.5148,3.5336,3.4332,3.3555,3.2818,3.22,3.2196,3.1589,3.0836,3.1753,3.1599,3.1082,3.1856,3.1599,3.097,3.097,3.097,3.0833,3.0101,3.0419,3.0796,3.0075,2.9856,2.9869,2.9792,2.983,2.9818,2.9792,3.0258,3.0497,2.9905,3.0231,3.0457,2.9892,2.9792,2.9792,2.9792,2.9767,2.9377,2.8298,2.8574,2.8662,2.821,2.8586,2.8863,2.8888,2.8838,2.8411,2.7369,2.7291,2.7052,2.6524,2.6989,2.7507,2.8084,2.8574,2.9176,2.9779,2.9792,2.9792,2.9792,2.9792,2.9792,2.9792,2.9792,2.9792,2.9792,2.9792,2.9792,2.9792,2.9792,2.9792,2.9792,2.9792,2.9792,2.9792,2.9792,2.9792,2.9792,4.0241,4.0636,4.0912,4.0648,3.9861,3.9674,4.0808,4.2581,4.4475,4.6369,4.8676,5.0754,5.2379,5.2931,5.2735,5.1747,5.1395,4.991,4.6773,4.6485,4.5173,4.2365,4.2582,4.1767,3.9584,3.953,3.9251,3.8685,3.7332,3.7181,3.8167,3.6678,3.5829,3.5563,3.62,3.5597,3.416,3.5384,3.5336,3.438,3.4196,3.3888,3.3601,3.3753,3.3193,3.2302,3.2144,3.1965,3.1819,3.2037,3.1965,3.1783,3.1783,3.1783,3.1746,3.1576,3.1636,3.1599,3.0833,3.062,3.0482,2.9934,3.0203,3.0482,2.9934,3.0636,3.1126,3.0008,3.0231,3.0457,2.9892,2.9792,2.9792,2.9792,2.9428,2.9013,2.8725,2.8486,2.8411,2.865,2.8449,2.8473,2.885,2.8185,2.7595,2.7306,2.6939,2.665,2.6499,2.6625,2.714,2.8072,2.8247,2.88,2.9779,2.9792,2.9792,2.9792,2.9792,2.9792,2.9792,2.9792,2.9792,2.9792,2.9792,2.9792,2.9792,2.9792,2.9792,2.9792,2.9792,2.9792,2.9792,2.9792,2.9792,2.9792,4.1625,4.221,4.2738,4.3009,4.2763,4.262,4.2822,4.4022,4.5628,4.7486,4.975,5.17,5.3004,5.386,5.3942,5.3038,5.2934,5.1627,4.8549,4.8621,4.7547,4.4718,4.4662,4.3636,4.1469,4.1189,4.0787,4.0328,3.8959,3.8582,3.9057,3.8052,3.6916,3.5775,3.6921,3.645,3.4859,3.5454,3.5368,3.4806,3.453,3.4329,0.0,3.4374,3.4054,3.3527,3.3213,3.2875,3.2613,3.2995,3.2875,3.2577,3.2577,3.2577,3.2506,3.2182,3.2326,3.2398,3.1636,3.1415,3.1304,3.0897,3.1108,3.1318,3.0897,3.1358,3.1664,3.0962,3.1057,3.106,3.0407,3.0279,3.0177,2.9856,2.9515,2.9214,2.8925,2.8888,2.8863,2.8888,2.8612,2.8549,2.8863,2.7934,2.718,2.6977,2.6889,2.6751,2.6512,2.6725,2.7218,2.8084,2.8109,2.8649,2.9779,2.9792,2.9792,2.9792,2.9792,2.9792,2.9792,2.9792,2.9792,2.9792,2.9792,2.9792,2.9792,2.9792,2.9792,2.9792,2.9792,2.9792,2.9792,2.9792,2.9792,2.9792,4.3137,4.3718,4.4371,4.4806,4.5576,4.5826,4.4816,4.5514,4.6578,4.7886,4.9938,5.1536,5.2166,5.3642,5.4331,5.3684,5.4182,5.3183,5.0146,5.0507,4.9654,4.7056,4.6432,4.5184,4.3166,4.244,4.1758,4.1091,4.0263,3.9488,3.8809,3.8923,3.7595,3.5257,3.7137,3.6983,3.5392,3.5392,3.5348,3.5218,3.4632,3.4414,3.4414,3.4414,3.4414,3.4414,3.4414,3.3962,3.3451,3.4147,3.3928,3.3367,3.3367,3.3367,3.3227,3.2577,3.2875,3.3192,3.2448,3.2218,3.2218,3.211,3.2182,3.2218,3.211,3.2182,3.2218,3.211,3.211,3.1892,3.1193,3.1044,3.0833,3.0228,2.9998,2.9795,2.939,2.9618,2.9669,2.9227,2.9013,0.0,2.8875,2.7996,2.7228,2.6751,2.7153,2.719,2.6637,2.7052,2.7544,2.8084,2.8109,2.8687,2.9892,2.9829,2.9829,2.9892,2.9829,2.9792,2.9792,2.9792,2.9792,2.9792,2.9792,2.9792,2.9792,2.9792,2.9792,2.9792,2.9792,2.9792,2.9792,2.9792,2.9792,2.9792,4.3906,4.4748,4.5416,4.4966,4.6301,4.7746,4.8565,4.9717,5.0929,5.2244,5.4113,5.5444,5.5565,5.5853,5.5579,5.4425,5.4399,5.3584,5.1424,5.136,5.0307,4.7724,4.7506,4.6301,4.3863,4.2687,4.1758,4.1091,3.9378,3.846,3.8332,3.7852,3.7084,3.6086,3.6461,3.6156,3.5392,3.5392,3.5087,3.4559,3.4457,3.4414,3.4414,3.4414,3.4414,3.4414,3.4414,3.4298,3.423,3.4332,3.4312,3.4182,3.4182,3.4182,3.4147,3.4045,3.4079,3.4011,3.3227,3.3003,3.2861,3.2254,3.2541,3.2861,3.2218,3.2577,3.2826,3.2218,3.211,3.2037,3.1928,3.1892,3.1856,3.1723,3.1132,3.0906,3.1466,3.0648,3.0114,3.0488,2.9673,2.9008,2.8913,2.8348,2.7921,2.7821,2.7908,2.772,2.7203,2.7231,2.7544,2.8084,2.8109,2.8863,3.0457,3.0018,3.0018,3.047,3.0005,2.9792,2.9792,2.9792,2.9792,2.9792,2.9792,2.9792,2.9792,2.9792,2.9792,2.9792,2.9792,2.9792,2.9792,2.9792,2.9792,2.9792,4.4966,4.5459,4.6098,4.6766,4.7941,4.9219,5.0511,5.1788,5.2586,5.2528,5.3341,5.3921,5.3921,5.4226,5.4168,5.3559,5.321,5.2484,5.1207,5.0801,4.977,4.7869,4.7462,4.6258,4.4037,4.2411,4.1584,4.1613,3.9015,3.8072,3.8696,3.7752,3.678,3.5807,3.5807,3.5836,3.5836,3.5537,3.5218,3.4878,3.4545,3.4414,3.4414,3.4414,3.4414,3.4414,3.4414,3.4414,3.4414,3.4414,3.4414,3.4414,3.4414,3.4414,3.4414,3.4414,3.4414,3.4312,3.3928,3.3811,3.3742,3.3381,3.3569,3.3742,3.3346,3.3569,3.3707,3.336,3.3276,3.3171,3.2755,3.2362,3.211,3.211,3.1783,3.1673,3.2051,3.1518,3.1076,3.1,3.0508,3.0103,3.0032,2.9473,2.8688,2.7756,2.7946,2.7745,2.6939,2.7394,2.7833,2.8097,2.8109,2.8775,3.0181,2.993,2.993,3.0181,2.9917,2.9792,2.9792,2.9792,2.9792,2.9792,2.9792,2.9792,2.9792,2.9792,2.9792,2.9792,2.9792,2.9792,2.9792,2.9792,2.9792,2.9792,4.6261,4.6539,4.7197,4.8781,4.9693,5.0516,5.1519,5.2702,5.321,5.2339,5.2238,5.218,5.2035,5.247,5.2659,5.2383,5.1904,5.1294,5.0511,5.0008,4.9045,4.7637,4.6969,4.5793,4.4037,4.1961,4.1076,4.1482,3.8681,3.768,3.8362,3.7506,3.6402,3.5203,3.5479,3.5691,3.588,3.5552,3.5319,3.5145,3.4617,3.4414,3.4414,3.4414,3.4414,3.4414,3.4414,3.4414,3.4414,3.4414,3.4414,3.4414,3.4414,3.4414,3.4414,3.4414,3.4414,3.4414,3.4414,3.4414,3.4414,3.4414,3.4414,3.4414,3.4414,3.4414,3.4414,3.4414,3.4414,3.4196,3.3555,3.2981,3.2591,3.2591,3.2448,3.2398,3.2541,3.2338,3.1935,3.1422,3.1223,3.1072,3.0932,3.0392,2.9415,2.7792,2.8031,2.7846,2.6901,2.7632,2.8109,2.8109,2.8222,2.8825,2.9955,2.9854,2.9854,2.9967,2.9842,2.9792,2.9792,2.9792,2.9792,2.9792,2.9792,2.9792,2.9792,2.9792,2.9792,2.9792,2.9792,2.9792,2.9792,2.9792,2.9792,2.9792,4.7863,4.8635,4.9407,5.0173,5.1141,5.1806,5.1923,5.2843,5.3689,5.4183,5.4241,5.4009,5.3399,5.3399,5.2963,5.1802,5.1657,5.1091,4.9843,4.9712,4.8841,4.6952,4.6316,4.5343,4.4023,4.1497,3.9958,3.9465,3.8014,3.6765,3.577,3.6185,3.572,3.4545,3.5706,3.5619,3.4617,3.5174,3.5058,3.4501,3.4443,3.4414,3.4414,3.4414,3.4414,3.4414,3.4414,3.4414,3.4414,3.4414,3.4414,3.4414,3.4414,3.4414,3.4414,3.4414,3.4414,3.4414,3.4414,3.4414,3.4414,3.4414,3.4414,3.4414,3.4414,3.4414,3.4414,3.4414,3.4414,3.438,3.4298,3.423,3.4196,3.4196,3.3555,3.3332,3.4079,3.3073,3.2268,3.2212,3.164,3.1037,3.0357,3.0288,2.9902,2.9012,2.888,2.8549,2.7984,2.8047,2.8109,2.8109,2.8549,2.9352,3.052,3.0043,3.0043,3.0532,3.003,2.9792,2.9792,2.9792,2.9792,2.9792,2.9792,2.9792,2.9792,2.9792,2.9792,2.9792,2.9792,2.9792,2.9792,2.9792,2.9792,2.9792,5.0033,5.0129,5.0563,5.2009,5.2264,5.2488,5.3267,5.3414,5.3568,5.378,5.355,5.3306,5.32,5.2472,5.1751,5.1091,5.047,4.9786,4.9132,4.8391,4.7622,4.6821,4.6229,4.5285,4.4023,4.2223,4.0989,4.0336,3.8667,3.7781,3.7651,3.6736,3.5633,3.4428,3.4951,3.4893,3.4428,3.469,3.4646,3.4414,3.4414,3.4481,3.4563,3.4448,3.4481,3.4597,3.4597,3.4597,3.4597,3.4597,3.4481,3.4414,3.4414,3.4481,3.4563,3.4448,3.4481,3.4563,3.4414,3.4481,3.4563,3.4414,3.4481,3.4563,3.4414,3.4414,3.4414,3.4414,3.4414,3.4414,3.4414,3.4414,3.4414,3.4414,3.4113,3.4045,3.4332,3.3897,3.3283,3.2524,3.2176,3.1732,3.1043,3.0931,3.0923,3.0993,3.0241,2.9457,2.8856,2.9209,2.9366,2.9297,2.9977,3.0487,3.0778,3.056,3.056,3.0778,3.0099,2.9792,2.9792,2.9792,2.9792,2.9792,2.9792,2.9792,2.9792,2.9792,2.9792,2.9792,2.9792,2.9792,2.9792,2.9792,2.9792,2.9792,5.1472,5.1465,5.175,5.3109,5.3059,5.3068,5.3727,5.3426,5.316,5.3195,5.2666,5.2311,5.2513,5.1517,5.0671,5.0364,4.9457,4.8726,4.8283,4.7425,4.6797,4.6563,4.5938,4.5082,4.4008,4.2745,4.1584,4.0539,3.8971,3.8159,3.8043,3.6475,3.527,3.4414,3.4414,3.4414,3.4414,3.4414,3.4414,3.4414,3.4448,3.4563,3.4664,3.4549,3.4582,3.475,3.4698,3.4731,3.475,3.475,3.465,3.4534,3.4448,3.4549,3.4664,3.4515,3.4597,3.4664,3.4515,3.4597,3.4664,3.4515,3.4597,3.4664,3.4515,3.4448,3.4414,3.4414,3.4414,3.4414,3.4414,3.4414,3.4414,3.4414,3.4414,3.4414,3.4414,3.4414,3.4008,3.2919,3.2803,3.2542,3.1843,3.1715,3.1749,3.2005,3.1171,3.0323,2.9631,3.0244,3.0446,3.017,3.106,3.1438,3.1254,3.1267,3.1267,3.1267,3.0709,3.0368,3.0101,2.9895,2.9792,2.9792,2.9792,2.9792,2.9792,2.9792,2.9792,2.9792,2.9792,2.9792,2.9792,2.9792,2.9792,2.9792,5.1762,5.258,5.3159,5.3189,5.353,5.3555,5.2916,5.258,5.2531,5.2763,5.1989,5.1429,5.1429,5.0791,5.0158,4.9572,4.8909,4.8122,4.7278,4.7174,4.6791,4.5924,4.5256,4.4618,4.4008,4.2745,4.1149,3.9218,3.8536,3.7244,3.5436,3.4733,3.4428,3.4414,3.4414,3.4414,3.4414,3.4414,3.4414,3.4414,3.4631,3.4698,3.4698,3.4698,3.4783,3.4868,3.4765,3.4783,3.4902,3.4902,3.4902,3.4835,3.4501,3.4549,3.4698,3.4698,3.4698,3.4698,3.4698,3.4698,3.4698,3.4698,3.4698,3.4698,3.4698,3.4549,3.4414,3.4414,3.4414,3.4414,3.4414,3.4414,3.4414,3.4414,3.4414,3.4414,3.4414,3.4414,3.4167,3.3561,3.3489,3.3209,3.2571,3.2481,3.2177,3.1368,3.1418,3.1155,3.0317,3.0936,3.099,3.0303,3.145,3.2074,3.2074,3.2074,3.2074,3.2074,3.2074,3.1673,3.0857,3.0139,2.9792,2.9792,2.9792,2.9792,2.9792,2.9792,2.9792,2.9792,2.9792,2.9792,2.9792,2.9792,2.9792,2.9792,5.3525,5.3693,5.3728,5.3264,5.3305,5.3331,5.3121,5.2606,5.2275,5.2371,5.1742,5.1229,5.1229,5.0523,4.9907,4.9545,4.8619,4.7909,4.7432,4.702,4.6682,4.6387,4.6167,4.5537,4.4451,4.4026,4.277,4.0704,4.0217,3.9002,3.7107,3.676,3.6175,3.5414,3.4854,3.4597,3.4597,3.4597,3.4597,3.4597,3.4664,3.4831,3.503,3.4883,3.4949,3.5115,3.5063,3.5082,3.5115,3.5115,3.5115,3.5082,3.4802,3.4883,3.5016,3.4883,3.4916,3.5016,3.4883,3.4949,3.5134,3.5427,3.5274,3.5134,3.5442,3.5346,3.5244,3.538,3.5574,3.5479,3.4757,3.4879,3.4922,3.4486,3.4414,3.4414,3.4414,3.4414,3.4182,3.3576,3.3503,3.3256,3.2585,3.2904,3.3086,3.2809,3.3223,3.2958,3.1714,3.1956,3.2173,3.2264,3.3184,3.3381,3.2875,3.2861,3.2861,3.2826,3.2326,3.1673,3.0895,3.0658,3.0279,2.9792,2.9792,2.9792,2.9792,2.9792,2.9792,2.9792,2.9792,2.9792,2.9792,2.9792,2.9792,2.9792,5.3578,5.3653,5.3533,5.2606,5.265,5.2725,5.2486,5.1887,5.1468,5.1468,5.1063,5.0808,5.0808,5.0357,4.9875,4.9469,4.8343,4.754,4.7273,4.6934,4.6668,4.6594,4.6359,4.5725,4.4634,4.4383,4.3357,4.1517,4.0542,3.932,3.7904,3.7496,3.6805,3.5878,3.5379,3.5018,3.4798,3.4798,3.493,3.515,3.5217,3.5385,3.5551,3.5437,3.537,3.5294,3.5213,3.5261,3.5371,3.5609,3.5699,3.5695,3.5818,3.5763,3.5606,3.5156,3.5115,3.524,3.533,3.5307,3.5403,3.6177,3.5993,3.5715,3.6182,3.6178,3.6109,3.6261,3.6412,3.6301,3.5649,3.5497,3.5379,3.4937,3.4675,3.4515,3.4515,3.4515,3.437,3.401,3.3885,3.3707,3.338,3.3434,3.3536,3.3587,3.3634,3.3417,3.2782,3.3033,3.3225,3.3303,3.4032,3.4147,3.3673,3.3638,3.3638,3.3638,3.2875,3.2254,3.1756,3.1476,3.0945,3.0203,3.0203,3.0075,2.9792,2.9792,2.9792,2.9792,2.9792,2.9792,2.9792,2.9792,2.9792,2.9792,5.2396,5.2755,5.277,5.1513,5.1753,5.1932,5.1319,5.0614,5.0211,5.0255,5.0181,5.0136,5.0196,5.0106,4.9853,4.9299,4.8072,4.7252,4.6931,4.6931,4.6844,4.6639,4.6019,4.5355,4.4676,4.4057,4.3097,4.177,3.9881,3.8642,3.8073,3.7334,3.667,3.606,3.603,3.5628,3.5067,3.5067,3.5421,3.6001,3.6185,3.6301,3.6287,3.6287,3.6015,3.5606,3.5428,3.546,3.5729,3.6342,3.6552,3.6656,3.7225,3.7015,3.6384,3.5547,3.5288,3.5421,3.6064,3.5811,3.5659,3.6956,3.6807,3.6476,3.6896,3.6995,3.7009,3.6995,3.7039,3.7004,3.6915,3.629,3.5776,3.5732,3.5156,3.4698,3.4698,3.4698,3.4698,3.4698,3.4549,3.4481,3.4698,3.4024,3.3627,3.3761,3.3074,3.2904,3.3532,3.4095,3.4153,3.359,3.4109,3.4414,3.4414,3.4414,3.4414,3.438,3.3638,3.3262,3.3178,3.2506,3.1746,3.0957,3.0957,3.0558,2.9869,2.9869,2.9869,2.9792,2.9792,2.9792,2.9792,2.9792,2.9792,2.9792,5.3084,5.3069,5.292,5.2112,5.1678,5.1394,5.1244,5.0614,5.0375,5.0883,5.0122,4.9688,5.0136,4.9344,4.8686,4.8536,4.8237,4.7833,4.7237,4.7207,4.7164,4.7135,4.6494,4.5824,4.5138,4.4482,4.3513,4.224,4.1133,4.0293,3.9757,3.8487,3.7847,3.7759,3.7179,3.6798,3.6664,3.6664,3.6753,3.6902,3.6936,3.7024,3.7112,3.7112,3.7056,3.6956,3.6888,3.6922,3.6985,3.7135,3.7195,3.721,3.736,3.73,3.706,3.6399,3.6186,3.6216,3.638,3.6649,3.7082,3.7888,3.8013,3.7903,3.8018,3.7922,3.7851,3.8012,3.8201,3.8102,3.7267,3.6832,3.6443,3.5928,3.5295,3.4835,3.4835,3.4835,3.4835,3.4835,3.4716,3.4683,3.4835,3.4585,3.443,3.4464,3.4299,3.417,3.4182,3.4476,3.4491,3.4196,3.4341,3.4414,3.4414,3.4414,3.4414,3.4414,3.4196,3.3776,3.3178,3.3003,3.2541,3.1819,3.1819,3.1378,3.0658,3.0658,3.0317,2.9792,2.9792,2.9792,2.9792,2.9792,2.9792,2.9792,5.2351,5.2291,5.2172,5.1813,5.1454,5.1214,5.1214,5.0614,5.0211,5.0316,4.9748,4.9329,4.9344,4.8985,4.8611,4.8312,4.8012,4.7683,4.7324,4.7309,4.7309,4.7309,4.6367,4.5678,4.5304,4.4347,4.3509,4.2806,4.2046,4.1428,4.0831,3.9725,3.8919,3.8377,3.7963,3.7565,3.7282,3.7282,3.7461,3.7729,3.7729,3.7799,3.7853,3.7853,3.7674,3.7404,3.7404,3.7404,3.7464,3.7749,3.7853,3.7913,3.8227,3.8108,3.7793,3.7449,3.715,3.6971,3.727,3.7375,3.7569,3.8227,3.8631,3.8856,3.8856,3.8749,3.8728,3.882,3.896,3.8882,3.829,3.7575,3.6916,3.6547,3.5655,3.5034,3.5034,3.5034,3.5034,3.5034,3.4883,3.485,3.5001,3.4883,3.4817,3.4931,3.485,3.4848,3.4942,3.5156,3.499,3.4428,3.4758,3.4937,3.4849,3.514,3.514,3.4849,3.4849,3.447,3.3742,3.3742,3.3346,3.2613,3.2613,3.2182,3.1415,3.1044,3.0645,3.0279,2.9934,2.9792,2.9792,2.9792,2.9792,2.9792,5.1364,5.1364,5.1364,5.1364,5.1289,5.1214,5.1214,5.0524,4.9927,4.9479,4.9194,4.879,4.8341,4.8745,4.8745,4.8192,4.7623,4.7309,4.7309,4.7309,4.7309,4.7309,4.6112,4.5394,4.5289,4.4003,4.329,4.329,4.2686,4.2111,4.1557,4.0846,3.9888,3.8691,3.8691,3.8332,3.7719,3.7719,3.8033,3.8542,3.8542,3.8542,3.8542,3.8542,3.8197,3.7719,3.7719,3.7719,3.7793,3.8362,3.8542,3.8646,3.923,3.902,3.8542,3.8542,3.8153,3.7808,3.8257,3.8063,3.7853,3.8407,3.899,3.9388,3.9388,3.9388,3.9388,3.9388,3.9388,3.9388,3.9388,3.8227,3.7228,3.7228,3.6093,3.5261,3.5261,3.5261,3.5291,3.5395,3.5215,3.5226,3.5495,3.5363,3.533,3.5477,3.533,3.5432,3.579,3.6006,3.5688,3.4821,3.5439,3.5731,3.5572,3.6075,3.604,3.5552,3.5552,3.5203,3.4559,3.4559,3.4131,3.3367,3.3367,3.2981,3.2218,3.1513,3.1106,3.082,3.0203,2.9895,2.9792,2.9934,2.9895,2.983,5.2052,5.2052,5.2052,5.2052,5.1588,5.1214,5.1214,5.0197,4.9583,4.9986,4.8641,4.7788,4.8237,4.7878,4.7563,4.7459,4.7369,4.7309,4.7309,4.7309,4.7309,4.7309,4.6576,4.5888,4.5304,4.4003,4.329,4.329,4.2686,4.2351,4.2231,4.1572,4.0816,4.0098,4.0098,3.9723,3.9074,3.9074,3.917,3.926,3.926,3.926,3.926,3.926,3.92,3.9074,3.9074,3.9074,3.9125,3.923,3.926,3.9239,3.9394,3.9313,3.926,3.926,3.9185,3.9005,3.8527,3.8736,3.9089,3.923,3.9298,3.9388,3.9388,3.9388,3.9388,3.9388,3.9388,3.9388,3.9388,3.8282,3.7385,3.7385,3.6309,3.5439,3.5439,3.5439,3.5666,3.6234,3.6112,3.6287,3.6992,3.6915,3.6862,3.6896,3.6862,3.6788,3.6704,3.6892,3.6847,3.6536,3.6625,3.6614,3.6418,3.6343,3.6257,3.6156,3.6156,3.5836,3.5247,3.5247,3.4888,3.423,3.423,3.3742,3.3003,3.2883,3.2096,3.0895,3.0758,3.0343,2.9869,3.052,3.0343,2.9895,5.1678,5.1678,5.1678,5.1678,5.1424,5.1214,5.1214,5.0406,4.9778,4.9718,4.8611,4.7818,4.7758,4.7489,4.7309,4.7309,4.7309,4.7309,4.7309,4.7309,4.7309,4.7309,4.6322,4.5289,4.4272,4.3604,4.329,4.329,4.303,4.2701,4.2396,4.2096,4.1587,4.0935,4.0935,4.0756,4.0472,4.0472,4.0277,3.9948,3.9948,3.9948,3.9903,3.9559,3.9858,4.0382,3.9679,3.9649,3.9888,3.9508,3.9649,3.9948,3.9948,3.9948,3.9948,3.9948,3.9694,3.9424,3.9454,3.9709,3.9948,3.9948,3.9948,3.9858,3.9463,3.9388,3.9388,3.9388,3.9709,3.9843,3.9484,3.8601,3.7943,3.7943,3.6567,3.5624,3.5983,3.6028,3.6148,3.6447,3.6709,3.6988,3.7375,3.7351,3.7316,3.7316,3.7316,3.7377,3.7558,3.7749,3.7898,3.8077,3.7659,3.7538,3.7768,3.7602,3.7317,3.7004,3.6874,3.633,3.5392,3.5392,3.5009,3.4414,3.4414,3.4182,3.3811,3.3367,3.2777,3.2096,3.1696,3.1355,3.1084,3.1415,3.1318,3.1046,5.1214,5.1214,5.1214,5.1214,5.1214,5.1169,5.1005,5.039,4.9778,4.9164,4.8461,4.7863,4.7354,4.7309,4.7309,4.7309,4.7309,4.7309,4.7309,4.7309,4.7309,4.7309,4.6022,4.4751,4.3544,4.3364,4.329,4.329,4.329,4.3075,4.262,4.262,4.2276,4.1647,4.1647,4.1572,4.1422,4.1422,4.1085,4.0621,4.0621,4.0621,4.0576,4.0068,4.0502,4.1287,4.0232,4.0113,4.0352,3.9993,4.0113,4.0427,4.0576,4.0621,4.0621,4.0621,4.0277,3.9993,4.0487,4.0621,4.0621,4.0621,4.0621,4.0502,3.9993,3.9873,3.9873,3.9873,4.0277,4.0472,3.9963,3.92,3.8631,3.8631,3.712,3.6133,3.6626,3.6701,3.6761,3.6911,3.7345,3.7704,3.7853,3.7868,3.7868,3.7868,3.7868,3.8023,3.8368,3.856,3.8799,3.9162,3.8536,3.8383,3.887,3.8649,3.8304,3.7821,3.7652,3.6961,3.5842,3.5683,3.5314,3.4835,3.4578,3.4569,3.4603,3.3868,3.3451,3.3213,3.2648,3.229,3.211,3.2362,3.229,3.2051,5.1214,5.1214,5.1214,5.1214,5.1214,5.1005,5.036,4.9763,4.9149,4.8446,4.7788,4.7354,4.7309,4.7309,4.7309,4.7309,4.7309,4.7309,4.7309,4.7309,4.7309,4.7309,4.6022,4.496,4.4257,4.3604,4.329,4.329,4.329,4.3275,4.3215,4.3215,4.291,4.2336,4.2336,4.1991,4.1422,4.1422,4.1354,4.1347,4.1347,4.1347,4.1309,4.125,4.1294,4.1407,4.1265,4.0876,4.0487,4.1055,4.0861,4.0502,4.1115,4.1347,4.1347,4.1347,4.1265,4.125,4.1294,4.1347,4.1347,4.1347,4.1347,4.1294,4.125,4.1235,4.1235,4.1235,4.1265,4.1294,4.125,4.0202,3.9349,3.9349,3.8167,3.7285,3.7345,3.7345,3.7569,3.8182,3.8287,3.8571,3.9215,3.9275,3.9275,3.9275,3.9275,3.9254,3.9298,3.9313,3.9328,3.9388,3.9133,3.9009,3.9068,3.887,3.8657,3.8442,3.8405,3.7981,3.7143,3.6519,3.6214,3.6098,3.5107,3.4986,3.5453,3.485,3.4147,3.3471,3.3437,3.2861,3.2218,3.3073,3.2861,3.2182,5.1139,5.1214,5.1214,5.1214,5.0885,5.048,5.0226,4.9344,4.8566,4.8312,4.7713,4.7309,4.7309,4.7309,4.7309,4.7309,4.7309,4.7309,4.7309,4.7309,4.7115,4.6711,4.5798,4.499,4.4332,4.3618,4.329,4.329,4.329,4.329,4.329,4.329,4.317,4.297,4.297,4.2821,4.2596,4.2596,4.2357,4.2036,4.2036,4.2036,4.1976,4.1572,4.1878,4.2476,4.1669,4.1512,4.1632,4.1467,4.1527,4.1692,4.1946,4.2036,4.2036,4.2036,4.2036,4.2111,4.2476,4.2297,4.2036,4.2036,4.2036,4.1916,4.1474,4.1422,4.1422,4.1422,4.1737,4.1901,4.1497,4.0965,4.0636,4.0636,3.9529,3.8646,3.8646,3.8646,3.8586,3.8407,3.8766,3.9125,3.9394,3.9388,3.9388,3.9388,3.9388,3.9388,3.9388,3.9388,3.9388,3.9388,3.9337,3.9301,3.9301,3.9104,3.8958,3.8885,3.876,3.8326,3.7652,3.728,3.6872,3.6464,3.6067,3.578,3.5575,3.5507,3.5019,3.4356,3.4356,3.4153,3.3899,3.4254,3.4085,3.3673,5.0734,5.0868,5.0928,5.1184,5.0629,5.0121,4.9972,4.9,4.8207,4.7997,4.7593,4.7309,4.7309,4.7309,4.7309,4.7309,4.7309,4.7309,4.7309,4.7309,4.701,4.6309,4.5873,4.5304,4.4631,4.3947,4.3604,4.3604,4.3394,4.329,4.329,4.329,4.329,4.329,4.329,4.329,4.329,4.329,4.3075,4.2671,4.2671,4.2671,4.2611,4.2162,4.2551,4.3185,4.2312,4.2147,4.2366,4.2073,4.2201,4.2425,4.2635,4.2671,4.2671,4.2671,4.2671,4.2761,4.317,4.3015,4.2671,4.2671,4.2671,4.2551,4.2102,4.1998,4.1998,4.1998,4.2357,4.2521,4.2073,4.1833,4.1722,4.1722,4.0756,4.0038,4.0038,4.0038,3.9858,3.9379,3.9753,4.0038,4.0038,4.0038,3.9948,3.9738,3.9723,3.9634,3.9388,3.9388,3.9388,3.9388,3.9388,3.9388,3.9388,3.9265,3.9141,3.9104,3.8943,3.8649,3.8148,3.7848,3.7541,3.7277,3.6916,3.6628,3.6364,3.6104,3.571,3.5281,3.509,3.4968,3.4902,3.4968,3.4916,3.4683,5.0046,5.0181,5.039,5.1094,5.0614,5.0002,4.9359,4.8701,4.8042,4.7399,4.7309,4.7309,4.7309,4.7309,4.7309,4.7309,4.7309,4.7309,4.7309,4.7309,4.701,4.6324,4.6279,4.6007,4.5319,4.4661,4.4332,4.4332,4.3618,4.3305,4.3305,4.329,4.329,4.329,4.329,4.329,4.329,4.329,4.329,4.329,4.329,4.329,4.329,4.329,4.329,4.329,4.329,4.2925,4.2515,4.312,4.2895,4.2515,4.3135,4.329,4.329,4.3305,4.329,4.329,4.3305,4.3305,4.3305,4.329,4.329,4.3305,4.3305,4.3305,4.3305,4.3305,4.3305,4.3305,4.329,4.2806,4.241,4.241,4.1856,4.1384,4.1384,4.1384,4.1422,4.1422,4.1422,4.1422,4.1422,4.1422,4.1115,4.0457,4.0397,4.0113,3.9454,3.9388,3.9388,3.9388,3.9388,3.9424,3.9388,3.9388,3.9301,3.9104,3.9104,3.898,3.8767,3.8199,3.8243,3.8745,3.7668,3.7545,3.7985,3.6743,3.6208,3.6134,3.5495,3.5096,3.4949,3.5129,3.5082,3.4902,4.9434,4.9553,4.9613,4.9808,4.9299,4.8805,4.8611,4.8012,4.7534,4.7339,4.7309,4.7309,4.7309,4.7309,4.7309,4.7309,4.7309,4.7309,4.7309,4.7309,4.7219,4.7025,4.6576,4.619,4.6022,4.5349,4.5005,4.5005,4.4347,4.4018,4.4003,4.3514,4.329,4.329,4.329,4.329,4.329,4.329,4.329,4.329,4.329,4.329,4.329,4.329,4.329,4.329,4.329,4.317,4.3075,4.323,4.317,4.3075,4.323,4.329,4.3379,4.3843,4.3648,4.3394,4.3858,4.4018,4.3873,4.3409,4.3633,4.4018,4.4018,4.4377,4.4586,4.4122,4.4018,4.3843,4.3379,4.3125,4.3045,4.3045,4.288,4.2596,4.2171,4.2111,4.1931,4.1467,4.1422,4.1422,4.1422,4.1422,4.1332,4.11,4.0666,4.0307,4.0113,4.0113,4.0113,4.0113,4.0113,3.9888,3.9388,3.9388,3.9373,3.9301,3.9301,3.9265,3.9213,3.8875,3.8854,3.9002,3.8652,3.8377,3.8059,3.7834,3.747,3.7037,3.6809,3.6701,3.6607,3.6242,3.5978,3.5722,4.8745,4.8925,4.9,4.9269,4.8775,4.8282,4.8282,4.7728,4.7309,4.7309,4.7309,4.7309,4.7309,4.7309,4.7309,4.7309,4.7309,4.7309,4.7309,4.7309,4.7309,4.7309,4.692,4.6711,4.6711,4.6052,4.5708,4.5708,4.502,4.4706,4.4691,4.3992,4.3828,4.4092,4.3529,4.3439,4.3663,4.3409,4.3439,4.3663,4.3409,4.3604,4.4077,4.3783,4.3843,4.4107,4.4107,4.4107,4.4062,4.3768,4.3678,4.3723,4.3992,4.4107,4.4182,4.4586,4.4421,4.4197,4.4601,4.4706,4.4601,4.4212,4.4407,4.4706,4.4706,4.5005,4.5185,4.4781,4.4706,4.4586,4.4182,4.3858,4.3678,4.3678,4.3469,4.3155,4.2806,4.2746,4.2596,4.2207,4.2147,4.2147,4.2147,4.2147,4.2043,4.1826,4.116,4.0786,4.0786,4.0786,4.0786,4.0786,4.0786,4.0472,3.9813,3.9813,3.9679,3.9388,3.9388,3.9388,3.9388,3.9265,3.9228,3.9228,3.9228,3.9005,3.8603,3.8476,3.8153,3.7778,3.7509,3.7404,3.7345,3.6716,3.641,3.6205,4.8072,4.8192,4.8386,4.903,4.864,4.8192,4.8192,4.7683,4.7309,4.7309,4.7309,4.7309,4.7309,4.7309,4.7309,4.7309,4.7309,4.7309,4.7309,4.7309,4.7309,4.7309,4.7309,4.7309,4.7309,4.6711,4.6369,4.6369,4.5723,4.5394,4.5364,4.4706,4.4721,4.5244,4.4007,4.3838,4.4362,4.3723,4.3813,4.4347,4.3708,4.4227,4.5229,4.4631,4.4766,4.5289,4.5289,4.5289,4.5214,4.4601,4.4407,4.4511,4.511,4.5289,4.5304,4.5364,4.5349,4.5304,4.5364,4.5394,4.5394,4.5394,4.5424,4.5454,4.5394,4.5439,4.5454,4.5394,4.5394,4.5364,4.5304,4.4811,4.4392,4.4332,4.3768,4.3364,4.3305,4.329,4.329,4.329,4.329,4.329,4.329,4.329,4.306,4.2455,4.1841,4.1512,4.1512,4.1512,4.1512,4.1512,4.1512,4.1145,4.0502,4.0487,4.0127,3.9388,3.9388,3.9388,3.9388,3.9388,3.9388,3.9388,3.9388,3.9388,3.9328,3.8736,3.8482,3.8422,3.7823,3.7584,3.7509,3.6881,3.6611,3.6477,4.7489,4.7519,4.7563,4.7713,4.7608,4.7519,4.7519,4.7399,4.7309,4.7309,4.7309,4.7309,4.7309,4.7309,4.7309,4.7309,4.7309,4.7309,4.7309,4.7309,4.7309,4.7309,4.7309,4.7309,4.7309,4.7174,4.71,4.71,4.6426,4.6097,4.6082,4.5409,4.5155,4.5289,4.5005,4.4945,4.5065,4.493,4.4945,4.5065,4.493,4.5035,4.5274,4.514,4.517,4.5289,4.5289,4.5289,4.5274,4.5125,4.508,4.511,4.5244,4.5289,4.5394,4.5948,4.5723,4.5409,4.5963,4.6097,4.6097,4.6097,4.6486,4.6741,4.6217,4.6501,4.6726,4.6202,4.6097,4.5933,4.5394,4.517,4.4915,4.4407,4.4197,4.3888,4.3364,4.329,4.329,4.329,4.329,4.329,4.329,4.329,4.306,4.2455,4.2276,4.2186,4.2186,4.2186,4.2186,4.2186,4.2186,4.1871,4.1175,4.1175,4.0576,3.9388,3.9388,3.9388,3.9388,3.9388,3.9388,3.9388,3.9388,3.9388,3.9373,3.926,3.9185,3.9185,3.9,3.899,3.8901,3.8227,3.7659,3.7045,4.7369,4.7309,4.7309,4.7309,4.7309,4.7309,4.7309,4.7309,4.7309,4.7309,4.7309,4.7309,4.7309,4.7309,4.7309,4.7309,4.7309,4.7309,4.7309,4.7309,4.7309,4.7309,4.7309,4.7309,4.7309,4.7309,4.7309,4.7309,4.6965,4.68,4.677,4.6097,4.5963,4.6232,4.5589,4.5484,4.5768,4.5439,4.5484,4.5753,4.5424,4.5678,4.6217,4.5903,4.5978,4.6247,4.6247,4.6052,4.5843,4.6142,4.6037,4.5843,4.6157,4.6247,4.6322,4.6681,4.6531,4.6337,4.6696,4.68,4.68,4.68,4.7055,4.7219,4.6875,4.7055,4.7204,4.686,4.68,4.6681,4.6322,4.5992,4.5678,4.5334,4.5005,4.4541,4.3858,4.3768,4.3648,4.3334,4.329,4.329,4.329,4.329,4.3155,4.2851,4.2821,4.2821,4.2821,4.2821,4.2821,4.2821,4.2821,4.2506,4.1886,4.1886,4.1339,4.0352,4.0352,4.0352,4.0337,4.0023,3.9888,3.9873,3.9559,3.9388,3.9388,3.9388,3.9388,3.9388,3.9388,3.9388,3.9298,3.8646,3.7778,3.6881,4.7414,4.7309,4.7309,4.7309,4.7309,4.7309,4.7309,4.7309,4.7309,4.7309,4.7309,4.7309,4.7309,4.7309,4.7309,4.7309,4.7309,4.7309,4.7309,4.7309,4.7309,4.7309,4.7309,4.7309,4.7309,4.7309,4.7309,4.7309,4.7309,4.7309,4.7294,4.6741,4.6785,4.7249,4.6142,4.5963,4.6456,4.5888,4.5963,4.6441,4.5873,4.6307,4.7249,4.6696,4.683,4.7309,4.7309,4.695,4.6576,4.7115,4.6935,4.6591,4.713,4.7309,4.7309,4.7309,4.7309,4.7309,4.7309,4.7309,4.7309,4.7309,4.7309,4.7309,4.7309,4.7309,4.7309,4.7309,4.7309,4.7309,4.7309,4.686,4.6414,4.6337,4.5843,4.5244,4.4571,4.4481,4.4272,4.3693,4.3529,4.3469,4.3469,4.3364,4.329,4.329,4.329,4.329,4.329,4.329,4.329,4.329,4.329,4.3075,4.2575,4.256,4.2252,4.1713,4.1713,4.1594,4.1392,4.0816,4.0502,4.0367,3.9828,3.9529,3.9388,3.9388,3.9388,3.9388,3.9388,3.9388,3.9298,3.8646,3.7644,3.6626,4.7324,4.7309,4.7309,4.7309,4.7309,4.7309,4.7309,4.7309,4.7309,4.7309,4.7309,4.7309,4.7309,4.7309,4.7309,4.7309,4.7309,4.7309,4.7309,4.7309,4.7309,4.7309,4.7309,4.7309,4.7309,4.7309,4.7309,4.7309,4.7309,4.7309,4.7309,4.7219,4.7219,4.7294,4.7115,4.7085,4.7174,4.707,4.7085,4.716,4.707,4.7145,4.7294,4.7204,4.7234,4.7309,4.7309,4.7249,4.7189,4.7279,4.7249,4.7189,4.7279,4.7309,4.7309,4.7309,4.7309,4.7309,4.7309,4.7309,4.7309,4.7309,4.7309,4.7309,4.7309,4.7309,4.7309,4.7309,4.7309,4.7309,4.7309,4.7234,4.698,4.6369,4.6204,4.5948,4.5259,4.5155,4.5125,4.5035,4.4526,4.4182,4.4182,4.3618,4.329,4.329,4.329,4.329,4.329,4.329,4.329,4.329,4.329,4.3245,4.317,4.317,4.311,4.3021,4.3021,4.2476,4.1422,4.1332,4.0935,4.0397,4.0307,3.9948,3.9388,3.9388,3.9388,3.9388,3.9388,3.9388,3.9298,3.8646,3.7913,3.721,4.7369,4.7309,4.7309,4.7309,4.7309,4.7309,4.7309,4.7309,4.7309,4.7309,4.7309,4.7309,4.7309,4.7309,4.7309,4.7309,4.7309,4.7309,4.7309,4.7309,4.7309,4.7309,4.7309,4.7309,4.7309,4.7309,4.7309,4.7309,4.7309,4.7309,4.7309,4.7309,4.7309,4.7309,4.7309,4.7309,4.7309,4.7309,4.7309,4.7309,4.7309,4.7309,4.7309,4.7309,4.7309,4.7309,4.7309,4.7309,4.7309,4.7309,4.7309,4.7309,4.7309,4.7309,4.7309,4.7309,4.7309,4.7309,4.7309,4.7309,4.7309,4.7309,4.7309,4.7309,4.7309,4.7309,4.7309,4.7309,4.7309,4.7309,4.7309,4.7309,4.7204,4.692,4.6875,4.6636,4.5963,4.5873,4.5723,4.5334,4.5035,4.4721,4.4347,4.4007,4.3678,4.3319,4.329,4.329,4.329,4.329,4.329,4.329,4.329,4.329,4.329,4.329,4.329,4.329,4.329,4.2991,4.2462,4.2087,4.1602,4.0935,4.0561,4.0023,3.9388,3.9388,3.9388,3.9388,3.9388,3.9388,3.9343,3.908,3.8542,3.7913]}]]